GFSCGP_850_thetae_003.txt.gz
Theta_e
316 312 313 314 314 315 315 315 316 315 314 316 316 313 313 312 312 312 312 313 315 316 316 316 316 315 316 315 315 314 313 313 313 313 312 312 312 312 311 310 309 309 308 308
314 315 315 314 314 314 315 316 315 314 314 315 315 315 309 310 311 311 313 315 315 315 315 315 315 315 315 314 314 313 313 314 313 313 313 313 313 312 312 312 311 309 309 308
314 316 314 315 313 313 313 316 315 316 314 315 315 316 312 312 313 313 313 314 314 315 315 314 314 314 314 314 314 314 313 313 313 313 312 312 312 312 312 312 312 312 310 309
316 313 314 313 314 314 315 314 315 315 317 317 314 317 315 312 313 313 312 313 314 315 315 315 315 314 314 314 313 313 313 313 313 312 313 313 313 313 313 312 310 311 312 310
316 313 313 314 315 314 315 314 314 317 316 317 315 314 315 312 314 312 312 314 315 315 315 315 314 314 314 314 313 313 313 313 313 313 313 313 312 312 311 309 309 310 311 311
315 314 314 315 315 316 315 316 315 315 315 317 317 316 313 313 313 313 313 314 314 314 315 315 314 314 314 314 314 314 314 313 313 313 313 312 311 310 310 308 308 307 307 308
317 317 315 316 316 315 314 315 314 314 314 317 316 315 313 314 313 313 313 314 315 315 315 314 314 314 314 314 313 312 312 312 311 311 310 310 309 308 307 307 306 305 305 305
319 317 317 316 316 317 317 316 313 317 315 316 315 318 316 314 314 313 316 314 315 316 316 315 314 314 313 312 312 311 311 311 311 309 309 307 306 306 306 306 305 304 304 305
317 318 316 317 317 316 318 316 315 313 304 310 315 317 314 313 314 314 315 314 314 314 314 313 312 312 312 312 311 311 310 309 307 306 305 304 304 303 304 305 303 303 303 303
317 320 317 316 317 316 316 315 316 312 313 319 319 317 317 316 315 314 312 311 312 312 312 312 312 312 312 311 309 308 307 306 305 304 303 303 302 301 303 303 302 302 301 300
315 317 315 314 317 317 315 315 315 316 313 317 315 317 314 314 313 313 311 312 312 312 312 312 312 312 312 309 307 307 306 305 304 304 304 304 301 301 301 301 301 301 298 296
315 311 312 316 313 314 316 315 314 315 315 311 308 316 313 313 313 312 312 313 312 312 312 312 312 311 308 307 307 305 304 303 304 305 305 303 301 300 300 299 299 297 297 298
314 311 311 312 312 312 316 315 314 310 307 313 310 312 311 313 312 312 312 313 312 312 311 312 312 310 308 308 307 304 304 305 305 305 304 301 300 299 298 296 296 295 295 294
315 312 312 313 312 313 316 315 315 313 305 312 313 314 313 311 311 311 312 312 312 311 311 311 311 308 308 308 306 304 303 304 304 302 300 298 299 296 295 294 294 294 293 295
312 314 313 312 313 314 315 316 316 315 313 315 314 312 311 310 311 312 312 311 311 310 311 310 308 307 308 308 306 305 304 303 301 299 298 299 295 293 294 294 294 294 295 294
312 310 314 313 313 314 315 314 313 313 313 311 311 310 309 312 312 312 312 311 310 309 310 309 306 307 308 307 306 305 302 301 298 297 297 298 297 295 295 295 295 294 293 293
312 306 307 309 309 308 310 310 312 311 310 310 310 309 311 311 311 312 311 311 310 309 309 306 305 306 306 306 303 301 300 298 297 297 296 296 296 295 294 293 292 291 291 291
305 304 304 305 311 313 311 310 310 310 310 309 309 310 311 312 312 312 311 310 309 308 304 302 303 303 303 303 301 299 299 298 297 297 294 292 292 292 292 292 292 290 289 288
307 307 309 314 313 310 312 311 311 310 309 310 311 311 312 310 311 311 310 309 307 303 302 302 302 304 303 300 299 298 297 296 294 292 292 292 291 290 289 288 288 287 287 286
305 300 304 308 312 315 309 308 310 312 312 310 312 311 310 309 310 310 308 305 303 302 302 303 303 301 298 298 298 298 296 293 293 292 292 291 289 288 287 286 286 286 286 285
302 305 308 308 309 306 306 308 310 312 311 311 311 310 309 308 310 308 306 303 301 300 302 302 299 297 298 298 297 295 293 292 292 293 290 289 287 286 286 286 286 286 285 284
307 307 304 306 308 310 310 311 311 311 311 311 310 310 310 310 307 303 300 300 300 302 300 297 296 297 297 296 295 294 293 293 292 290 288 286 286 286 285 285 285 284 284 283
311 308 306 309 308 308 310 310 310 310 310 309 310 309 306 305 302 300 299 300 302 300 296 296 296 296 296 296 294 294 293 291 290 287 286 286 286 285 285 284 284 284 283 282
310 311 306 308 310 310 311 311 311 310 310 309 305 304 302 299 299 298 298 300 301 298 296 296 296 296 295 295 293 292 291 290 287 287 286 286 286 285 284 284 284 283 282 281
312 311 310 311 311 311 311 310 310 309 309 306 304 302 300 298 298 299 300 302 300 298 297 297 297 295 292 292 291 291 290 288 287 287 287 287 286 285 285 284 283 282 281 280
311 311 310 312 312 310 311 310 307 304 302 301 300 299 298 299 300 300 301 300 299 299 296 296 294 293 292 292 291 291 290 288 287 287 287 287 286 286 285 284 283 281 280 280

GFSCGP_850_thetae_006.txt.gz
Theta_e
314 311 312 313 313 313 314 313 315 313 313 315 314 312 309 309 310 311 310 311 313 314 315 315 316 316 315 315 315 314 313 313 313 313 313 313 313 312 313 312 312 312 311 311
312 313 313 312 312 313 314 315 312 312 313 315 314 314 309 310 310 310 312 314 315 315 315 315 315 315 314 314 314 313 313 313 313 313 312 312 312 312 312 313 312 312 312 310
313 314 313 313 312 313 313 314 314 315 313 314 312 314 311 311 312 312 313 314 314 315 315 314 314 314 314 314 314 313 313 313 312 312 312 311 312 313 313 312 311 311 309 309
314 312 312 314 314 313 315 313 314 314 316 317 312 316 314 310 312 310 312 313 314 314 314 314 315 315 314 314 313 313 313 312 312 312 313 312 312 311 311 310 309 308 308 308
313 313 314 315 315 314 315 314 315 315 315 315 314 313 313 310 313 312 312 313 314 314 314 314 314 314 313 313 313 312 313 313 313 313 312 311 310 309 309 308 307 307 306 306
315 314 313 314 314 315 314 315 312 313 313 316 316 315 313 312 312 312 312 313 314 314 314 314 314 313 313 313 313 313 313 312 311 311 311 309 307 306 306 305 304 303 304 304
315 316 315 315 316 315 313 312 311 313 313 316 315 314 312 313 312 312 313 314 314 313 312 312 313 313 314 313 312 311 311 311 309 308 307 307 306 304 303 302 301 301 303 303
318 314 316 315 316 317 316 314 311 315 313 314 313 317 315 313 312 313 313 312 314 314 314 314 313 313 312 312 311 311 309 309 308 306 305 304 303 302 301 301 300 300 303 302
316 317 315 316 315 315 317 315 314 312 302 309 314 315 314 312 313 314 313 313 312 312 312 312 312 312 312 312 312 310 307 306 306 304 303 303 302 301 300 301 300 301 302 301
317 319 315 315 316 315 315 313 314 311 312 316 316 315 315 314 312 310 309 311 312 312 312 312 312 312 312 311 308 307 306 305 304 303 302 302 302 300 299 299 300 301 301 300
314 315 313 313 315 316 315 314 313 314 312 312 313 315 312 312 311 310 310 312 312 312 312 312 312 312 312 309 308 307 304 302 301 301 303 303 301 299 298 299 299 299 298 297
313 310 311 314 313 314 314 314 312 309 312 309 307 312 311 311 311 311 312 312 312 312 311 310 310 311 311 308 308 307 305 304 304 304 303 301 299 298 299 298 297 296 295 295
313 310 309 309 311 311 315 315 312 307 307 312 309 312 309 310 311 312 312 312 312 311 310 310 309 311 310 307 308 308 306 306 305 303 300 299 297 298 297 295 295 294 294 294
314 310 310 310 310 310 314 315 313 313 313 312 312 313 313 311 309 311 312 312 312 311 310 309 310 310 306 306 307 306 306 305 302 299 298 297 296 297 294 294 294 293 293 294
311 314 312 311 311 311 313 314 313 312 312 315 314 312 312 309 307 312 312 312 312 311 310 309 309 306 303 304 303 301 303 301 299 298 297 296 296 296 294 293 293 293 294 294
310 309 312 311 311 311 312 312 312 312 312 311 312 312 310 309 312 312 311 311 311 310 308 306 302 302 302 300 300 302 301 298 298 298 297 296 295 295 295 294 293 293 292 292
311 305 307 308 308 307 307 308 310 311 310 310 310 309 308 310 310 310 310 311 310 308 305 305 303 300 300 301 302 300 298 297 297 297 295 292 292 292 291 291 291 291 290 289
305 303 304 306 310 314 310 310 309 309 308 308 307 306 309 311 310 309 310 310 308 306 303 300 300 302 302 302 299 298 298 297 296 295 294 292 292 291 290 289 288 287 287 287
306 305 308 313 313 310 312 310 311 309 308 308 308 310 311 310 309 309 309 306 303 302 299 300 301 303 301 297 297 298 297 295 293 292 292 291 290 289 288 286 286 286 286 286
304 299 303 308 312 314 309 307 308 310 309 310 311 311 310 309 308 309 304 303 300 299 299 301 302 298 296 296 298 297 295 293 292 292 292 290 289 287 286 286 286 285 285 285
302 305 312 312 311 308 306 307 309 312 310 310 310 310 309 306 306 302 300 299 298 299 301 301 297 296 295 297 296 295 294 293 292 292 290 288 286 286 285 285 285 284 284 284
305 303 301 305 308 308 307 310 311 310 311 310 310 308 308 306 303 301 299 299 298 299 301 300 296 295 296 296 296 294 293 292 291 290 288 286 286 286 285 285 284 284 284 284
308 307 308 310 307 307 309 311 311 310 310 309 308 306 305 302 301 300 298 299 300 300 301 299 298 295 296 295 293 292 292 292 290 289 287 286 287 286 286 285 285 284 284 283
309 311 309 309 309 311 312 311 310 310 309 307 305 304 302 298 298 299 299 300 299 301 300 299 298 296 294 292 292 292 292 291 290 287 287 287 287 287 286 285 285 284 283 281
310 310 310 309 311 311 311 310 309 307 306 306 302 300 299 299 299 298 299 297 298 299 298 298 297 295 293 292 293 292 291 290 288 287 287 287 287 287 286 285 285 283 282 281
311 309 308 311 311 311 311 310 308 306 304 301 298 298 297 297 298 298 297 296 296 296 296 297 296 295 294 294 292 291 290 290 289 288 287 287 287 287 286 284 284 282 281 280

GFSCGP_850_thetae_012.txt.gz
Theta_e
318 320 320 319 319 318 318 318 319 318 318 320 321 320 318 317 317 318 317 317 318 320 318 316 315 315 314 316 323 322 320 316 313 312 312 313 313 313 313 313 312 312 311 310
320 320 317 318 318 318 318 319 319 319 318 320 321 320 318 317 317 317 318 317 318 317 316 316 315 315 315 315 315 316 315 313 312 311 311 311 311 312 312 312 312 311 310 308
319 317 316 318 320 320 320 319 320 320 320 320 321 322 319 317 317 316 317 317 317 317 316 315 315 314 314 314 314 313 312 311 311 311 312 312 312 311 311 310 309 308 306 304
318 317 319 320 320 320 320 318 320 320 321 322 321 323 320 318 318 317 317 317 316 316 315 314 315 313 312 312 312 312 312 312 311 311 310 310 310 310 309 308 307 305 304 302
317 319 320 320 319 320 321 319 320 321 322 322 323 323 322 319 318 317 317 316 316 315 315 315 314 314 313 312 312 311 312 311 311 310 310 309 309 308 308 307 306 304 303 302
319 317 320 320 318 318 319 320 320 321 324 326 323 323 323 321 319 318 316 316 316 316 314 314 314 314 314 313 312 312 312 311 311 310 308 307 306 306 306 305 303 303 302 302
320 320 319 319 320 320 321 322 324 327 327 326 320 321 322 318 317 317 317 317 316 316 315 315 314 314 314 313 312 312 312 311 310 309 307 305 305 304 304 304 303 302 301 301
321 323 321 319 320 321 321 322 325 324 324 323 320 321 322 318 317 316 316 315 315 315 314 314 314 313 313 313 312 312 311 310 309 308 307 303 300 304 303 302 300 299 299 299
321 321 319 318 318 319 321 323 319 322 317 325 321 321 319 318 317 316 316 316 315 315 314 314 313 313 313 312 312 311 311 311 310 308 305 303 304 304 302 298 297 297 297 299
320 322 318 318 318 319 320 319 322 321 327 318 317 319 319 320 319 316 316 316 315 315 314 314 313 312 312 312 312 311 310 309 308 307 304 304 303 300 298 297 297 298 299 300
317 319 318 318 321 321 321 321 319 319 321 321 320 317 319 318 317 316 316 315 315 314 314 313 312 311 311 311 310 309 309 307 305 304 303 302 300 298 297 297 297 297 297 296
318 319 317 317 317 317 318 319 318 319 318 319 320 317 316 317 316 315 315 314 314 314 313 313 312 311 311 309 308 306 306 304 303 302 301 300 298 297 297 297 297 297 297 296
318 318 316 317 318 318 319 318 317 317 317 319 321 318 315 315 315 314 314 314 314 313 312 312 312 311 309 307 305 304 303 303 302 301 299 299 298 298 297 297 296 296 295 295
316 318 317 314 314 315 315 315 316 317 320 318 318 317 316 315 315 314 314 314 313 312 312 312 310 308 305 304 302 303 303 302 300 299 299 298 297 297 296 295 294 294 294 294
319 317 317 316 316 315 316 315 315 316 317 318 317 316 316 315 314 313 313 313 312 312 310 308 307 305 302 301 303 303 301 299 299 299 298 297 295 295 294 293 292 292 291 290
316 318 315 315 314 315 315 315 315 315 316 316 316 316 314 312 312 313 313 312 311 310 307 305 301 301 301 302 302 300 299 298 298 297 296 295 294 293 292 291 290 289 288 288
318 318 317 320 314 315 318 316 315 315 315 315 316 315 313 314 313 313 312 310 308 305 303 301 300 300 301 302 300 299 298 297 297 296 295 294 294 292 291 290 288 288 288 288
314 317 314 319 316 321 315 314 314 314 314 314 314 313 313 313 313 312 309 307 304 303 301 300 300 300 301 301 299 298 297 296 296 295 294 294 292 291 290 288 288 288 287 287
314 316 315 316 316 315 314 313 314 313 314 313 314 314 313 312 311 311 305 304 304 302 301 300 300 300 301 301 299 298 297 296 296 295 294 293 291 290 288 288 288 287 287 287
311 311 318 315 317 317 316 312 310 312 316 313 312 312 311 311 311 307 305 304 302 301 300 299 299 299 300 300 299 298 297 296 294 294 293 292 291 289 288 288 288 287 287 286
311 311 314 314 316 315 313 311 311 316 317 313 310 310 309 307 304 304 303 301 300 299 299 298 298 298 299 298 298 297 296 295 293 293 292 291 290 288 288 288 288 287 286 286
316 317 314 313 313 315 311 311 315 313 312 309 308 307 306 305 304 302 301 300 298 298 298 298 297 297 297 297 297 297 295 294 294 294 293 291 290 288 288 288 288 287 286 285
315 314 314 314 316 313 312 313 311 311 311 307 307 306 305 303 302 299 298 298 298 298 297 297 296 296 295 295 296 296 295 295 293 292 291 290 289 288 288 288 287 287 286 284
314 311 314 314 313 313 313 312 312 310 308 306 305 303 301 301 299 298 298 298 298 297 296 295 295 294 294 294 295 295 294 293 292 292 290 290 289 289 288 287 287 286 284 283
314 313 313 313 313 312 312 311 310 308 306 304 301 301 300 297 297 297 297 296 295 295 295 294 293 293 292 292 292 293 290 290 290 289 289 289 288 288 287 287 285 284 283 281
313 313 313 314 313 311 311 308 306 306 303 301 300 298 297 296 296 296 295 294 294 294 294 293 293 292 292 291 291 289 289 289 288 287 288 288 287 287 286 285 285 284 282 280

GFSCGP_850_thetae_015.txt.gz
Theta_e
321 323 323 322 320 320 319 319 320 321 320 320 321 321 321 321 321 322 322 321 320 321 324 322 320 320 321 324 326 327 326 324 319 317 316 316 316 316 315 316 315 315 314 312
320 322 320 320 320 320 320 321 321 321 320 320 322 322 321 320 321 321 321 321 322 321 320 319 320 320 320 320 319 318 317 316 315 315 315 315 314 315 315 315 314 312 311 310
322 321 318 320 321 321 322 321 323 322 322 322 322 323 321 320 319 320 320 320 320 319 318 318 318 319 319 318 317 316 316 316 314 312 314 314 314 314 314 313 313 312 311 309
321 320 320 321 322 322 323 321 321 322 322 323 323 324 323 321 320 320 320 319 319 318 318 318 318 318 318 318 317 316 315 315 314 312 313 313 313 313 313 312 311 310 308 307
321 321 322 322 321 321 323 322 322 322 323 323 323 322 324 321 321 320 320 319 318 318 318 318 318 317 317 317 317 316 315 315 314 314 312 312 312 312 311 310 309 307 306 305
321 320 322 322 321 320 321 323 323 324 325 326 325 324 326 324 322 320 319 319 319 318 318 317 317 317 317 317 317 316 315 314 314 313 312 311 310 310 309 308 307 306 305 304
322 322 322 321 323 323 323 324 328 328 328 328 323 321 325 321 321 320 319 319 319 319 319 318 317 317 316 316 316 315 315 315 313 312 311 311 309 309 308 306 305 303 302 301
323 326 322 321 322 323 322 324 328 325 326 324 323 321 324 321 319 319 318 318 318 318 317 317 316 316 316 315 315 315 314 314 313 313 312 310 309 307 305 304 302 301 300 300
323 324 321 321 321 322 323 324 321 325 322 326 322 322 322 321 320 319 318 318 318 317 316 316 316 315 315 315 314 314 313 312 311 311 310 308 306 305 303 301 300 299 300 300
321 325 320 320 321 321 322 321 325 323 326 320 319 318 322 322 321 319 318 318 317 317 316 316 315 315 314 314 313 312 311 311 310 308 307 306 305 303 300 299 299 299 299 299
319 320 321 319 322 322 323 323 321 319 321 322 320 319 319 319 319 318 317 316 316 316 316 315 314 314 313 313 312 311 309 308 307 306 304 303 302 301 299 299 299 298 298 297
319 320 320 318 319 320 320 321 320 320 318 319 320 320 318 318 317 316 316 316 316 315 315 314 314 313 313 312 310 308 307 305 304 303 302 301 300 300 299 299 297 297 296 297
320 321 319 319 321 320 320 319 318 318 318 318 324 320 317 317 317 316 315 316 315 314 314 313 313 312 311 310 307 305 304 304 303 301 300 299 299 299 298 297 295 295 295 295
318 319 318 319 317 316 316 316 316 317 320 320 319 318 318 317 317 315 315 315 315 313 313 312 311 310 309 306 304 304 303 303 301 299 299 299 299 297 296 296 295 294 293 292
319 319 319 318 316 315 316 316 316 316 316 318 318 318 317 317 316 315 315 314 313 313 312 310 308 306 304 303 302 303 302 300 300 299 299 298 297 296 295 295 293 292 291 290
318 320 318 317 316 315 316 315 315 316 316 317 317 317 316 315 315 315 313 313 312 311 309 307 304 303 302 302 302 302 301 300 299 298 297 297 296 295 295 293 292 290 290 289
319 320 318 320 318 317 320 318 315 316 316 316 317 316 315 315 314 313 312 313 311 308 306 306 303 303 302 301 302 302 300 299 298 297 297 296 296 295 293 292 290 290 289 289
320 319 319 321 317 323 318 316 316 315 315 315 316 315 315 314 313 312 311 310 307 306 305 304 303 302 301 300 301 301 300 299 298 298 297 296 295 294 293 292 290 290 289 289
317 319 317 320 318 316 316 315 315 315 316 315 316 315 314 313 312 311 308 306 306 305 304 302 301 300 299 300 300 300 300 299 298 297 296 295 295 294 292 291 290 289 289 289
315 317 320 317 318 319 317 315 313 314 317 315 315 313 312 311 313 311 308 306 305 303 301 300 300 299 299 298 298 298 297 297 297 297 295 294 294 293 292 290 290 289 289 288
315 315 320 317 318 316 315 314 313 316 318 314 313 312 310 309 308 306 306 304 302 301 300 300 299 299 298 297 296 296 296 296 296 296 295 295 294 293 291 290 290 289 289 288
316 318 315 316 317 316 313 313 316 315 314 313 310 308 307 308 306 305 303 301 300 300 300 299 298 297 297 295 295 295 295 295 296 296 295 294 293 292 290 290 289 289 288 288
316 316 317 317 317 314 313 313 314 314 313 311 308 308 307 305 304 302 300 300 299 299 298 297 296 296 295 294 294 293 294 294 294 293 292 293 292 291 290 290 289 288 287 286
315 314 316 316 314 313 313 313 313 312 310 308 306 306 303 303 301 299 299 299 298 297 296 295 295 295 294 294 293 293 293 292 292 292 292 291 291 290 289 289 288 287 286 285
316 315 316 317 315 313 313 312 311 310 308 307 305 303 302 300 299 299 298 297 296 295 295 295 295 294 294 294 293 292 292 291 290 290 289 289 290 289 289 288 287 286 285 284
314 315 318 317 314 314 313 311 309 309 307 304 303 301 300 300 298 297 296 295 295 295 294 294 294 294 294 293 292 291 291 289 288 288 289 289 289 288 287 287 286 285 284 283

GFSCGP_850_thetae_018.txt.gz
Theta_e
321 322 323 322 320 320 320 320 320 322 321 320 319 321 322 321 322 322 322 322 321 324 324 323 322 321 322 326 328 330 329 327 322 319 317 317 316 316 316 316 316 316 314 313
320 322 321 321 320 320 320 321 321 322 321 320 320 322 321 321 322 322 322 321 323 322 321 322 322 321 322 322 322 321 319 317 316 316 316 315 315 315 315 314 315 314 313 312
322 321 319 320 321 321 322 321 324 322 321 322 321 322 321 321 321 321 321 322 321 320 320 320 320 320 319 318 318 317 317 316 315 313 315 315 313 314 314 314 314 313 312 311
322 320 320 320 322 322 322 323 322 321 322 323 322 322 322 321 320 320 320 320 319 319 319 319 320 320 319 318 317 316 316 316 315 314 313 314 313 314 313 312 311 311 310 307
321 321 322 323 322 321 323 322 321 322 323 323 322 323 324 322 321 321 321 320 319 320 319 319 319 319 318 318 318 317 316 316 315 314 314 313 312 311 311 310 309 308 306 306
322 321 322 322 321 321 321 324 324 324 324 330 323 324 326 323 322 321 320 320 319 319 319 319 318 318 318 318 317 317 316 316 315 314 313 312 311 310 309 308 307 306 305 301
322 323 322 321 323 324 323 324 331 333 334 333 325 321 326 323 322 321 320 320 320 320 319 319 318 318 317 317 316 316 316 315 314 314 313 312 311 310 308 306 305 303 300 300
324 326 323 322 322 322 323 323 333 329 331 327 322 321 323 322 320 320 320 319 319 319 318 318 317 316 316 316 316 315 315 314 312 312 311 311 309 307 306 305 303 300 299 299
323 324 321 321 321 321 323 324 320 325 324 328 321 324 322 321 320 319 319 319 319 318 317 317 317 316 316 315 314 314 313 312 311 310 308 307 307 305 304 303 300 299 299 299
321 326 321 320 320 322 321 320 325 329 328 323 319 320 323 322 321 320 319 318 317 317 317 317 316 315 315 314 314 313 311 310 309 308 306 305 304 303 302 300 300 299 299 297
320 321 322 320 321 320 322 323 321 320 323 325 323 319 318 318 320 319 318 317 317 317 316 316 315 314 314 313 312 311 310 308 306 305 304 303 301 300 300 300 300 299 297 295
318 320 326 319 319 319 319 320 320 327 321 326 324 320 318 318 318 318 317 316 317 316 315 314 314 314 312 311 311 309 307 305 305 304 303 301 300 300 300 299 297 296 295 296
319 323 325 321 322 321 319 319 318 319 321 320 322 320 318 318 317 317 316 315 315 315 314 314 313 312 310 310 309 306 304 304 304 302 300 300 299 299 299 297 296 296 295 294
319 320 319 322 318 317 316 316 316 317 323 322 321 318 317 318 318 316 316 315 314 314 313 312 311 310 308 306 305 303 303 304 302 301 300 299 299 298 298 296 295 295 294 292
320 320 320 318 316 316 316 316 316 316 317 318 318 317 317 317 317 316 315 314 314 313 313 311 309 307 305 304 303 303 302 303 301 300 299 298 298 297 297 296 295 294 292 290
319 322 320 319 317 316 315 315 315 316 316 316 317 317 317 316 315 315 314 313 314 312 310 308 307 306 304 304 303 302 301 302 302 300 300 299 298 297 296 295 294 293 291 290
320 324 321 322 317 317 323 320 316 316 316 316 318 317 316 316 315 314 313 313 312 309 307 307 305 305 303 301 300 300 300 300 301 301 300 299 298 297 296 295 293 292 291 290
320 320 319 321 318 321 317 315 316 316 316 315 315 317 316 314 313 312 311 309 308 307 306 305 304 302 301 300 300 299 298 298 298 298 298 298 297 296 296 295 293 291 290 290
319 320 317 321 319 316 316 317 316 315 316 315 317 316 314 312 311 311 310 308 307 306 305 303 301 300 300 300 299 298 297 296 296 297 297 297 297 295 295 294 293 290 290 289
317 320 322 316 319 318 318 316 315 314 317 316 315 315 312 311 312 311 307 306 305 303 301 300 300 300 299 298 297 296 295 295 295 296 296 296 296 295 294 294 291 290 290 289
313 316 318 318 317 317 315 315 314 315 318 315 314 313 311 310 309 306 306 305 302 300 300 300 299 298 297 297 296 295 294 294 294 294 295 294 293 293 293 291 290 290 290 289
315 317 314 317 317 317 314 314 315 316 314 315 313 310 309 309 307 305 303 301 300 300 299 298 297 296 296 295 295 294 294 294 294 293 292 292 292 293 292 291 290 290 289 288
319 320 321 318 318 315 315 314 314 314 314 312 310 309 308 307 304 303 300 300 299 298 297 296 296 295 295 295 295 294 294 293 292 291 291 291 291 291 291 290 289 288 288 287
316 315 321 319 316 314 315 314 313 312 311 309 308 307 307 304 303 300 300 299 297 297 296 295 295 295 295 295 294 294 293 292 291 290 290 290 290 290 290 289 288 288 287 286
318 316 317 317 316 315 315 314 312 310 309 307 307 305 303 302 301 300 298 297 297 296 296 295 295 294 294 294 294 293 292 291 290 289 289 289 290 289 289 288 288 287 286 285
315 315 317 318 315 315 315 312 310 309 308 307 304 302 301 301 298 297 297 296 296 295 295 294 294 294 294 294 293 292 291 290 288 288 287 287 287 287 287 287 286 285 284 284

GFSCGP_850_thetae_021.txt.gz
Theta_e
320 318 318 318 318 318 318 318 318 318 318 318 318 315 318 320 321 320 320 321 322 322 322 322 322 322 322 324 322 326 329 328 325 319 318 317 317 316 316 315 314 315 314 314
319 319 318 319 319 319 319 320 321 319 319 318 317 318 317 319 320 320 321 321 321 321 321 322 322 323 324 325 326 327 325 320 317 316 316 315 315 314 315 315 314 313 312 312
319 319 319 319 320 320 321 321 320 320 318 319 319 317 318 319 320 320 320 320 320 320 320 320 319 319 318 318 317 317 316 315 315 314 315 315 314 314 314 314 314 313 312 310
319 319 320 320 321 319 323 322 321 320 319 319 317 318 318 318 318 318 318 319 319 320 320 320 319 318 317 317 316 316 316 316 315 315 314 314 313 312 311 311 310 310 309 309
320 320 321 322 321 320 322 321 321 321 320 320 320 319 318 317 319 318 318 319 319 319 319 319 319 318 318 318 317 316 316 316 315 314 314 313 312 311 310 310 309 309 308 306
319 321 320 320 321 320 320 322 322 322 321 321 325 322 324 319 320 319 318 319 319 319 319 318 318 318 318 317 316 316 316 316 314 313 313 313 312 311 311 310 309 307 305 300
320 321 321 321 321 321 321 321 322 323 323 323 325 324 324 320 319 319 318 319 319 319 318 318 318 318 317 316 316 316 316 316 314 313 312 311 311 310 309 308 305 303 299 298
323 323 320 320 320 320 322 322 318 326 322 321 322 323 320 318 319 319 319 319 319 319 318 318 317 316 316 316 315 315 314 314 313 311 310 309 308 307 305 303 302 300 299 299
325 322 319 319 319 319 321 319 319 321 320 317 320 321 319 318 319 319 318 319 319 318 317 317 316 316 315 314 314 314 313 311 310 309 308 306 305 303 302 301 300 300 299 299
320 322 319 319 319 321 319 318 320 317 320 321 318 322 323 320 320 320 318 317 317 316 315 315 314 314 314 313 313 312 311 310 308 307 306 305 304 303 300 300 300 300 300 298
317 321 320 318 318 318 319 321 319 318 316 317 316 316 316 319 320 319 316 317 316 315 314 314 314 314 313 312 311 310 309 307 305 305 305 304 303 299 299 299 299 299 299 294
316 318 315 319 318 318 318 319 319 314 318 313 313 315 315 315 316 317 315 315 315 314 314 313 313 312 311 310 309 308 306 304 304 303 304 303 301 299 299 299 299 298 297 294
318 318 316 320 320 319 317 318 317 318 311 314 309 311 315 318 317 317 315 315 314 314 313 313 312 311 309 308 305 304 303 303 302 303 303 301 300 299 299 298 298 297 296 294
318 318 316 316 317 315 315 315 314 316 313 314 314 316 315 316 317 314 314 314 314 313 312 311 310 307 306 305 304 303 303 302 301 301 302 301 301 299 298 298 297 296 295 294
317 318 318 317 315 315 314 314 313 314 313 313 312 316 316 314 313 314 314 313 313 312 311 309 307 306 305 304 303 302 301 300 300 301 301 301 300 300 298 297 298 296 294 293
317 316 315 315 316 314 314 313 314 314 315 315 314 316 315 314 313 311 313 312 311 309 308 307 306 305 304 302 301 301 300 299 298 297 296 297 299 299 298 297 296 295 293 291
318 311 310 315 314 313 312 315 315 315 315 315 314 315 313 311 311 312 310 310 308 307 306 304 304 303 302 301 300 299 298 298 296 296 295 297 296 296 296 296 296 294 292 290
313 313 308 308 306 305 316 314 314 314 314 313 314 313 311 311 311 310 309 308 308 307 305 304 303 300 300 299 299 298 297 296 295 294 294 295 294 295 294 294 295 293 292 290
317 309 305 308 311 311 315 316 314 314 313 315 314 313 311 310 310 308 308 306 304 303 302 300 300 299 298 297 297 296 295 295 294 294 294 294 293 292 292 293 294 293 289 290
314 308 306 309 306 305 311 314 314 314 310 315 314 311 310 310 304 306 307 305 305 301 300 299 298 297 296 296 295 295 295 294 294 294 293 293 291 291 292 292 290 290 290 289
310 311 306 304 302 308 312 314 314 311 309 315 313 312 310 308 308 308 306 304 301 300 299 297 296 296 295 295 295 295 294 294 294 294 293 291 290 291 292 292 291 290 290 289
307 307 305 309 311 309 313 313 310 310 314 314 312 310 308 307 306 305 302 301 300 299 297 296 296 295 295 295 295 295 294 294 294 293 291 290 290 290 291 291 290 289 288 288
313 310 310 309 308 310 314 314 314 314 314 311 310 308 307 306 306 302 301 300 298 297 296 296 296 295 295 294 294 294 294 293 293 291 290 289 289 289 290 290 289 288 288 287
314 314 309 312 314 315 314 314 314 314 313 310 308 305 305 306 303 301 299 297 297 296 296 295 294 294 294 294 294 293 293 292 291 290 289 288 289 289 289 289 288 287 287 287
312 315 314 310 313 314 314 314 312 310 310 309 306 306 303 302 300 297 297 296 295 295 294 294 294 294 294 294 294 293 292 291 291 290 289 287 287 287 287 287 286 287 286 285
316 312 309 308 314 314 312 312 311 310 310 306 306 302 301 298 297 296 296 295 294 294 293 293 293 293 294 294 293 292 291 291 291 290 288 286 285 285 286 286 285 285 284 283

GFSCGP_850_thetae_027.txt.gz
Theta_e
318 315 316 315 315 315 315 315 315 315 315 314 315 313 312 312 314 318 320 321 323 326 328 327 327 328 327 328 329 329 327 327 324 323 322 321 320 316 315 314 314 314 313 312
315 317 317 316 318 318 317 315 317 317 316 314 313 313 315 316 317 318 319 319 321 323 324 327 329 330 330 329 326 324 323 323 320 318 317 315 314 314 313 313 313 312 311 311
316 317 317 317 317 319 319 318 318 318 316 313 314 314 315 317 318 318 318 318 319 320 320 321 322 322 321 319 317 316 316 315 315 314 314 314 314 314 313 311 311 311 311 310
316 317 318 317 317 318 322 319 318 318 315 314 313 316 317 315 315 316 318 319 318 318 319 319 318 317 316 315 315 315 315 314 314 313 313 312 312 312 312 312 311 311 310 309
318 318 318 318 319 318 319 318 318 318 316 317 319 315 315 316 317 316 317 318 318 318 317 317 316 316 316 316 316 316 315 315 315 315 314 314 313 312 311 311 310 308 306 303
318 318 318 318 318 318 318 319 318 317 316 318 321 315 315 315 316 316 316 319 318 318 317 317 317 317 316 316 316 316 315 315 315 314 314 313 312 311 310 308 306 301 300 298
318 318 317 319 320 318 317 318 318 320 318 320 318 320 317 316 315 316 316 318 318 318 317 317 317 317 316 316 316 315 315 314 313 313 312 311 310 308 306 304 301 302 301 300
319 320 318 317 318 319 319 317 316 325 319 317 317 321 318 316 316 317 318 318 318 317 317 317 317 317 316 315 314 314 313 312 311 310 309 308 307 305 302 301 301 301 300 300
319 319 318 317 317 318 319 316 315 315 312 315 317 318 317 317 315 316 317 317 316 316 317 317 317 316 315 314 313 312 311 310 309 308 306 304 303 302 301 301 301 300 300 299
318 320 318 317 318 317 315 315 318 312 316 319 315 319 317 317 316 315 314 314 315 315 315 314 314 314 313 312 311 310 308 307 306 304 302 302 301 302 301 301 300 300 299 299
317 315 315 318 316 317 316 316 314 313 311 314 313 314 310 315 315 313 312 314 314 314 313 313 312 312 311 311 308 305 305 303 302 302 301 300 301 301 300 300 299 300 299 299
315 312 313 318 314 315 316 317 312 308 313 309 309 311 311 313 314 314 313 314 314 313 312 312 312 311 310 307 305 303 303 302 302 301 300 300 300 299 297 296 297 298 298 297
314 313 313 316 316 314 317 316 313 310 308 312 307 309 312 313 313 313 313 313 312 312 312 310 309 308 306 304 303 303 302 302 301 300 299 299 297 296 294 293 292 292 293 295
315 314 313 314 315 313 313 313 314 312 310 311 309 311 313 312 311 311 312 312 311 310 310 309 307 304 304 304 302 301 301 300 299 298 297 297 295 294 294 293 293 293 292 293
312 314 315 312 312 312 312 312 311 312 311 311 310 311 311 311 310 311 311 311 310 310 309 306 303 302 302 302 302 301 300 299 298 297 295 295 294 294 293 293 293 291 291 293
312 312 311 313 312 311 312 310 309 309 310 311 312 313 311 312 312 312 311 310 310 309 306 303 303 303 302 300 300 299 298 296 296 295 294 294 293 293 293 293 291 291 291 292
311 307 305 305 308 307 305 308 311 312 311 311 312 311 310 309 310 311 311 310 309 308 304 302 301 300 299 298 297 296 295 295 295 294 294 293 294 293 293 291 290 291 292 291
309 305 300 302 301 302 308 309 311 311 312 312 311 310 310 310 310 310 310 309 308 304 302 300 299 298 297 296 296 295 295 294 294 294 294 293 293 292 291 290 290 290 290 289
310 303 303 302 305 305 309 312 311 311 310 310 310 308 310 309 309 308 309 307 304 303 301 299 298 297 296 296 296 295 294 294 294 294 293 293 292 291 290 290 291 290 290 290
306 301 302 304 300 300 305 311 312 311 310 312 311 309 308 308 303 304 308 305 304 300 299 298 297 296 296 296 295 294 294 294 293 293 293 292 290 290 289 289 290 290 290 289
307 301 302 295 298 304 304 311 312 310 306 313 313 311 309 306 308 308 306 305 302 299 298 297 296 296 295 295 294 294 293 293 293 293 292 290 290 290 289 289 289 289 289 289
308 309 308 304 302 309 307 310 310 309 310 314 314 313 311 310 308 307 305 300 299 297 297 296 296 295 293 293 292 292 292 292 292 292 291 290 290 289 288 288 289 288 288 287
308 306 307 307 308 307 309 311 313 312 312 314 314 313 312 309 307 305 300 300 298 297 296 295 294 293 292 291 291 291 291 291 291 291 291 290 290 289 287 287 288 287 287 286
308 308 306 308 309 309 310 311 312 312 312 313 313 312 309 307 304 303 301 297 296 296 295 293 292 291 290 290 290 290 290 290 290 291 290 290 289 288 286 285 286 286 285 285
308 309 309 306 308 312 313 312 313 313 313 312 311 309 307 306 304 299 297 296 295 294 293 291 290 290 290 290 290 290 289 290 289 289 289 289 288 287 285 285 285 284 284 284
310 309 307 308 311 312 312 313 313 313 312 310 309 307 306 305 299 297 296 295 294 292 291 290 290 290 290 290 290 289 289 289 289 288 288 288 288 286 285 285 284 284 283 283

GFSCGP_850_thetae_033.txt.gz
Theta_e
315 317 317 316 314 312 314 315 316 315 313 318 318 319 317 315 320 320 321 322 322 322 323 323 324 325 324 325 325 326 327 326 322 322 320 318 318 317 314 314 313 311 310 310
317 317 315 316 314 315 315 317 317 316 313 317 317 319 318 317 317 319 320 321 322 323 324 326 326 327 326 326 326 326 325 320 320 319 317 315 313 313 313 312 311 311 310 309
318 316 315 317 317 319 318 319 318 318 315 315 316 319 319 317 317 317 317 319 322 325 327 329 328 324 323 322 319 319 316 315 315 314 313 313 312 312 312 312 311 310 310 307
318 316 316 317 318 318 321 317 316 316 317 320 314 320 319 318 319 318 317 320 324 326 324 323 321 317 315 315 314 314 314 314 314 314 314 313 313 313 312 311 310 309 305 301
318 317 317 318 317 316 320 317 317 316 318 319 320 319 318 319 321 320 319 319 319 320 320 318 316 314 315 315 315 315 315 314 314 314 314 313 313 311 310 309 307 302 301 300
317 316 316 317 316 315 317 319 318 318 319 322 321 319 319 321 321 321 319 317 317 318 317 316 315 315 315 315 315 315 315 315 314 314 312 311 310 309 307 304 301 300 300 300
318 318 316 317 319 317 319 321 323 325 326 325 318 319 321 316 317 321 319 318 317 317 316 315 315 315 315 316 316 315 315 314 313 311 310 309 307 305 302 301 300 301 300 300
320 321 317 316 318 320 318 320 325 323 325 324 317 322 321 317 315 319 319 318 317 317 316 315 316 316 316 316 315 315 314 312 310 309 308 306 303 302 301 302 302 301 300 299
321 319 316 315 315 317 318 318 316 318 313 320 319 319 318 316 316 317 318 317 317 317 316 316 316 316 316 315 315 313 312 309 308 306 304 302 302 301 301 301 300 299 296 295
318 321 315 315 315 315 317 315 319 317 319 318 316 318 320 319 317 317 318 317 317 317 316 316 316 316 316 314 312 310 307 306 305 303 302 301 301 300 300 298 296 294 293 293
315 318 317 316 317 318 318 317 314 315 314 315 316 316 316 318 318 318 318 317 316 316 316 316 315 314 312 310 309 306 305 304 303 303 301 300 299 298 296 295 294 293 292 292
314 315 319 318 314 314 315 316 315 317 313 313 314 316 310 314 316 316 317 314 315 315 314 314 313 311 310 308 306 305 303 304 302 301 300 298 297 296 294 293 293 293 293 291
314 316 319 318 315 314 317 315 311 310 312 315 322 315 311 313 313 315 315 314 314 313 312 311 310 310 308 307 304 303 304 301 300 299 298 297 296 294 293 293 293 292 291 290
313 313 317 321 316 314 315 315 312 314 316 314 315 313 311 315 314 312 313 313 312 311 310 310 309 309 307 305 304 304 301 300 299 297 296 295 294 294 293 293 292 290 290 290
313 316 313 312 312 311 311 313 313 313 313 317 313 312 312 312 315 313 311 311 311 310 310 310 309 307 304 305 304 301 299 298 296 296 294 294 294 293 293 292 290 290 290 290
310 315 311 314 311 310 312 311 311 312 311 312 311 312 310 310 310 311 311 310 309 309 309 309 307 304 303 303 300 299 297 296 296 294 293 294 293 293 292 290 290 290 290 290
311 312 312 313 307 307 312 312 312 310 310 313 313 314 312 312 310 311 310 310 310 310 310 308 305 303 301 300 298 297 296 296 294 293 293 293 293 292 291 290 290 290 289 290
308 307 304 310 305 310 311 309 309 311 311 309 310 310 312 311 311 311 311 311 311 310 309 308 305 302 300 299 297 296 296 294 292 292 293 293 291 291 290 290 290 289 289 290
306 306 306 313 309 307 308 306 310 312 312 310 310 310 309 309 310 310 312 311 311 311 310 307 303 300 298 297 296 296 294 292 291 292 291 291 290 290 290 290 290 289 289 289
305 304 311 305 310 310 308 306 310 310 315 309 310 309 309 309 315 314 312 312 311 309 308 303 300 298 296 296 296 294 292 291 290 290 290 290 290 290 290 290 289 288 288 289
312 308 311 302 311 309 306 306 309 314 314 308 310 310 309 311 312 311 312 310 309 307 304 300 297 296 296 296 294 292 290 290 290 290 289 289 289 290 290 289 289 288 287 288
313 313 311 304 309 314 305 310 314 312 309 310 311 312 311 311 311 310 310 309 306 304 299 297 298 296 296 294 291 290 290 290 290 289 289 289 289 289 289 289 288 287 286 287
312 311 312 310 313 307 307 311 311 311 310 310 311 311 311 310 309 309 308 306 303 297 302 299 296 295 293 291 290 290 289 289 289 289 289 289 288 288 288 288 288 287 285 286
308 306 310 309 309 307 308 309 310 310 310 311 311 312 312 311 309 307 304 299 300 303 296 297 296 293 290 290 290 289 289 289 289 289 289 289 288 287 288 287 287 286 285 285
309 307 308 308 309 309 310 310 311 311 312 311 310 311 312 311 308 305 299 304 302 296 297 295 292 290 290 290 289 289 289 289 289 289 289 288 288 287 287 287 287 286 285 284
307 310 311 312 309 308 309 311 312 312 313 312 311 311 310 308 305 301 303 297 296 299 294 291 290 290 290 289 289 289 289 289 289 289 288 288 287 287 287 286 286 285 284 283

GFSCGP_850_thetae_036.txt.gz
Theta_e
319 320 318 318 318 318 318 320 319 318 318 319 319 321 321 323 326 325 325 326 326 326 324 325 323 323 326 326 324 324 325 326 324 318 321 322 320 318 317 314 313 312 310 310
321 320 319 319 318 319 319 320 321 319 317 320 322 323 322 321 326 326 326 326 326 325 325 326 326 325 325 325 325 323 324 320 320 320 319 317 316 314 313 313 312 310 310 309
320 320 319 320 320 321 321 322 321 321 319 321 322 324 323 321 322 323 324 326 326 326 327 328 329 330 328 326 325 322 322 319 315 315 314 313 313 312 312 311 310 310 308 303
321 319 320 321 321 321 322 321 321 320 321 322 321 322 324 324 322 322 323 325 326 327 328 329 328 328 327 322 318 323 320 318 314 313 314 313 314 314 313 311 310 307 304 302
321 321 321 321 321 320 323 320 321 321 322 323 322 322 324 323 325 323 323 325 327 327 327 325 322 322 322 322 322 320 318 317 314 313 315 315 314 313 311 310 307 306 304 300
321 319 321 321 320 320 321 323 323 323 323 323 323 323 319 322 323 325 323 326 326 324 323 320 318 317 317 317 317 316 315 315 314 314 314 313 312 311 309 307 305 304 303 303
322 322 320 320 322 321 323 323 321 323 324 322 323 323 320 322 322 324 325 325 323 322 320 318 317 317 316 316 316 316 316 315 314 313 311 311 309 307 306 305 303 303 302 302
321 323 321 320 322 322 322 322 320 317 321 322 322 324 324 321 319 322 324 324 322 321 319 318 317 317 317 317 317 316 316 314 312 310 309 308 305 305 304 303 303 303 302 301
322 322 319 319 320 321 321 321 322 324 319 324 322 323 322 321 320 322 324 323 322 320 319 318 318 318 317 317 316 316 314 312 309 307 305 303 302 301 301 300 300 299 298 297
322 322 319 319 319 319 322 320 322 322 322 318 319 319 319 322 322 322 324 323 321 320 319 319 318 318 317 316 315 314 311 308 308 307 303 302 301 300 299 298 297 297 296 295
322 322 321 320 320 321 321 322 319 320 320 317 316 316 321 320 322 322 323 322 320 320 319 319 318 317 315 313 312 311 307 308 306 303 302 300 299 299 297 296 296 295 295 294
320 323 325 322 318 318 320 321 320 318 318 320 320 317 316 319 321 321 321 321 321 320 319 318 316 314 312 310 309 307 306 305 303 301 300 299 298 297 297 296 295 295 294 293
320 323 324 322 320 319 320 320 319 317 319 319 326 316 316 318 319 319 320 320 320 318 317 316 314 312 310 308 308 305 305 303 301 300 299 298 298 297 296 295 294 294 293 293
316 322 322 322 321 320 321 320 319 319 319 317 318 316 316 317 319 319 319 319 318 316 315 314 312 311 308 307 305 305 307 301 300 299 298 298 297 294 295 294 294 293 292 292
320 322 320 318 316 316 317 318 319 318 318 318 317 316 315 315 316 317 318 318 317 315 314 313 312 310 307 305 305 306 302 300 299 297 297 296 294 294 295 294 293 292 291 292
317 321 318 319 316 316 316 317 316 318 318 318 318 317 317 315 314 316 317 317 316 315 313 312 311 309 307 305 305 302 300 298 297 297 296 294 293 293 294 293 292 292 293 292
320 320 318 317 313 314 319 318 317 317 318 318 318 318 316 315 315 315 316 316 315 314 313 312 310 308 306 304 301 300 298 297 296 295 293 293 293 293 293 292 292 292 292 292
317 317 316 319 312 324 314 312 313 317 317 316 316 316 314 315 315 315 315 315 315 314 312 311 309 306 305 301 300 298 297 296 295 292 293 293 293 292 292 292 292 292 291 291
313 315 315 324 315 314 313 311 311 313 313 315 314 315 314 314 314 315 314 314 314 313 312 310 308 304 300 301 298 297 297 295 292 293 293 293 293 292 292 292 292 291 291 291
311 313 319 314 328 330 314 312 313 313 315 312 314 315 314 314 318 314 312 313 313 312 311 307 303 301 299 297 299 297 295 293 293 291 292 292 292 292 292 291 291 290 290 290
319 317 322 318 324 318 313 310 312 315 314 313 314 314 314 316 314 313 312 312 312 310 306 303 302 298 297 299 298 295 294 293 292 290 291 291 291 291 291 291 290 290 289 289
319 321 321 315 323 323 310 313 317 316 314 312 314 314 314 314 312 311 311 310 307 304 301 299 296 297 300 297 294 293 292 292 290 290 291 290 291 290 290 290 290 290 289 288
318 318 319 317 318 313 311 314 314 313 313 313 313 313 313 313 311 309 308 305 301 299 297 297 299 302 297 294 291 290 292 290 289 289 289 291 291 290 290 290 289 289 289 288
314 311 315 314 314 313 312 312 311 311 311 312 312 312 313 313 312 307 303 300 299 298 298 300 299 295 293 291 290 290 289 289 289 289 290 291 290 290 289 289 289 288 288 287
314 312 314 314 314 312 312 311 311 312 313 312 312 312 312 312 310 304 301 299 298 299 300 298 295 293 290 290 290 289 289 289 289 289 290 290 290 290 289 289 288 288 287 286
311 314 316 316 311 311 312 312 312 312 312 312 312 309 308 308 304 301 299 300 300 298 297 294 291 291 290 290 289 289 289 289 289 289 289 290 290 289 289 289 288 287 286 285

GFSCGP_850_thetae_039.txt.gz
Theta_e
321 321 321 320 320 320 319 318 318 319 318 318 318 320 322 324 324 325 327 327 326 326 326 327 328 327 327 331 330 329 328 326 325 324 321 316 319 321 318 316 314 313 312 310
321 321 320 320 319 319 319 321 320 320 318 319 319 320 321 323 324 324 325 327 327 327 328 328 330 330 329 332 329 327 326 325 325 320 321 322 319 317 315 313 313 313 310 308
322 322 321 319 319 319 320 321 322 321 320 320 322 322 324 323 325 326 326 326 327 328 328 329 331 331 331 330 329 331 326 326 325 324 320 318 317 315 314 313 313 311 309 307
323 322 321 320 320 320 322 322 322 321 322 321 322 322 323 325 325 326 326 327 327 327 328 330 331 332 331 331 331 328 326 324 322 319 318 317 316 316 315 314 313 311 309 307
322 322 321 320 322 322 324 322 322 321 321 323 323 321 324 326 325 325 325 327 327 328 330 331 332 332 331 328 327 326 325 322 319 318 317 317 317 317 315 314 313 310 308 306
321 322 322 323 322 322 323 323 323 322 322 324 323 322 322 325 325 326 325 326 328 329 330 328 328 327 325 326 325 323 321 319 318 317 318 317 316 314 313 312 309 307 305 304
322 322 323 322 322 323 322 323 325 325 323 324 324 323 321 323 324 324 325 326 328 328 327 325 324 323 322 323 322 320 319 318 317 318 317 315 314 311 309 308 307 305 304 304
321 324 322 322 323 323 323 323 324 321 321 321 324 320 324 325 323 324 325 326 327 326 325 322 320 320 320 320 320 319 318 318 318 316 314 312 309 308 307 306 305 303 303 301
324 322 322 322 322 322 323 321 323 323 326 324 319 322 325 324 323 324 326 327 326 325 324 321 320 320 320 320 320 319 319 317 315 313 310 309 308 307 305 304 302 301 300 299
322 323 321 321 322 322 322 323 322 322 322 320 320 319 323 323 323 324 326 326 325 324 323 321 320 320 320 320 320 319 318 315 312 310 309 306 306 305 303 301 300 300 298 297
322 322 323 321 322 321 324 322 322 322 323 322 318 320 320 320 322 323 325 325 325 324 322 321 321 321 320 320 319 318 315 312 310 308 305 303 304 302 301 300 299 298 297 296
323 322 322 322 322 322 322 323 323 323 320 321 324 320 318 320 320 321 322 324 324 323 322 322 321 321 320 318 317 315 311 309 307 306 308 304 302 301 300 299 298 297 296 295
323 320 321 323 323 322 322 321 321 321 321 321 327 320 319 319 318 319 320 322 323 322 322 322 321 320 319 316 315 312 309 307 309 308 304 302 301 300 299 298 297 297 296 295
320 320 321 322 321 323 324 323 322 321 323 320 319 319 318 318 318 318 318 319 321 322 322 322 321 319 317 315 312 310 306 310 307 304 302 301 300 300 298 297 297 296 295 295
323 323 322 321 321 321 321 321 321 321 321 322 319 319 317 317 317 317 317 318 320 321 321 320 319 318 316 313 310 307 307 306 303 302 300 300 299 298 297 297 296 295 295 295
322 323 322 322 321 320 320 320 320 318 319 319 319 318 318 318 317 317 316 317 318 319 319 318 317 316 314 311 309 308 306 304 302 300 300 298 297 297 296 296 295 294 294 294
324 323 322 320 318 317 320 319 319 319 319 319 320 319 318 318 317 316 316 317 317 318 318 318 317 316 313 310 308 306 303 301 300 299 298 297 297 296 295 294 294 294 294 294
323 323 322 321 316 323 317 315 315 317 318 318 317 317 317 316 316 317 316 316 317 317 317 317 316 314 312 310 306 302 302 300 299 298 296 296 296 295 294 294 294 294 294 293
318 320 320 325 318 317 316 314 314 314 315 316 315 315 315 316 316 316 316 315 315 316 316 316 315 313 310 306 302 301 300 298 298 296 295 295 294 294 294 294 294 294 293 292
315 317 320 318 325 327 318 315 314 315 316 314 314 315 314 316 318 318 315 314 315 315 315 315 313 310 306 302 300 300 299 298 296 295 294 294 293 293 293 293 293 293 292 292
321 321 324 322 326 322 317 314 314 317 318 315 314 314 315 316 317 316 314 315 314 315 314 313 309 305 303 301 299 300 298 296 294 294 294 293 293 293 292 292 292 292 292 291
322 325 323 324 324 323 313 315 317 318 314 315 315 314 316 316 316 314 314 315 314 314 311 306 303 301 298 299 298 297 296 294 294 293 293 293 292 292 292 292 292 292 292 291
321 321 322 320 320 315 314 314 314 314 314 314 314 314 314 315 315 314 313 313 311 309 303 301 299 299 297 296 295 293 293 293 292 291 290 292 292 292 292 292 291 291 290 290
318 316 318 316 316 315 314 314 313 314 314 314 314 314 314 314 314 314 311 309 305 302 301 300 298 298 296 295 292 292 293 290 290 290 291 292 292 292 292 291 291 291 289 289
318 316 316 317 315 315 314 314 315 314 314 315 315 315 313 314 314 312 307 304 302 298 298 298 296 295 294 293 293 291 290 290 290 291 291 291 291 292 292 291 291 290 289 288
315 317 319 319 315 315 315 315 313 314 313 312 313 311 308 310 308 305 302 298 297 297 296 294 294 293 294 292 291 290 290 290 289 289 290 291 291 291 291 290 289 289 288 288

GFSCGP_850_thetae_042.txt.gz
Theta_e
321 322 322 322 321 321 320 320 321 320 320 319 319 320 320 322 325 326 326 325 323 322 322 323 324 324 327 332 331 329 328 324 324 323 324 323 321 317 319 320 316 314 313 312
323 321 321 321 321 321 320 321 321 319 318 318 319 319 321 322 323 326 327 326 326 324 323 327 327 327 329 331 332 330 328 327 325 324 324 319 321 320 318 316 314 313 312 310
323 321 322 321 320 319 320 323 323 322 319 318 319 318 321 322 322 324 326 327 327 326 327 328 329 329 328 332 332 329 328 326 325 324 323 321 317 316 315 314 313 313 311 309
322 322 322 322 319 320 322 323 322 322 322 319 323 323 322 322 323 324 324 325 327 327 329 329 330 331 331 333 331 328 327 324 326 324 320 318 317 316 315 315 314 313 312 310
324 322 322 323 322 322 322 323 323 322 321 324 322 323 325 323 323 325 327 326 326 327 328 329 331 331 331 330 329 329 327 326 324 318 318 317 317 316 316 315 314 313 310 309
322 321 322 322 322 321 323 323 323 322 323 326 323 325 325 324 325 325 325 326 327 328 328 330 331 332 330 330 329 328 325 325 321 319 318 317 318 316 315 314 313 310 308 306
321 320 322 322 322 322 322 322 326 328 329 328 321 322 323 324 325 326 326 326 327 328 330 331 331 331 330 328 327 327 324 321 320 318 318 318 317 315 313 311 310 309 306 305
321 323 322 322 321 324 323 322 328 328 329 327 324 323 324 324 323 324 326 325 328 330 330 328 329 327 326 326 325 323 322 320 319 318 318 317 314 312 309 309 308 306 304 303
322 323 322 322 321 323 323 322 323 323 329 332 321 318 325 324 324 324 325 326 328 328 327 326 325 324 324 323 322 320 320 319 318 318 316 314 310 309 308 306 306 303 302 300
323 325 323 322 321 321 321 321 324 322 323 323 320 320 326 323 323 324 326 327 328 327 326 324 322 321 321 321 321 320 320 319 317 316 314 311 309 307 306 305 302 301 300 299
321 323 324 322 322 319 323 323 320 319 325 327 328 321 320 321 322 323 325 327 327 326 325 324 321 321 321 321 321 321 320 317 315 313 311 308 307 305 303 302 301 300 298 297
322 323 325 323 322 322 321 322 323 332 324 325 329 323 320 320 321 321 322 325 326 326 325 323 322 321 321 321 321 320 319 316 313 310 308 307 305 303 302 301 300 298 298 297
323 323 324 322 322 323 321 320 320 322 325 324 331 324 319 319 318 319 319 322 324 325 325 323 322 322 322 321 320 319 317 314 311 308 308 305 303 302 301 300 299 298 297 296
322 322 321 323 320 322 324 322 321 322 329 324 323 320 319 319 319 318 318 318 320 323 323 323 323 322 322 321 319 317 314 311 308 308 304 303 302 301 301 300 298 298 297 295
322 320 320 319 320 321 322 322 321 321 322 324 323 320 319 320 319 318 318 318 318 319 322 322 323 322 322 320 318 315 312 309 307 305 303 303 301 300 300 298 297 296 296 295
322 324 323 324 322 321 321 320 319 319 320 319 319 320 320 319 318 318 317 316 316 318 319 321 321 321 321 319 316 313 310 307 306 304 302 301 300 299 298 297 297 296 295 294
324 326 327 326 320 318 319 320 319 319 319 320 320 321 319 319 318 317 317 316 316 317 317 320 320 319 319 317 314 311 308 307 304 302 301 300 299 298 297 296 295 295 294 294
326 327 328 327 317 323 318 317 315 315 315 316 317 316 316 317 316 316 316 316 317 317 316 317 318 318 317 315 312 310 308 304 301 301 299 298 297 296 296 295 294 294 294 294
323 325 325 326 322 319 318 316 316 316 316 315 315 315 315 315 315 317 316 316 315 315 315 316 317 317 316 313 310 308 303 302 300 298 298 296 295 295 294 294 294 294 294 294
317 323 327 323 327 324 320 315 315 315 319 316 315 315 315 315 320 319 316 315 314 314 315 315 316 315 313 310 305 302 301 299 299 296 295 296 295 294 293 293 293 293 293 293
322 324 323 323 326 325 318 315 315 319 322 316 315 315 315 317 318 317 315 314 315 315 315 315 314 311 307 304 302 300 300 298 296 294 295 294 293 293 293 292 292 292 292 292
323 327 324 327 324 323 315 315 318 319 315 315 315 315 315 315 316 316 315 314 314 314 311 309 305 303 301 300 299 298 296 295 295 294 293 293 292 292 292 292 292 292 292 292
324 324 327 324 324 317 314 314 314 314 314 315 315 315 314 314 314 315 315 314 312 307 305 303 301 299 297 297 298 297 294 294 294 293 292 290 290 292 292 292 292 292 291 291
320 318 322 319 316 316 315 315 316 315 315 315 315 316 316 315 315 315 312 308 305 303 301 300 299 298 298 298 293 294 294 293 292 292 290 291 292 292 292 291 292 292 291 291
320 318 317 318 317 316 316 316 315 315 315 314 315 312 311 313 312 309 305 302 300 299 299 298 297 295 294 294 295 294 293 293 291 290 290 290 290 290 291 292 292 291 291 290
317 318 323 323 317 317 315 312 311 311 309 309 309 306 305 305 303 304 301 299 298 298 298 298 299 298 296 294 293 292 292 290 290 290 289 289 290 290 290 290 290 289 289 289

GFSCGP_850_thetae_045.txt.gz
Theta_e
321 319 318 318 319 320 319 318 317 318 318 318 321 319 319 323 325 324 326 327 326 324 324 325 327 328 327 328 329 328 326 327 327 324 322 323 324 323 321 321 319 319 313 312
321 321 321 321 321 320 320 320 320 320 317 316 315 317 317 320 323 325 324 323 324 322 324 324 326 329 329 329 330 330 328 325 323 322 323 323 322 319 319 319 318 314 312 311
322 321 321 321 321 321 323 322 321 321 321 317 316 315 317 318 322 325 325 323 322 321 323 323 323 326 331 331 331 329 328 326 325 324 324 320 320 319 318 316 313 312 312 311
322 321 322 322 322 321 323 322 322 321 321 320 320 319 321 318 320 322 325 325 325 323 323 324 325 327 329 332 332 330 329 327 324 324 322 321 320 315 313 314 314 313 313 312
323 322 321 322 322 321 321 321 322 323 323 322 321 319 319 320 319 320 321 325 325 325 325 326 327 328 329 331 332 330 327 326 325 323 323 318 315 316 316 315 314 314 312 311
319 320 321 321 322 321 322 321 322 323 323 322 322 321 322 320 321 323 323 325 325 326 327 328 329 330 330 330 331 329 326 324 324 324 319 318 317 317 316 315 314 313 311 309
320 320 321 321 320 321 321 321 324 323 323 324 323 322 322 322 321 322 321 322 324 328 328 329 330 331 331 330 330 328 327 326 324 319 319 317 317 316 315 314 313 310 308 306
321 322 321 321 321 323 321 323 321 327 327 323 323 324 322 321 321 322 323 322 323 327 329 330 331 332 331 329 328 325 327 325 324 319 318 317 318 316 314 313 311 310 309 307
323 323 323 322 322 321 323 323 323 324 323 319 319 318 321 321 322 322 323 323 328 329 330 331 331 331 329 328 325 326 326 324 321 319 318 318 318 317 315 311 310 309 308 306
322 324 322 322 322 320 321 320 321 319 319 320 319 320 323 322 323 322 323 327 329 329 329 328 329 328 327 326 327 325 322 320 320 319 318 318 317 315 311 309 306 307 304 301
320 320 322 321 324 320 321 320 320 319 320 320 320 318 318 320 320 321 323 328 328 328 327 326 327 326 326 326 326 324 321 319 319 318 318 316 314 311 308 307 305 301 301 300
321 320 323 324 321 320 319 320 322 317 320 319 315 317 317 317 318 320 323 327 327 327 326 326 324 323 322 321 321 321 320 320 319 318 316 313 311 308 307 305 301 300 300 299
322 320 321 322 321 321 320 320 319 320 319 320 315 316 315 316 316 319 320 325 327 327 326 325 324 321 321 320 320 321 320 319 317 316 313 311 308 306 304 301 302 300 299 298
322 322 320 318 317 318 321 321 319 319 316 318 317 319 317 315 314 316 318 319 325 326 326 325 324 321 321 321 321 321 320 319 316 313 311 309 305 303 302 301 299 299 298 298
320 320 319 318 320 320 320 320 320 320 320 318 318 319 317 316 314 315 317 318 318 320 325 325 323 322 321 321 321 320 320 319 315 311 309 305 303 303 301 300 300 299 298 296
320 320 320 322 321 318 317 317 318 317 317 318 317 317 316 316 316 316 316 316 317 317 318 322 323 322 322 322 320 319 318 316 311 309 305 303 302 300 300 300 298 297 296 295
321 320 316 321 314 315 312 315 316 317 317 316 316 315 313 313 314 315 316 316 316 316 316 320 321 321 321 320 320 317 314 311 309 306 303 301 300 300 298 297 295 295 295 294
321 321 314 314 311 311 316 314 313 313 313 312 312 311 313 313 315 315 315 315 315 316 316 316 318 319 319 318 316 313 310 308 306 303 301 300 298 297 296 295 294 294 294 294
322 316 315 312 313 316 316 314 315 314 314 313 312 312 314 314 316 315 315 314 314 314 314 315 316 317 316 314 312 311 307 304 302 300 299 297 295 295 295 294 294 293 293 293
318 317 311 313 314 311 315 314 314 314 314 314 314 313 315 316 312 314 315 315 314 314 314 315 315 314 311 308 308 305 302 300 298 298 296 295 295 294 293 293 293 292 293 292
311 312 311 308 309 314 317 314 314 311 313 315 315 315 315 314 316 316 315 314 314 314 314 313 312 309 304 303 303 301 299 298 297 296 296 297 295 293 293 292 292 291 292 292
314 314 309 313 316 317 314 314 313 315 315 315 315 314 314 314 314 315 313 313 311 310 309 309 308 304 301 300 300 299 298 296 297 299 300 297 293 293 291 291 292 292 292 292
318 318 316 316 315 316 315 315 315 315 315 315 315 315 315 315 315 313 309 307 306 306 305 303 304 301 300 300 299 299 299 300 300 297 294 293 292 290 291 292 292 292 292 292
318 318 316 313 316 313 316 315 315 315 315 315 315 314 314 313 312 308 307 303 302 301 301 301 300 300 300 301 301 299 296 295 295 294 292 291 290 290 291 291 290 291 292 292
316 315 316 314 316 315 313 314 314 314 312 312 311 311 310 312 306 305 304 302 301 300 300 300 300 300 298 296 295 294 293 293 292 291 290 290 290 289 289 290 290 290 291 291
316 316 310 312 314 313 309 309 310 310 308 307 309 307 305 305 303 303 301 300 300 299 298 298 297 296 295 294 293 293 292 291 290 290 290 289 289 289 290 290 290 290 290 290

GFSCGP_850_thetae_048.txt.gz
Theta_e
321 318 319 318 317 319 319 318 318 317 316 321 322 318 317 327 331 329 332 328 325 330 328 328 328 327 325 325 321 314 316 322 325 326 325 324 324 324 321 321 319 319 318 314
319 319 320 320 320 320 319 320 319 317 318 318 317 317 316 324 329 329 329 328 325 325 326 327 327 325 325 326 326 324 321 321 323 324 323 324 324 323 323 321 319 317 314 312
319 319 319 321 319 320 320 321 320 320 319 315 313 314 316 318 324 326 328 329 326 325 326 326 326 326 326 326 327 328 328 326 325 326 325 323 323 321 319 318 317 315 313 311
319 319 320 320 321 320 320 320 321 321 318 317 316 313 317 316 318 322 323 324 325 323 325 326 326 326 327 327 328 329 329 328 326 325 323 323 324 319 318 319 317 313 312 312
320 320 321 321 320 321 320 318 320 321 320 320 320 317 316 315 317 322 322 321 323 324 324 325 327 327 328 328 329 329 329 328 326 324 324 323 321 320 317 313 313 314 314 312
318 319 320 320 321 321 319 319 321 320 321 321 320 318 317 318 317 318 322 322 322 321 322 323 325 326 328 329 329 329 329 329 326 324 322 321 319 316 315 315 314 314 313 311
319 319 320 321 321 319 320 319 320 319 320 321 321 320 318 319 318 319 319 322 324 323 322 324 325 327 328 329 329 330 329 327 325 325 323 319 317 316 317 316 315 314 313 310
319 320 321 321 320 321 321 319 318 322 323 321 321 322 321 318 320 321 321 321 322 325 324 324 325 327 327 328 330 331 329 325 322 323 323 319 318 317 317 316 315 314 312 309
321 322 321 320 321 321 321 321 320 321 321 319 320 317 319 320 321 321 320 321 321 323 326 326 327 328 329 330 331 330 328 326 324 324 321 319 317 317 315 314 313 312 308 308
318 323 322 322 321 320 319 318 321 320 320 320 317 318 321 322 323 322 321 322 325 327 327 327 328 329 330 330 329 328 326 325 324 325 319 318 317 317 315 313 310 308 308 306
318 319 320 320 322 320 318 318 318 317 317 319 318 316 313 319 320 321 321 324 328 329 330 330 330 331 331 330 327 324 325 326 326 323 318 318 318 316 313 309 307 306 305 306
318 319 320 319 320 319 319 319 320 316 317 316 313 315 314 316 317 321 322 325 327 327 328 328 328 328 329 328 326 325 325 322 321 320 319 318 316 313 309 307 308 306 305 305
319 319 320 321 320 320 321 319 318 318 314 317 314 316 314 314 315 318 322 324 326 327 327 328 327 327 327 326 326 326 325 324 321 319 318 316 314 310 310 310 304 303 304 299
319 318 318 319 318 317 320 320 317 316 314 316 315 317 317 316 313 313 318 320 326 327 327 327 326 326 326 326 325 325 322 320 320 318 316 315 313 312 307 303 302 302 298 299
317 318 317 317 318 319 319 319 319 318 317 316 316 316 316 315 313 312 315 316 320 325 326 326 325 324 324 324 323 321 320 320 319 317 314 312 310 305 304 303 300 299 298 297
317 317 318 319 317 316 317 316 315 316 317 317 317 316 310 313 314 314 314 316 316 318 319 323 324 323 321 321 320 320 321 320 316 315 312 307 304 303 302 300 300 299 297 295
318 317 313 318 312 314 313 315 315 316 315 315 314 313 311 311 311 313 315 315 316 317 320 320 321 322 321 321 320 321 320 317 311 308 306 304 303 301 301 299 297 295 295 295
317 316 310 312 310 313 316 314 314 312 311 310 310 311 312 312 313 313 313 314 314 315 316 318 320 321 321 321 321 319 315 309 307 306 301 300 299 298 296 296 297 299 296 293
318 312 313 311 312 314 315 312 312 312 314 312 311 312 312 314 314 314 314 314 314 314 314 315 317 318 320 319 317 313 308 307 304 301 299 298 297 296 299 300 299 294 293 293
314 312 312 311 312 312 313 313 313 312 313 313 313 314 314 313 311 312 314 314 314 314 314 315 315 315 316 313 311 309 305 303 300 298 297 296 299 301 299 295 293 293 293 292
310 310 310 304 308 309 312 312 313 311 310 313 314 314 315 313 314 312 312 313 313 313 312 312 312 312 309 306 306 304 300 299 297 296 297 300 299 296 294 293 293 292 291 292
313 312 308 309 308 313 315 313 312 310 313 314 314 314 314 314 313 310 309 309 309 310 307 306 307 304 301 301 301 300 300 300 299 301 299 298 295 293 293 292 290 291 291 291
316 312 312 313 312 313 314 314 314 314 314 314 314 314 314 313 309 308 306 306 305 304 303 302 302 300 299 299 299 299 300 299 298 296 294 293 292 292 290 290 290 290 291 291
316 317 316 313 314 314 314 314 315 315 315 314 314 314 314 312 307 305 303 302 301 300 300 300 300 299 299 297 296 296 296 295 294 293 292 292 290 289 289 289 289 289 290 289
314 314 313 314 313 313 312 311 312 312 312 313 312 312 311 310 304 302 301 300 299 299 299 299 299 297 296 295 294 293 292 292 291 290 290 290 289 289 289 289 289 289 289 290
313 312 310 311 314 311 309 308 310 311 309 308 309 306 305 305 302 301 299 299 299 298 296 295 294 294 293 293 292 291 291 291 291 291 291 291 291 291 291 290 290 289 290 290

GFSCGP_850_thetae_051.txt.gz
Theta_e
320 316 318 318 317 317 317 316 317 317 316 320 319 319 316 325 331 331 331 331 331 331 330 330 328 328 329 329 328 327 326 323 322 324 325 327 328 327 325 322 318 318 319 319
317 317 317 318 319 319 319 319 318 317 317 317 317 319 316 324 330 331 331 332 332 332 331 331 329 329 328 328 327 325 325 324 321 324 326 327 327 326 323 319 319 319 318 317
318 318 319 320 319 320 319 319 318 319 317 315 314 315 316 322 328 330 330 331 331 331 332 331 330 329 328 327 325 323 318 316 317 323 327 327 326 324 321 321 321 320 318 316
318 318 319 320 320 319 319 318 319 320 317 315 314 314 315 315 324 326 328 327 327 326 330 329 327 328 327 326 325 324 320 317 319 322 326 326 325 324 323 323 321 318 317 313
318 319 319 320 319 319 319 318 319 320 319 319 319 317 315 314 320 323 326 326 325 326 327 327 327 326 326 326 325 325 322 323 323 325 326 326 326 323 323 320 318 317 314 312
317 319 318 318 320 319 319 319 318 318 318 319 319 317 316 316 315 317 322 325 324 324 324 325 326 326 326 326 325 325 325 326 326 327 327 325 324 323 322 319 317 314 312 312
318 318 319 320 319 318 317 317 318 318 319 320 319 319 317 317 316 315 317 321 324 323 321 324 325 326 326 325 325 326 326 327 327 328 326 324 323 322 320 317 314 313 313 312
318 319 320 320 319 320 320 317 317 320 320 318 319 323 319 318 318 319 318 321 322 321 322 322 324 325 325 326 326 327 327 328 327 327 326 324 321 318 316 315 315 315 314 313
318 319 320 320 320 319 321 320 317 319 318 318 318 316 316 318 320 319 319 319 322 322 321 321 322 324 325 326 327 327 328 328 328 327 325 323 321 318 317 316 317 316 314 312
317 318 320 320 320 319 319 317 318 316 320 321 316 316 317 320 320 320 317 319 320 322 323 322 322 322 323 325 326 327 329 329 328 324 322 323 322 320 318 317 316 315 312 311
317 316 317 319 319 317 317 317 317 316 314 317 317 317 310 318 318 319 319 321 322 322 324 324 325 324 324 326 327 328 329 328 327 325 324 324 322 320 318 316 314 313 310 307
316 315 317 318 318 318 317 318 317 315 317 314 313 314 313 312 315 318 321 322 323 325 326 327 327 327 327 327 329 330 328 326 323 324 325 324 321 318 316 313 311 310 307 308
317 317 318 317 316 318 320 319 318 315 312 315 314 315 312 311 313 318 319 322 323 326 327 327 328 328 327 328 330 329 327 324 324 324 324 322 317 317 314 313 309 307 307 303
317 317 317 318 317 316 320 319 316 316 314 315 314 316 315 314 313 313 316 319 322 325 327 327 327 327 327 329 327 326 326 325 325 324 322 318 317 315 311 307 309 305 302 300
316 317 316 315 315 315 317 317 316 317 315 316 315 315 314 313 312 311 313 314 317 319 324 326 326 327 328 328 327 326 325 323 322 320 319 316 313 311 310 309 303 302 298 300
315 316 316 319 316 317 317 316 315 315 315 315 315 315 312 312 312 312 313 315 317 319 320 323 325 326 325 325 326 324 323 320 320 318 316 312 311 309 305 302 301 299 298 296
315 315 313 316 312 314 313 314 315 314 314 314 314 312 311 311 311 311 314 316 318 319 319 319 320 321 322 321 322 322 321 319 317 316 312 310 307 304 301 300 299 296 297 300
314 313 309 311 310 312 314 313 313 312 311 309 310 310 310 310 311 312 313 314 315 316 317 318 319 320 320 320 319 319 318 316 313 311 308 306 303 300 297 297 298 300 299 296
315 310 310 312 312 312 315 311 311 311 312 311 310 309 312 313 313 313 313 313 313 314 314 315 317 318 319 319 318 317 315 312 309 306 303 300 298 298 298 300 300 300 294 294
312 310 312 307 312 314 314 313 312 311 311 311 311 310 311 312 309 309 311 312 313 313 313 314 314 315 316 315 315 314 309 305 301 298 297 297 298 299 300 300 296 294 293 293
311 309 313 306 309 311 310 311 312 311 310 312 313 313 312 310 311 312 310 311 312 312 311 311 311 311 310 308 307 306 300 299 297 297 298 299 300 299 297 294 293 293 292 290
316 313 308 307 307 315 312 312 310 309 312 313 313 314 314 314 311 310 309 309 308 307 306 305 305 303 301 301 303 300 300 300 302 300 299 298 296 294 293 292 292 290 290 290
315 314 314 313 312 311 313 312 313 314 314 313 313 313 313 312 309 307 306 305 303 302 302 301 302 300 299 300 300 301 300 299 297 296 295 293 292 291 290 289 289 289 289 289
315 313 313 313 314 313 312 313 313 313 313 313 314 313 312 311 307 305 303 301 301 301 300 300 300 300 299 298 297 296 294 293 292 292 290 290 289 289 289 289 289 289 289 289
315 313 312 312 311 311 312 312 313 313 313 314 313 312 312 310 304 303 301 300 299 299 299 298 298 297 294 293 292 292 291 291 291 290 290 290 290 290 290 290 290 290 290 290
312 313 312 311 312 312 310 310 311 312 311 312 312 309 306 306 303 301 299 299 299 297 296 295 294 293 292 292 291 291 291 291 290 290 290 290 290 290 290 290 289 290 290 290

GFSCGP_850_thetae_054.txt.gz
Theta_e
319 316 316 316 316 316 316 317 315 314 315 319 318 318 320 323 326 325 326 327 329 328 328 328 327 326 322 324 325 324 327 325 319 314 321 325 325 326 326 325 325 324 321 319
316 317 315 316 318 318 317 318 317 315 316 316 316 316 314 321 324 325 325 326 328 329 329 329 329 327 324 324 325 327 328 327 322 318 320 324 324 325 326 326 325 320 318 319
317 317 317 319 318 319 318 319 318 318 316 314 314 314 316 318 327 329 328 328 327 329 329 330 329 328 326 326 325 325 326 324 324 323 321 323 325 325 325 325 323 319 318 318
317 317 317 318 319 317 319 317 318 318 318 316 313 314 313 315 325 328 329 329 329 329 329 330 330 329 327 326 326 327 326 325 324 324 321 321 324 324 324 325 323 320 319 317
316 318 318 318 317 317 318 317 319 318 317 318 317 316 314 313 318 323 327 329 329 329 330 330 330 328 327 327 327 326 327 325 323 323 322 322 323 325 325 323 322 321 318 314
315 318 317 316 318 317 317 318 316 316 316 318 317 316 315 314 315 319 323 327 329 329 330 331 331 331 330 328 328 327 326 325 323 321 319 321 324 325 324 322 321 320 316 313
317 317 317 319 319 317 316 315 317 319 318 319 318 318 316 315 315 314 315 323 328 330 329 329 327 329 328 327 327 327 326 325 324 321 319 322 324 325 323 322 321 318 316 314
316 318 318 318 318 318 318 316 317 320 319 317 316 320 318 316 317 318 318 316 321 327 329 328 327 326 327 326 326 326 326 325 325 323 322 324 326 326 323 322 319 318 316 313
316 317 319 319 319 317 319 318 315 317 316 316 316 315 313 316 319 319 318 317 318 320 324 327 327 326 325 325 325 324 325 325 325 325 325 326 326 324 323 320 318 315 314 313
315 316 319 319 319 318 318 316 318 315 320 321 315 315 314 315 317 317 318 319 318 319 320 322 325 325 324 324 324 325 325 325 325 325 326 326 325 324 322 317 316 315 315 314
314 313 315 318 318 317 317 317 314 314 313 316 316 315 310 313 317 317 317 320 321 319 322 321 321 321 321 322 323 324 325 326 326 327 327 326 323 322 322 320 317 315 316 314
315 312 314 317 317 316 315 316 315 315 317 313 312 313 312 310 311 316 318 320 321 323 322 322 322 323 323 322 323 323 324 326 326 328 327 325 323 323 323 321 320 318 315 312
315 314 314 314 315 317 319 317 316 313 311 315 313 315 311 310 310 312 316 319 321 322 324 325 325 325 325 325 326 325 325 327 326 324 324 324 323 323 323 321 318 314 312 310
315 315 313 315 314 314 319 318 316 315 313 315 313 315 313 313 312 312 315 316 317 320 323 325 325 324 326 326 327 327 327 325 324 324 324 323 323 323 319 314 312 309 307 306
314 315 314 314 314 315 315 315 314 315 314 315 315 313 313 312 310 310 312 313 313 315 320 323 326 327 327 328 328 327 326 325 325 324 324 323 321 317 312 309 307 306 305 301
313 315 314 317 315 315 317 315 313 314 315 313 314 313 310 311 311 311 312 315 318 319 319 321 323 324 324 325 326 326 325 324 323 322 321 320 315 310 308 307 306 304 299 298
313 313 312 316 312 314 314 314 313 313 312 313 314 312 308 311 310 311 313 315 317 318 318 318 319 320 321 321 321 321 322 321 320 318 316 312 309 307 306 303 300 298 297 299
312 311 308 310 309 312 315 312 312 313 311 310 308 309 309 309 310 311 312 314 315 316 317 317 318 318 319 319 319 319 318 317 316 314 311 309 306 302 299 297 297 297 299 300
312 308 309 313 312 312 313 311 311 311 311 309 308 308 310 311 311 309 310 311 312 313 314 314 315 315 316 318 317 317 315 313 312 309 306 301 299 297 298 299 299 300 300 297
311 308 311 306 311 312 311 311 310 309 310 309 309 309 309 310 308 307 308 309 310 312 313 313 313 314 315 314 314 313 311 309 305 301 299 298 299 299 300 300 299 297 294 293
311 307 309 303 308 311 311 311 311 311 312 310 311 311 311 309 308 309 308 310 310 311 310 310 310 310 309 308 307 308 303 300 298 298 298 299 300 300 298 295 293 293 292 291
317 315 309 307 308 316 310 310 311 309 310 312 312 312 311 312 310 308 308 308 307 307 306 305 306 304 302 301 303 300 300 299 301 302 299 296 294 293 292 291 290 290 289 289
318 315 315 314 314 311 311 311 311 311 312 312 313 313 313 311 309 307 306 305 304 303 302 301 301 299 299 299 300 301 298 297 296 294 293 291 290 290 289 289 289 289 289 289
313 311 313 313 313 312 313 313 313 312 313 313 313 313 312 312 308 306 304 302 301 300 300 299 299 299 298 297 297 296 295 293 292 291 290 290 290 290 290 290 290 290 290 290
312 312 312 311 311 311 311 312 312 312 313 313 313 313 312 311 306 305 302 300 299 299 298 298 298 297 295 294 294 293 292 291 290 290 290 290 289 289 289 289 289 288 287 286
311 312 312 312 313 313 312 312 312 312 313 313 313 310 308 308 306 302 300 299 299 298 298 297 296 295 293 292 291 290 290 290 289 289 289 288 287 286 284 284 283 283 282 282

GFSCGP_850_thetae_057.txt.gz
Theta_e
318 320 320 319 318 318 318 318 318 316 316 322 323 322 321 329 329 328 327 326 325 324 326 326 326 324 323 322 322 324 321 321 320 315 313 315 318 317 320 324 323 324 325 325
318 321 319 316 317 318 318 319 319 318 317 318 317 318 317 326 328 327 327 326 325 325 325 326 327 325 325 321 321 323 323 323 324 319 313 314 317 320 323 325 325 324 324 323
320 319 316 318 318 319 319 319 319 320 318 315 316 316 317 320 324 326 326 326 326 327 327 327 327 327 326 324 321 322 324 324 326 324 317 313 319 323 325 325 324 324 323 320
318 316 317 318 319 318 319 318 319 319 320 320 316 321 316 316 324 326 326 326 326 327 325 327 328 328 327 325 324 323 325 326 326 327 323 318 318 321 322 322 323 323 321 318
318 318 318 319 319 318 320 318 320 319 320 320 318 320 320 314 318 323 327 328 328 327 326 325 328 328 327 327 326 325 325 326 327 326 326 323 322 323 322 323 324 322 318 318
316 316 317 318 318 317 317 319 318 318 319 322 319 320 321 319 318 317 320 326 329 328 326 326 327 328 328 327 326 326 326 326 326 326 325 324 323 323 322 323 324 322 319 318
317 317 317 318 319 318 317 319 322 324 324 323 319 320 321 318 317 318 318 320 325 328 327 326 327 328 329 329 328 327 326 326 326 327 326 324 322 322 324 325 325 322 321 318
318 318 318 318 319 320 319 320 324 321 322 320 317 322 321 318 316 317 318 317 317 321 326 328 326 326 328 329 329 329 326 326 326 326 326 324 322 323 322 324 325 322 320 319
318 317 317 318 319 319 320 321 317 320 317 323 320 319 316 316 318 318 319 319 318 316 322 325 329 328 328 328 327 326 327 326 326 326 326 325 324 324 322 322 323 321 319 317
318 318 319 319 319 317 319 317 321 319 322 322 318 317 318 318 319 318 319 319 319 320 319 320 323 326 328 328 327 326 326 325 326 326 326 325 324 323 323 324 322 321 318 316
315 317 316 319 320 320 319 319 317 317 318 321 320 319 317 317 318 319 318 318 320 320 321 322 321 321 323 324 325 324 324 324 325 325 325 324 324 324 325 325 322 321 319 315
316 317 319 319 317 316 317 320 319 323 320 317 317 319 315 315 313 312 316 317 320 322 322 322 321 321 321 321 322 321 322 323 324 325 325 325 325 325 324 322 321 321 319 316
317 316 318 317 317 318 320 318 316 316 316 318 323 321 314 314 315 313 314 315 317 320 323 322 322 323 323 323 323 323 323 324 324 325 326 324 323 323 322 322 322 321 315 316
315 316 318 318 318 317 320 319 317 319 321 321 319 320 319 318 316 316 314 314 314 314 317 323 324 323 323 324 324 325 325 326 326 326 325 325 324 323 322 320 320 317 314 311
318 318 316 314 313 315 318 319 318 319 320 322 321 316 318 316 316 312 311 313 316 316 315 318 323 325 326 326 326 326 327 327 327 326 324 323 320 320 318 317 316 312 309 306
314 317 316 316 314 314 316 315 316 317 316 316 316 316 315 312 311 312 313 317 318 318 319 320 321 322 322 323 324 324 325 324 323 322 320 319 318 317 314 311 307 306 305 303
316 316 317 319 314 315 318 317 315 315 315 317 318 319 312 312 312 311 312 315 315 317 317 318 319 319 320 320 320 321 321 321 319 317 317 315 313 309 307 305 304 303 300 298
315 315 313 316 312 320 319 313 314 316 315 313 312 312 311 311 309 310 312 313 314 315 316 316 316 316 317 317 318 318 317 316 315 314 311 308 306 306 304 301 299 297 298 299
313 312 313 319 318 316 314 313 315 316 317 313 313 310 310 309 309 307 309 310 311 312 314 314 314 315 315 316 316 315 314 313 312 309 308 305 302 300 298 298 299 300 299 299
310 311 318 312 318 320 317 313 310 312 316 312 311 311 311 310 316 314 308 309 310 312 312 312 313 313 313 313 312 313 311 310 307 303 301 299 299 299 301 300 300 297 294 293
314 312 317 312 319 316 312 311 310 318 319 311 310 311 311 313 311 310 308 308 309 309 310 310 310 311 310 308 309 308 304 303 302 300 300 300 302 300 298 294 293 292 291 290
318 317 316 312 316 320 311 309 315 316 310 311 310 311 311 310 308 307 306 306 306 306 306 307 307 305 304 303 305 302 301 299 299 301 302 299 295 294 292 291 290 289 289 289
319 317 319 317 320 314 310 314 312 312 312 311 311 311 311 309 306 305 304 304 303 304 303 303 303 301 299 299 300 301 300 299 298 296 294 292 291 290 290 290 289 289 289 289
313 313 317 316 315 313 312 311 312 311 311 312 312 312 312 310 306 304 303 302 301 301 300 300 300 300 299 298 298 297 295 294 293 291 291 290 290 289 289 289 287 286 284 283
314 315 314 314 313 312 314 313 313 312 312 311 312 312 312 310 306 305 302 301 300 299 299 299 299 298 296 295 295 293 292 291 290 290 289 289 288 286 285 284 284 283 282 281
313 314 316 318 315 317 317 317 315 313 312 312 313 310 309 309 308 303 301 299 298 298 297 297 296 296 294 292 291 290 290 289 289 288 287 286 285 284 283 283 283 282 281 281

GFSCGP_850_thetae_060.txt.gz
Theta_e
321 322 322 320 320 322 321 321 320 320 321 324 324 323 322 328 330 331 328 327 328 328 328 329 327 327 326 323 324 325 325 325 325 324 317 320 320 321 320 323 324 323 321 322
322 322 321 321 321 321 322 320 320 321 321 321 322 322 321 324 329 330 329 327 326 328 329 329 329 327 327 325 325 325 327 327 324 324 321 318 317 321 322 323 321 322 323 323
321 321 320 321 322 322 322 322 321 321 322 321 321 321 321 323 326 328 329 329 326 326 327 329 329 329 328 327 327 326 327 328 326 327 324 321 321 321 320 321 319 323 323 323
321 321 320 321 322 321 322 321 321 321 321 322 321 321 321 321 325 326 328 329 329 327 327 329 330 329 329 328 328 327 327 328 328 326 326 323 320 320 321 321 321 323 323 324
320 321 321 321 321 321 321 321 322 322 322 323 322 322 322 320 321 324 326 327 329 329 327 328 329 330 330 329 329 328 327 327 328 327 326 326 323 320 323 323 322 323 324 323
320 319 321 321 320 320 321 322 322 323 323 324 322 322 322 321 321 322 322 325 327 328 329 327 327 330 330 330 330 327 326 327 327 326 326 326 326 325 324 321 322 323 324 323
320 320 320 320 322 321 322 322 324 325 325 324 322 322 322 322 322 322 322 323 323 326 329 330 328 329 330 331 331 328 327 328 327 327 326 327 327 326 323 321 322 323 324 324
320 320 320 321 321 322 323 323 323 322 323 322 321 321 321 322 321 321 323 322 321 321 327 329 330 329 330 331 331 328 326 328 328 327 326 327 326 325 323 321 321 322 324 325
320 319 320 321 321 322 323 323 322 325 324 325 322 321 321 321 321 323 322 322 323 321 324 327 328 329 331 331 331 330 329 329 330 328 326 327 326 324 321 319 320 323 324 323
320 320 320 322 322 322 323 322 323 324 323 322 322 321 320 320 322 320 320 321 322 323 322 323 326 328 330 331 331 331 330 330 330 330 327 326 326 325 324 323 323 323 322 322
319 320 322 322 323 322 322 323 322 322 322 323 322 321 320 320 320 322 323 321 322 323 324 323 323 324 326 329 329 329 329 329 329 328 327 325 325 325 325 324 323 323 324 322
320 320 321 321 321 321 322 322 323 323 322 323 323 322 320 321 321 319 320 320 322 323 324 324 324 324 325 326 327 328 327 327 327 327 326 324 324 324 324 324 323 321 322 321
319 320 321 320 320 321 321 321 321 322 322 322 327 322 321 320 320 320 319 319 319 321 324 325 325 325 326 327 327 327 327 327 327 325 325 326 325 325 324 323 323 322 322 318
319 320 320 321 319 319 320 321 321 321 323 321 322 321 320 321 321 321 320 319 318 317 318 325 326 327 327 328 326 324 324 324 325 325 327 328 326 326 324 323 322 319 317 316
320 319 320 319 318 318 318 318 319 320 320 320 320 320 321 321 322 321 318 317 320 320 319 321 326 328 328 328 327 326 326 326 326 327 324 323 321 321 320 319 317 314 314 311
319 319 320 320 319 318 318 318 318 320 319 321 321 320 321 321 319 317 317 320 321 321 320 321 323 325 325 324 322 325 325 323 322 322 321 319 318 318 316 314 312 310 308 306
320 320 321 320 320 319 321 320 319 319 321 321 321 321 321 321 319 318 318 319 319 318 318 319 320 320 320 321 321 321 321 319 319 318 316 315 313 313 310 309 307 306 304 303
322 321 322 320 319 328 320 319 320 320 320 321 320 320 320 319 318 315 317 318 315 315 315 315 315 316 316 317 317 316 315 316 315 314 313 311 309 307 305 304 304 303 302 302
321 321 322 327 322 320 319 317 319 321 321 321 320 320 318 315 313 312 311 313 312 311 311 311 311 312 312 312 312 311 312 313 313 309 306 304 306 306 304 302 302 302 301 300
317 318 323 319 324 329 320 320 318 319 322 320 318 318 317 315 319 319 309 309 308 308 308 309 310 309 310 309 308 310 310 308 306 304 303 302 301 301 302 302 301 297 296 294
319 319 324 323 325 323 320 317 315 321 323 320 318 318 316 318 318 314 308 307 307 307 307 307 306 306 306 305 305 305 304 303 301 300 301 300 302 301 298 296 294 293 292 290
321 323 324 323 327 327 315 314 320 321 319 319 317 317 317 314 310 308 306 305 305 305 305 304 304 304 304 304 304 303 302 300 300 300 302 300 297 295 293 291 291 291 292 291
323 322 324 321 324 321 316 319 317 318 319 317 317 316 316 310 308 306 305 304 304 304 303 303 303 302 302 301 300 299 297 298 299 298 296 294 292 290 290 290 289 289 288 286
318 317 321 320 321 319 317 316 315 315 315 315 315 315 312 310 307 305 304 303 302 302 302 301 299 298 297 297 298 300 298 296 294 293 291 290 290 289 288 286 285 285 284 284
320 318 319 321 321 317 317 317 317 315 313 312 313 313 311 309 306 304 303 302 301 301 299 299 298 297 297 298 298 298 296 292 291 290 289 289 287 286 285 284 284 283 282 282
317 319 322 323 321 320 321 320 319 316 314 313 312 311 309 307 305 303 302 301 300 299 298 297 295 297 297 296 295 293 291 290 289 288 287 286 285 284 283 283 283 282 281 281

GFSCGP_850_thetae_063.txt.gz
Theta_e
320 322 322 323 323 321 322 321 320 322 322 323 324 325 324 328 328 329 328 328 329 329 328 327 327 325 324 324 323 323 322 322 324 324 322 320 321 321 322 323 325 326 325 325
323 322 322 322 321 322 321 322 320 322 321 322 322 325 323 324 328 328 329 327 328 329 328 327 327 326 324 324 324 324 323 323 325 325 324 321 319 320 321 322 325 326 325 325
323 323 322 322 321 322 322 322 323 323 324 322 322 323 322 323 326 328 329 327 326 328 328 328 327 328 326 325 325 326 326 325 325 325 324 322 320 320 322 323 324 324 325 322
322 322 321 321 322 322 323 322 321 322 322 322 324 324 325 322 324 327 328 329 327 326 328 329 330 329 329 328 326 326 327 326 327 327 325 324 321 320 321 323 324 324 323 320
321 321 322 322 322 322 322 323 322 322 324 324 325 322 325 322 321 323 327 329 328 326 326 327 329 330 330 330 329 328 327 327 328 328 327 327 324 322 322 323 324 324 323 323
321 320 321 322 321 321 322 322 322 323 324 326 323 324 324 323 321 321 322 325 328 327 326 326 328 329 329 330 330 330 329 328 328 329 329 329 327 326 322 322 326 325 325 322
320 321 321 321 322 322 322 322 325 326 329 326 325 323 324 324 322 322 323 322 325 327 328 327 326 328 329 329 330 331 331 329 329 329 329 329 329 329 327 326 326 322 323 322
320 322 321 321 322 323 323 323 326 328 328 327 323 322 322 322 321 322 323 323 324 324 326 328 328 327 329 330 331 331 331 331 330 330 331 331 330 330 329 327 323 323 320 321
321 321 321 321 321 322 324 324 324 326 324 324 323 322 322 321 321 322 322 322 324 324 324 327 328 329 328 330 331 332 332 331 331 330 331 332 331 331 330 328 324 322 320 320
321 321 320 321 321 322 324 324 324 324 326 326 322 322 322 321 323 321 321 321 321 323 324 326 328 329 330 330 331 333 334 333 332 332 332 331 329 329 329 328 324 321 320 321
320 321 321 323 322 322 323 325 324 325 326 326 324 323 323 321 321 321 322 320 321 322 324 326 326 327 329 331 333 334 334 334 333 333 332 331 329 328 327 326 325 322 322 323
320 321 324 322 321 321 323 323 324 325 324 324 325 325 322 321 321 321 321 321 321 323 323 325 326 326 327 329 331 333 333 334 333 333 333 331 329 328 327 324 322 323 322 322
320 320 322 321 322 322 322 323 324 324 323 324 329 324 322 322 321 321 321 321 321 322 323 324 325 326 327 328 329 331 331 331 330 330 330 329 327 327 323 323 323 322 321 321
320 320 321 323 322 321 321 321 322 323 326 323 322 322 322 321 322 322 321 321 321 321 321 323 325 327 329 330 330 330 330 330 329 329 328 327 324 323 322 321 320 320 319 317
320 320 320 320 320 320 320 320 321 322 322 323 322 321 321 321 322 322 322 322 321 322 321 321 326 327 329 330 329 328 326 325 325 325 325 323 323 322 321 320 319 319 316 315
320 321 321 320 320 319 319 319 319 319 319 319 319 320 321 320 319 321 321 321 322 323 323 323 325 329 330 330 325 325 325 326 326 325 322 322 320 319 318 316 315 314 313 311
321 323 322 322 320 320 323 320 319 319 320 320 321 321 321 321 321 320 320 321 322 323 323 324 326 328 327 325 322 319 320 321 321 320 318 317 315 314 312 310 311 310 308 306
321 322 324 325 324 327 321 320 320 320 320 320 320 320 321 320 320 320 320 321 321 321 321 322 323 322 322 321 319 318 316 314 312 311 310 308 307 307 307 307 305 305 304 303
323 323 325 327 325 321 320 320 320 320 320 320 320 320 320 320 320 319 318 320 319 319 319 319 318 318 317 315 314 313 312 310 309 308 307 306 306 307 306 305 303 302 302 300
320 324 327 325 324 326 321 320 320 321 324 321 320 320 320 320 322 320 316 318 316 315 314 315 315 314 314 312 311 310 309 309 308 307 306 305 304 303 302 302 301 300 300 298
322 324 327 325 325 322 320 320 320 323 324 320 320 320 320 321 320 319 315 314 313 313 312 312 313 312 311 310 310 310 308 307 306 305 304 303 303 302 300 299 298 296 295 294
323 324 327 325 328 327 319 319 322 323 321 321 321 320 320 320 318 316 314 312 311 311 310 311 310 310 309 309 309 308 306 304 303 302 300 300 298 296 296 296 295 294 294 294
324 323 324 323 324 322 318 320 319 320 322 322 321 320 320 319 316 314 312 311 310 309 309 309 309 308 308 308 307 305 303 301 300 299 297 296 295 294 293 293 292 291 290 290
320 320 323 323 322 321 320 320 319 320 320 321 320 320 320 318 315 313 311 310 309 309 308 308 307 307 305 304 302 301 300 298 297 296 295 293 292 290 289 289 288 288 288 286
316 317 319 319 318 318 320 320 320 320 319 319 317 318 319 317 314 312 310 309 309 308 307 306 304 302 301 299 298 297 297 296 295 293 291 290 289 288 288 287 286 285 285 284
315 316 321 322 318 320 320 320 322 321 320 318 317 317 317 315 312 311 309 308 307 306 304 303 302 300 297 296 295 294 294 293 291 289 289 288 287 286 286 286 286 285 283 282

GFSCGP_850_thetae_066.txt.gz
Theta_e
318 319 320 321 323 323 323 321 322 323 323 324 322 323 327 326 327 330 328 329 329 327 327 328 326 322 321 321 320 320 321 322 322 319 321 321 321 318 318 319 321 323 323 321
320 321 321 321 322 322 322 322 321 322 323 322 321 322 325 327 326 326 327 328 329 328 327 326 325 323 324 324 324 323 323 322 322 323 321 321 321 320 320 321 322 326 324 324
321 322 322 322 322 321 321 321 322 324 323 322 322 322 323 323 325 325 327 327 329 329 328 327 326 325 325 324 324 323 322 322 322 324 322 321 321 320 321 321 323 325 325 323
321 321 323 322 322 322 322 321 323 322 322 322 323 324 325 324 323 326 326 327 326 328 327 327 328 326 325 324 324 324 323 322 324 325 325 324 321 320 321 321 322 323 324 324
321 321 322 322 321 322 323 323 324 322 322 323 324 326 325 323 323 323 326 327 326 326 328 328 327 327 326 325 325 325 326 325 325 325 325 325 322 321 320 321 322 324 326 325
320 321 321 322 321 322 322 322 323 323 323 325 324 325 325 324 324 323 326 328 329 327 327 329 329 328 329 328 327 326 326 326 327 327 327 326 326 323 321 321 322 324 325 324
320 320 321 321 321 322 322 322 325 327 328 328 325 325 326 324 324 324 323 327 328 328 327 326 329 330 330 330 329 328 327 327 327 327 328 327 328 327 324 323 323 323 324 321
320 321 321 321 321 322 322 322 326 329 330 331 326 325 323 324 323 322 322 322 325 327 327 327 326 330 330 330 330 330 330 328 328 328 329 329 329 329 329 325 325 324 325 320
320 320 320 321 321 321 324 325 324 329 328 332 326 325 323 323 321 321 322 323 324 324 326 328 328 327 330 330 330 330 331 330 329 329 328 329 323 329 328 329 328 326 325 324
319 323 321 321 321 321 321 324 326 327 330 327 322 322 324 322 322 322 321 322 323 324 325 324 328 328 327 330 330 330 330 332 331 330 330 329 330 330 330 330 330 328 326 325
320 322 323 322 321 321 321 324 326 325 325 329 331 326 324 323 322 321 323 321 321 322 324 325 327 329 329 328 330 331 331 331 332 332 331 331 331 332 330 328 327 326 326 324
320 322 324 322 321 321 321 323 326 328 327 327 329 326 323 323 322 322 321 321 321 321 323 325 326 326 329 330 330 333 333 334 334 333 332 332 332 331 328 328 327 326 325 322
320 320 323 323 322 322 320 322 323 325 326 327 330 326 323 322 322 321 321 321 321 321 322 324 326 326 327 328 331 333 334 335 335 333 331 330 331 328 327 325 325 323 322 321
320 322 322 325 325 322 321 321 324 325 328 327 327 325 325 322 323 322 321 321 321 321 321 322 324 326 328 329 330 331 333 333 332 331 331 331 330 327 326 323 322 322 321 320
322 323 322 320 321 321 322 321 320 320 323 326 325 322 322 322 322 322 323 322 321 321 321 321 324 327 329 330 330 331 331 331 330 330 329 328 326 325 321 321 321 320 319 318
321 323 322 323 321 321 321 321 321 320 320 321 322 322 322 321 320 320 322 322 322 322 323 322 322 328 331 331 331 330 330 330 328 327 327 326 323 321 320 319 319 317 315 313
321 322 322 323 321 320 320 321 320 320 321 321 321 321 321 320 321 321 320 320 321 324 324 324 325 330 331 330 329 326 325 325 324 322 321 320 319 318 317 314 312 312 311 310
323 323 321 325 321 324 321 321 320 320 320 320 320 320 320 320 320 321 321 321 322 324 324 325 328 328 326 324 323 320 320 319 318 318 316 315 313 311 309 309 309 308 307 306
319 325 323 324 324 322 320 321 321 321 321 321 320 320 320 320 321 321 321 321 322 322 323 324 324 324 322 320 318 316 314 313 312 310 309 307 307 305 305 306 306 304 303 302
318 324 325 327 324 325 323 321 320 321 322 321 321 322 321 321 325 323 320 321 321 320 321 321 320 319 318 317 315 313 312 310 309 307 307 306 305 304 305 304 303 301 300 299
321 323 324 323 325 324 321 321 320 322 324 322 321 321 321 323 323 321 319 320 319 319 318 318 317 316 314 313 312 311 310 309 308 307 305 304 303 303 302 301 300 299 298 297
321 323 324 324 324 325 321 320 321 322 322 321 321 321 320 321 320 319 319 318 317 315 315 315 315 314 312 311 311 310 309 307 306 305 304 303 301 300 299 298 296 295 295 295
321 321 323 323 324 324 320 320 320 320 323 321 322 322 321 321 319 318 317 315 314 314 314 314 313 312 311 311 310 308 306 305 304 302 300 299 297 296 296 295 294 294 292 291
321 322 323 322 322 322 322 320 319 320 320 321 321 322 321 321 319 317 315 314 313 313 312 312 311 310 310 309 308 306 304 302 300 299 297 296 294 293 292 291 289 290 290 289
317 320 322 321 321 319 319 318 319 320 321 320 320 319 320 321 318 316 314 313 312 312 311 310 310 309 308 307 305 302 301 300 298 296 294 294 292 290 289 289 289 288 287 285
316 316 319 322 319 321 321 321 321 320 320 322 321 319 318 320 318 315 313 312 311 311 310 309 308 306 304 302 300 299 298 297 295 292 291 290 289 288 288 287 287 286 285 284

GFSCGP_850_thetae_069.txt.gz
Theta_e
318 315 316 315 316 318 319 320 319 319 321 322 321 322 323 323 325 325 324 327 329 329 326 323 321 321 321 320 319 318 316 314 315 314 315 313 315 317 317 315 314 314 315 313
318 317 317 317 318 320 321 320 319 321 321 321 318 317 324 323 323 323 326 327 328 328 326 325 320 319 317 317 317 319 317 318 317 314 319 322 321 320 318 317 317 314 314 319
319 319 318 319 319 320 320 320 319 321 321 320 319 318 324 324 324 324 326 328 328 329 327 325 322 319 317 316 317 319 320 321 321 321 323 322 320 319 317 315 317 318 320 323
318 319 320 320 320 320 320 320 320 323 321 320 319 320 322 321 324 324 326 328 328 328 327 326 324 322 322 322 321 321 321 321 322 321 319 317 319 320 319 315 318 321 322 323
319 320 320 320 321 321 320 323 322 323 321 320 320 322 325 322 322 322 321 327 328 327 326 326 325 324 324 323 323 323 323 323 321 321 323 319 319 320 320 320 320 321 323 324
317 318 318 320 321 320 320 321 322 321 320 320 321 326 325 321 321 322 322 326 327 327 327 327 326 326 325 324 324 323 323 321 320 319 324 325 323 322 321 321 321 322 322 322
316 317 318 320 319 320 320 320 321 322 321 321 325 326 323 324 322 321 321 325 325 328 327 327 327 326 325 325 324 324 323 324 324 323 323 324 326 324 321 320 320 321 322 324
317 318 318 319 319 320 319 319 322 325 325 327 326 326 321 321 322 322 323 326 327 325 327 327 327 327 327 326 325 324 324 324 325 325 325 325 324 325 324 323 320 321 321 322
317 318 319 318 320 320 321 320 321 327 326 328 329 324 321 320 319 319 321 325 327 327 326 327 328 328 327 328 327 327 326 326 326 326 327 327 328 326 326 326 323 322 322 322
318 320 319 319 319 319 319 322 324 328 329 332 328 326 322 322 322 318 318 320 323 325 327 326 327 329 329 329 329 329 329 328 327 326 326 326 327 329 327 327 326 325 324 324
316 318 319 319 320 320 319 319 323 326 326 325 325 324 321 321 322 318 317 321 323 323 324 325 327 326 328 329 330 329 330 329 329 329 327 328 328 328 330 328 328 327 327 323
316 320 320 318 318 320 319 320 324 325 326 325 321 323 321 319 320 319 319 321 321 322 323 322 324 327 328 330 330 330 329 329 329 330 330 329 329 329 328 328 327 319 321 327
318 320 321 320 320 320 319 320 320 324 324 325 321 322 320 319 320 320 319 321 321 321 324 323 322 322 327 329 330 330 331 331 331 330 330 330 330 329 326 321 323 325 326 325
318 319 320 320 322 321 321 320 319 321 320 322 322 323 322 322 320 320 320 320 321 321 322 324 323 322 326 327 330 332 332 330 324 322 322 329 328 328 327 326 325 324 322 321
317 318 318 318 321 322 321 320 319 321 323 323 323 323 321 319 318 319 321 320 320 321 321 324 324 326 325 324 329 330 331 330 329 327 329 329 329 327 325 323 323 321 321 321
317 319 318 319 320 320 322 321 319 319 318 319 322 322 320 319 319 320 322 321 321 321 321 321 325 327 327 326 324 329 329 329 329 330 329 327 326 325 323 322 322 321 319 318
318 319 320 320 319 320 320 319 320 320 318 318 317 317 318 317 317 318 320 322 322 322 322 322 324 329 329 329 328 328 329 327 325 325 325 325 323 323 321 320 319 317 315 314
320 319 319 320 318 321 319 319 320 319 319 318 318 317 317 317 319 320 320 321 322 323 323 323 324 328 330 330 330 330 329 327 326 324 323 321 320 319 317 315 314 312 311 310
317 321 318 320 320 320 320 319 319 319 318 317 317 317 316 318 320 321 321 321 322 323 323 324 328 330 330 329 327 326 323 322 322 321 320 317 315 313 311 311 311 309 308 305
317 317 319 318 320 320 320 319 319 319 318 318 319 318 318 319 317 317 321 321 322 322 323 324 326 326 326 324 322 320 319 318 317 315 313 312 310 310 309 307 306 305 302 301
313 315 316 316 321 320 320 319 319 320 317 319 320 319 320 317 318 321 320 321 320 322 322 323 323 323 322 320 318 315 314 313 312 311 308 306 306 306 305 304 303 301 300 299
316 317 317 316 320 321 319 319 319 317 319 319 320 322 321 320 321 320 319 320 320 320 320 320 320 320 318 317 316 313 312 310 309 308 307 305 305 303 302 301 300 299 299 298
318 318 318 319 317 318 319 318 319 320 320 321 321 321 322 320 319 319 319 319 319 319 319 318 317 316 315 314 313 311 309 308 307 307 305 303 302 301 300 299 298 297 296 295
317 317 318 318 319 318 319 320 320 320 320 320 320 320 321 320 319 319 319 318 318 316 316 316 315 314 312 311 311 310 308 307 306 305 302 300 299 298 297 296 295 294 294 293
317 318 320 319 319 317 317 316 315 318 319 319 321 320 320 320 320 319 318 316 315 314 314 314 313 312 311 310 309 308 307 305 304 301 299 297 296 295 295 294 293 291 290 289
313 315 318 316 318 317 316 316 315 316 317 318 318 321 320 319 320 319 317 315 314 313 313 312 311 310 309 308 306 305 303 302 300 297 295 293 292 290 290 289 289 287 286 285

GFSCGP_850_thetae_072.txt.gz
Theta_e
317 315 316 314 313 315 316 316 316 317 318 321 320 319 321 320 323 325 328 329 330 329 329 326 324 323 322 322 322 322 321 320 319 315 318 318 317 318 319 319 318 315 315 314
316 317 317 315 315 316 316 317 317 318 319 319 317 317 320 322 323 325 328 328 328 328 329 322 323 322 322 322 322 321 321 319 319 316 315 316 316 317 317 315 313 313 313 313
317 318 317 316 316 316 317 317 318 318 319 318 318 317 323 322 323 324 325 325 327 328 328 322 321 320 320 320 321 320 317 316 316 314 316 316 318 317 316 315 315 313 313 315
315 317 318 317 317 317 318 318 318 319 320 320 317 318 321 321 322 323 323 324 326 327 328 323 319 319 319 319 319 316 315 315 314 314 313 313 314 315 317 317 316 314 315 314
316 318 318 318 318 319 319 319 320 321 321 319 319 319 319 319 320 321 322 324 326 327 328 326 321 318 317 319 318 317 316 316 314 315 315 319 320 320 319 318 317 314 314 317
314 316 317 318 319 318 319 320 320 318 318 320 319 321 320 320 320 320 324 325 326 327 328 327 325 322 320 317 316 318 319 320 319 318 318 321 322 320 319 316 316 316 314 316
313 314 316 316 317 318 319 317 320 320 320 320 324 324 321 319 319 319 324 326 327 327 327 327 325 323 321 320 319 319 319 319 318 319 320 319 319 316 313 314 317 318 319 319
314 315 314 316 316 318 318 318 320 322 322 322 324 324 322 319 320 321 322 326 327 326 327 327 326 326 324 323 322 322 322 320 319 318 318 316 318 319 321 322 322 320 319 320
314 315 316 317 317 318 319 319 319 324 325 324 324 325 320 319 319 318 319 323 325 325 326 326 326 326 326 325 324 321 320 322 321 319 320 318 319 322 323 325 323 322 321 320
315 316 316 317 318 318 319 320 324 325 327 327 326 325 322 321 321 317 318 322 323 325 326 326 326 327 326 327 326 325 322 320 319 320 321 323 322 323 323 324 325 324 321 322
316 316 316 318 318 318 318 319 322 325 325 325 323 321 318 320 319 317 315 321 325 324 323 326 326 327 327 327 326 327 326 325 323 323 323 323 324 325 325 324 324 324 323 322
316 316 317 317 318 318 317 319 319 323 327 325 319 321 319 317 318 317 317 321 323 324 325 326 326 326 326 327 327 326 327 327 324 324 324 325 326 326 326 327 325 325 323 321
314 316 318 317 318 318 317 318 319 322 322 324 322 321 318 317 319 318 316 320 322 321 322 324 325 326 326 327 327 327 327 326 326 326 327 326 327 326 326 326 323 325 322 318
315 317 316 317 317 319 319 319 319 321 321 322 322 323 321 318 318 317 318 319 321 321 321 321 324 321 323 328 328 329 329 329 328 329 327 320 324 328 327 325 326 324 323 324
316 317 316 317 318 319 318 319 320 320 320 321 322 322 320 318 318 317 319 319 319 321 322 322 323 322 323 325 328 329 329 330 330 330 327 322 322 321 326 327 326 325 324 324
315 317 317 318 318 318 319 319 320 320 317 320 320 321 319 320 320 318 319 320 319 319 320 324 324 324 324 324 325 329 330 331 331 330 328 325 323 326 327 325 324 322 321 320
316 317 316 318 318 319 319 319 320 320 319 318 318 319 319 319 317 316 318 320 321 319 320 322 323 324 324 325 325 325 329 330 330 329 327 324 325 323 323 321 322 320 320 319
317 317 315 314 317 322 318 319 320 320 319 318 316 316 315 316 318 318 319 320 320 320 321 321 320 324 325 326 327 327 328 328 327 327 326 325 323 321 320 320 319 318 317 315
316 318 314 317 318 319 319 318 319 319 318 318 315 315 315 316 318 319 319 320 321 321 321 321 322 322 326 327 328 327 326 326 325 324 324 323 321 320 318 316 315 314 314 311
317 316 316 313 318 317 317 317 318 318 318 317 316 316 317 316 315 314 320 319 321 321 321 321 322 324 326 328 328 327 325 324 322 321 320 318 317 316 314 312 313 311 310 308
312 313 314 312 315 316 316 317 318 319 318 317 318 317 317 315 317 319 321 320 321 321 321 321 322 324 328 328 326 324 321 319 319 317 316 314 313 312 311 310 308 307 304 302
316 316 315 313 315 318 317 318 319 316 317 319 319 319 320 320 320 319 320 321 321 320 321 322 323 323 324 324 322 319 317 317 315 314 312 311 309 307 306 305 304 302 301 300
315 313 314 314 314 315 318 319 319 319 317 319 319 321 321 320 320 320 320 320 321 322 322 322 322 322 321 320 318 317 314 313 311 310 308 306 305 304 303 302 301 300 300 299
313 315 315 316 316 318 318 318 318 319 318 316 318 319 320 320 319 320 320 320 321 321 321 321 320 319 318 317 316 315 313 311 309 308 306 304 303 301 300 300 300 298 298 297
308 315 315 316 317 317 317 317 317 317 318 315 317 317 318 320 320 319 319 319 319 319 319 319 318 316 315 313 312 311 311 309 308 306 304 303 301 300 299 296 295 295 294 293
313 315 314 314 316 316 317 317 317 315 318 316 317 318 319 319 319 319 318 318 318 317 316 316 314 313 312 311 310 308 308 307 307 304 300 298 298 297 295 294 293 291 290 290

GFSCGP_850_thetae_075.txt.gz
Theta_e
315 314 316 315 313 313 314 315 315 314 315 317 316 316 318 319 324 324 328 329 328 329 328 327 326 323 321 323 322 322 323 322 321 319 318 321 321 319 317 315 316 317 318 316
315 315 316 314 313 314 314 315 315 314 316 316 315 316 317 318 320 323 325 328 329 329 328 328 326 323 322 322 322 321 322 323 322 319 317 320 321 320 318 316 317 317 315 316
314 316 316 315 314 315 315 315 315 316 315 316 317 317 321 320 321 322 322 325 328 328 328 329 323 322 322 322 321 321 322 322 322 319 318 321 320 319 320 318 318 318 316 317
313 314 316 315 315 314 314 314 316 316 316 317 316 318 316 319 321 321 323 324 325 327 327 328 324 319 319 321 322 321 322 321 321 317 317 319 318 319 318 317 316 315 314 315
313 314 314 316 317 315 316 316 317 317 317 317 318 317 316 318 321 320 321 322 324 324 326 327 327 324 317 320 321 321 321 321 320 317 316 316 317 316 315 315 315 314 315 313
312 315 315 315 316 316 317 318 318 317 316 319 318 318 317 317 319 319 318 321 323 323 325 326 327 324 317 319 320 318 318 318 319 317 316 317 316 315 315 314 314 314 317 315
312 312 313 316 316 316 316 317 318 318 319 320 319 321 319 317 316 318 319 321 322 324 325 326 327 325 320 318 318 317 316 317 316 317 315 314 314 314 313 314 315 316 316 315
314 314 313 313 315 315 316 316 318 322 320 319 322 324 321 319 318 319 320 322 323 324 325 326 327 327 323 318 318 317 317 316 315 315 314 314 313 314 315 317 317 316 315 313
313 313 313 313 315 316 316 317 317 321 322 323 321 321 319 318 316 316 318 322 324 325 325 326 327 327 326 321 319 317 316 317 317 316 316 317 318 319 320 319 317 313 313 315
314 314 314 315 314 315 316 318 321 321 325 325 322 323 322 320 318 315 316 320 324 325 326 327 327 327 327 325 323 320 318 318 317 317 318 318 318 318 319 319 317 316 319 320
312 314 314 314 316 316 317 319 322 321 320 321 323 320 317 320 318 316 315 319 323 325 326 326 327 327 327 326 325 324 322 321 320 319 319 320 320 320 319 318 318 320 322 323
312 314 316 316 316 316 316 317 322 320 326 321 318 321 317 317 316 315 314 319 322 324 324 325 326 327 326 326 325 326 325 324 322 321 321 321 321 321 321 322 322 323 323 323
313 314 316 316 315 316 317 316 317 320 321 322 321 322 318 317 317 317 315 318 321 324 324 325 326 326 326 326 326 326 325 325 324 323 324 324 323 323 323 323 323 323 323 323
316 314 316 317 316 317 318 318 318 319 320 321 322 321 321 320 317 316 317 319 320 321 324 324 325 325 325 325 326 326 326 325 325 325 324 325 325 324 325 325 325 324 323 322
315 316 315 315 315 318 319 318 318 318 318 320 320 321 320 319 318 317 318 319 318 320 321 323 324 323 323 323 324 325 326 326 326 326 325 325 325 325 325 326 327 327 326 323
315 316 316 316 316 318 319 318 317 317 318 318 319 319 317 319 319 317 319 318 317 318 320 321 324 322 322 321 321 323 325 327 328 328 327 327 327 328 325 324 324 328 325 326
317 315 315 317 318 319 318 317 317 318 318 318 318 318 318 317 317 317 319 319 320 319 319 320 321 321 322 322 321 322 325 327 328 328 329 328 328 324 322 323 324 323 322 323
316 317 313 315 317 320 317 317 317 318 318 319 317 315 315 316 319 320 319 319 320 320 319 319 321 322 322 323 324 324 326 328 329 329 329 328 327 324 324 325 324 323 322 321
315 317 317 317 316 316 317 317 318 319 319 318 318 316 314 314 315 316 318 318 319 320 320 320 320 322 323 324 324 326 327 328 329 328 326 324 323 323 322 322 321 320 319 319
314 315 316 315 317 315 315 315 316 317 319 317 316 316 315 314 315 313 319 319 318 320 320 320 320 321 322 323 325 325 326 327 326 324 324 324 323 322 321 320 319 317 315 314
312 312 316 317 318 315 314 316 317 321 317 316 317 318 317 314 315 318 319 319 319 319 320 321 321 322 323 324 325 326 326 326 324 323 322 319 318 318 317 316 314 312 311 309
314 314 309 312 315 318 316 318 318 316 316 318 318 318 318 318 318 319 319 319 319 320 321 322 322 322 324 325 326 326 325 323 319 318 316 316 315 313 312 310 309 308 307 306
313 312 312 315 314 314 317 318 318 318 317 317 317 317 318 319 320 319 318 320 320 321 321 321 323 324 326 325 324 323 320 317 316 314 313 311 310 308 307 307 306 304 303 302
309 313 314 315 315 316 318 318 318 318 318 317 318 318 316 317 319 318 318 320 321 322 322 323 324 323 323 321 319 317 316 314 313 311 309 306 305 304 303 303 302 301 300 299
307 313 315 315 314 316 316 317 316 316 317 317 316 317 317 318 319 319 319 319 321 321 322 322 322 321 319 318 316 314 313 311 309 307 306 305 303 302 300 300 300 299 298 296
308 310 312 310 312 315 314 315 314 315 317 316 317 317 318 318 318 318 317 318 319 320 320 320 319 318 316 315 314 312 311 310 309 307 305 304 303 301 300 299 297 294 293 291

GFSCGP_850_thetae_078.txt.gz
Theta_e
313 312 313 314 313 312 312 313 314 312 312 315 314 313 313 315 321 322 324 328 328 328 326 326 325 323 322 323 321 322 323 322 320 320 320 319 318 319 318 316 315 318 316 315
313 314 314 313 313 314 313 314 314 312 313 313 313 314 313 317 318 322 323 327 328 328 328 327 326 325 322 322 321 322 322 322 321 320 320 322 320 318 317 316 316 320 315 315
313 314 314 314 313 314 314 314 314 313 313 313 314 314 314 317 318 320 321 323 326 328 328 328 326 326 322 322 322 322 322 322 321 320 319 319 320 320 317 318 319 318 317 317
312 312 314 314 315 314 314 313 314 314 315 315 314 316 314 314 317 320 320 321 322 326 328 328 327 327 321 321 321 321 322 322 322 320 317 318 319 320 319 318 315 314 316 316
312 313 313 315 315 313 315 313 313 314 314 315 316 315 314 316 318 317 318 321 322 323 326 327 327 327 321 319 321 321 322 322 322 322 320 318 320 319 317 317 316 315 317 316
311 312 312 313 314 313 316 315 315 316 315 317 317 317 316 315 317 317 317 320 321 322 323 325 326 327 322 318 321 321 321 321 321 321 321 318 317 318 318 315 317 317 317 315
312 311 312 315 313 314 315 315 317 318 318 320 316 317 318 316 315 315 316 318 320 321 322 323 325 327 324 318 318 320 321 321 321 320 320 317 316 316 317 316 316 315 315 314
310 311 312 312 315 316 315 315 317 322 320 319 319 321 319 317 317 318 319 320 319 320 321 323 324 326 326 323 317 316 316 319 319 320 320 317 316 317 318 317 315 314 314 314
312 311 311 312 313 315 315 317 315 319 320 321 319 318 316 316 316 314 315 317 318 320 322 323 324 325 326 325 321 316 315 316 317 317 320 319 315 316 317 316 315 314 314 314
312 313 312 313 312 313 314 315 319 318 324 325 320 321 318 318 317 315 314 316 320 322 322 323 324 325 326 326 324 319 316 315 316 317 317 318 316 316 315 315 314 313 313 314
310 312 314 313 313 313 315 316 319 319 318 320 320 319 316 317 317 317 313 316 320 322 323 323 324 325 326 326 326 324 320 317 316 316 316 316 316 315 315 315 315 316 317 317
311 310 313 314 314 313 313 315 318 319 321 318 317 319 316 316 315 315 313 317 320 320 322 323 324 325 326 326 326 326 323 320 317 316 316 315 315 316 316 315 315 316 315 314
316 314 312 314 313 314 316 315 317 319 319 320 320 320 316 317 318 317 316 317 318 322 322 323 324 324 325 326 326 326 325 323 320 318 318 318 317 320 321 320 319 319 319 319
314 317 313 313 313 312 316 316 316 319 317 318 319 320 318 318 317 316 318 319 318 320 322 323 323 324 324 325 325 325 325 324 324 323 320 320 321 322 321 322 321 321 321 321
315 316 313 314 312 313 317 317 317 317 316 317 318 320 320 317 317 317 320 319 318 318 321 323 323 322 322 322 323 323 324 325 324 323 323 323 323 323 324 323 323 323 323 323
314 316 314 314 313 314 314 315 315 316 316 317 316 316 316 317 318 317 318 320 318 319 321 322 322 322 322 320 320 321 322 323 324 324 324 324 323 323 324 323 323 323 323 324
315 313 314 316 315 316 317 315 315 316 316 317 318 316 316 316 315 315 319 318 320 321 319 320 321 321 321 321 321 321 322 323 324 325 325 325 324 324 324 323 323 325 326 324
313 312 312 314 315 317 315 315 316 316 316 315 316 316 316 316 316 317 317 318 319 320 320 320 319 320 321 322 322 321 322 323 324 325 326 326 326 325 325 325 325 322 323 322
312 314 314 317 317 315 315 317 317 317 317 315 316 316 317 317 314 314 317 318 319 320 320 320 321 320 319 322 322 322 323 324 325 327 327 327 326 326 325 324 322 323 323 322
311 313 316 315 319 318 313 313 316 316 317 316 316 316 314 313 313 312 317 316 316 318 317 318 319 319 317 321 323 323 324 325 326 327 326 326 324 323 323 321 321 322 320 318
314 313 317 316 316 316 314 314 315 318 317 316 318 317 315 313 314 317 317 318 318 317 317 318 319 319 318 322 323 323 324 325 324 323 323 323 322 321 320 319 317 316 316 314
312 312 313 314 316 317 314 317 319 315 316 317 317 317 318 318 318 319 319 319 318 318 318 318 320 320 321 322 322 324 324 322 322 322 320 319 317 316 316 314 314 313 312 311
310 310 311 312 313 312 314 317 317 318 317 317 318 317 316 317 317 318 317 318 318 319 319 322 322 322 323 324 324 324 323 322 320 317 314 315 314 312 311 310 310 309 308 307
305 309 311 312 312 313 314 315 317 318 318 318 318 318 318 317 318 318 318 318 319 320 321 322 322 323 323 323 323 322 320 318 315 314 313 311 310 309 308 307 306 305 304 303
304 307 310 310 310 312 313 313 315 317 316 318 317 316 316 316 317 318 318 318 319 321 322 321 320 320 319 319 318 316 315 314 312 310 308 307 306 305 304 303 302 301 301 300
307 308 308 308 309 308 310 313 313 314 315 315 316 316 316 317 317 317 317 317 318 316 321 319 318 318 318 316 315 312 312 311 310 308 307 306 305 303 302 301 300 299 297 296

GFSCGP_850_thetae_081.txt.gz
Theta_e
313 315 317 317 316 314 315 315 315 315 314 315 315 315 316 316 320 321 323 325 326 326 326 325 324 325 322 320 322 323 322 322 321 320 321 322 320 316 320 316 315 316 316 316
314 316 315 314 315 316 315 315 316 315 314 315 316 317 317 317 319 321 322 325 326 327 327 326 325 324 323 322 320 322 323 323 322 320 320 321 322 318 321 318 316 316 315 316
314 315 314 315 315 316 317 317 317 316 314 315 315 317 318 318 318 319 322 323 326 327 327 326 325 324 323 321 320 322 322 322 322 320 320 320 321 320 319 315 315 315 317 316
313 313 314 315 315 315 316 315 316 316 316 316 316 319 318 319 318 319 320 323 325 326 328 327 327 325 325 322 321 322 322 322 322 321 320 321 320 320 318 316 315 314 315 318
314 313 313 314 315 314 315 315 316 316 316 316 315 317 318 316 320 321 320 321 322 322 324 327 327 326 325 321 322 322 322 322 321 321 321 320 320 318 318 317 315 315 316 318
311 311 313 313 314 315 315 315 315 316 316 318 316 319 320 320 321 321 319 319 320 322 322 324 327 326 326 322 321 321 321 322 322 322 321 320 320 319 317 316 315 316 319 317
310 311 312 313 314 314 315 317 318 321 321 317 319 319 321 319 318 319 320 320 318 320 322 323 325 326 327 324 318 321 321 322 322 322 322 320 319 319 318 316 317 319 317 317
310 310 313 313 315 315 316 317 317 317 321 319 318 321 321 320 319 319 318 318 318 318 320 322 323 324 325 325 319 320 320 321 321 322 322 321 318 319 320 319 318 317 315 314
310 309 310 312 315 316 316 317 316 319 321 324 321 321 320 320 319 318 318 316 317 318 320 321 323 323 325 325 322 316 319 320 320 321 321 321 321 319 319 318 319 317 317 316
313 313 313 313 312 314 316 317 318 318 319 321 321 322 321 320 320 319 320 319 318 318 320 321 321 323 324 326 324 320 316 316 317 319 320 321 321 319 317 316 316 317 316 316
311 313 315 313 313 314 314 317 319 318 320 320 321 322 320 322 321 321 320 317 316 319 320 322 322 323 324 325 326 324 320 315 314 316 317 319 320 320 317 315 315 315 315 315
314 314 313 313 314 313 314 315 317 322 322 321 321 321 317 320 320 318 318 317 316 318 321 322 322 323 324 325 326 325 323 321 317 314 315 316 316 318 318 317 317 316 315 315
311 316 315 313 312 312 314 315 315 316 319 322 325 322 318 317 319 319 318 320 319 317 320 321 323 324 324 324 325 326 326 324 323 319 316 315 315 315 315 318 317 315 315 315
311 313 317 317 315 314 314 316 316 318 320 319 321 320 320 320 320 320 318 319 320 319 318 321 322 323 324 325 325 325 326 326 324 322 319 318 318 315 315 319 317 317 316 315
313 310 312 315 314 316 317 314 316 319 319 320 319 320 320 320 320 320 318 318 319 319 318 320 322 322 323 323 324 325 325 325 325 325 323 322 321 322 318 318 318 317 319 320
310 313 313 315 315 316 316 316 314 317 317 317 317 318 318 318 318 318 318 317 318 320 319 320 321 322 322 322 322 323 323 323 324 324 324 324 322 320 321 322 322 322 321 321
306 312 315 315 315 315 317 316 315 315 316 317 319 318 319 318 318 318 317 317 317 319 320 320 321 321 321 321 321 321 321 323 323 323 323 323 323 322 322 321 321 322 322 322
308 310 313 315 316 320 316 315 316 316 316 317 317 317 318 318 317 317 318 318 318 318 319 320 320 320 321 320 321 322 321 322 323 323 323 323 323 323 323 323 322 322 323 322
307 308 314 316 318 314 317 318 318 318 318 317 317 317 316 317 316 318 317 315 314 314 315 317 320 321 321 320 319 321 322 322 322 323 323 324 324 323 322 321 322 322 323 321
307 307 314 316 317 316 316 315 315 317 320 317 317 317 317 314 319 317 317 318 317 318 317 317 317 319 319 318 318 321 322 322 323 324 325 325 325 324 323 322 322 321 321 319
311 312 313 314 316 317 315 315 316 319 320 316 317 317 316 318 318 317 318 318 317 318 317 317 316 316 316 317 319 322 323 323 324 324 323 323 322 322 322 322 320 318 319 317
314 314 314 314 316 317 314 317 319 318 315 317 317 316 317 317 316 318 318 318 318 318 318 318 318 318 317 319 320 323 323 322 323 324 322 322 322 321 320 318 317 315 314 312
309 313 314 315 316 313 313 315 315 317 316 317 317 317 317 316 317 317 318 319 319 319 318 317 319 319 318 319 319 320 320 321 322 322 321 319 318 316 315 314 312 311 310 309
306 308 313 312 311 311 311 312 313 313 314 315 317 317 316 317 317 317 318 318 319 318 317 318 317 317 317 318 319 320 319 318 318 317 315 314 313 312 310 309 308 307 307 305
307 307 309 311 310 311 311 311 310 311 312 312 313 316 316 316 315 315 316 317 317 319 316 316 318 317 316 317 316 315 314 314 313 313 311 310 308 307 306 305 304 304 303 302
307 309 311 311 309 309 309 309 307 310 313 314 314 315 314 316 316 316 315 315 316 316 317 316 318 317 315 314 313 312 312 311 311 310 308 307 306 304 303 302 300 298 298 298

GFSCGP_850_thetae_084.txt.gz
Theta_e
309 315 315 315 317 317 318 319 320 320 318 318 318 318 318 318 321 322 324 325 327 327 328 329 325 323 323 322 323 324 323 322 321 322 322 321 318 314 314 313 311 312 316 309
313 314 315 315 316 318 319 318 319 319 318 318 319 319 318 318 322 322 323 325 326 328 329 329 326 323 324 322 322 323 323 323 321 321 322 321 320 315 315 314 314 315 311 310
314 315 314 316 317 317 318 319 319 319 318 319 319 320 319 318 321 322 323 324 325 327 330 329 327 325 324 323 322 322 323 322 322 321 321 322 320 316 315 314 314 315 315 311
314 313 315 315 317 316 317 317 317 318 318 319 318 320 319 320 322 322 323 325 325 327 328 330 328 326 325 323 321 321 323 322 322 321 321 321 321 316 318 316 314 316 316 316
315 315 314 316 316 316 316 316 316 317 319 320 320 320 319 318 320 321 322 323 325 326 328 330 329 327 326 324 321 322 322 322 322 321 321 321 320 317 318 319 316 316 316 317
313 313 314 315 315 316 317 317 318 318 319 321 320 319 320 321 322 322 322 322 324 325 327 330 329 327 327 324 322 321 322 321 322 322 321 321 321 319 319 320 317 315 315 317
306 310 312 314 315 315 316 317 321 322 323 322 319 319 320 322 322 322 322 322 323 324 326 329 330 328 326 323 321 322 322 322 322 322 321 321 320 320 318 319 316 315 316 317
308 307 308 309 313 314 317 318 321 322 323 323 319 320 321 322 322 321 322 322 323 324 326 328 329 329 326 324 322 320 321 325 323 322 322 321 320 322 320 319 316 316 317 317
311 310 311 311 312 312 316 319 319 320 319 323 322 322 322 322 322 322 322 321 322 322 325 327 329 329 327 325 324 318 320 322 322 322 322 322 321 321 321 319 318 317 319 319
313 313 312 312 313 314 314 316 318 319 320 321 321 322 322 322 322 322 323 324 323 322 324 327 328 329 328 326 324 320 319 321 323 321 321 321 321 321 322 322 320 319 320 320
315 314 315 315 314 314 315 317 317 318 319 321 321 322 322 322 322 323 323 322 322 322 324 326 327 328 328 327 325 323 319 323 323 323 323 322 322 321 321 321 321 320 320 321
316 318 315 314 315 315 315 316 317 320 318 321 321 322 322 322 323 323 323 322 320 323 324 326 327 327 327 328 326 324 323 322 323 323 323 322 322 321 321 321 321 319 318 319
312 317 318 315 315 315 315 315 316 317 319 321 326 322 321 321 322 321 323 322 322 320 323 326 327 327 327 327 327 326 324 322 322 322 321 321 320 320 320 320 320 319 318 317
309 311 315 319 318 318 318 317 316 317 321 319 320 319 321 321 321 321 322 322 321 321 322 325 327 327 327 327 327 326 325 324 323 321 320 317 316 317 319 320 321 320 320 320
311 311 310 311 313 314 315 317 318 318 318 321 319 319 319 319 321 321 321 320 320 320 320 322 326 327 327 327 327 326 326 324 324 322 321 320 317 316 315 316 317 319 318 319
309 313 313 314 313 314 316 316 317 318 318 318 318 319 320 320 320 320 320 320 320 320 320 320 321 325 327 327 327 326 325 325 325 324 323 322 321 319 320 317 318 319 319 319
309 310 311 313 314 315 316 317 319 318 318 318 319 319 319 319 319 320 319 320 320 320 319 319 319 321 325 324 321 324 324 324 324 325 324 324 323 322 320 320 320 321 321 319
308 310 312 312 314 317 316 316 319 319 318 317 317 318 318 319 318 319 320 319 318 318 317 319 317 319 320 324 322 323 323 322 323 323 323 323 323 323 322 321 321 321 320 320
308 309 311 311 316 315 315 313 317 321 319 318 318 318 319 318 318 319 318 319 319 318 317 318 318 316 318 321 322 321 323 322 322 323 323 323 323 322 322 323 323 322 322 322
308 309 311 312 316 314 314 313 315 316 322 320 320 321 320 320 321 321 319 320 321 319 318 318 318 316 316 317 318 320 322 324 323 323 323 323 323 323 323 323 322 322 323 323
310 309 311 311 315 315 316 316 316 322 322 318 319 320 320 321 321 319 318 320 319 319 319 318 317 316 317 317 317 320 321 323 322 322 322 323 323 323 323 323 323 322 321 320
311 310 312 311 315 315 314 315 317 317 318 318 319 319 320 320 318 318 319 318 318 319 319 317 316 317 316 319 320 320 320 320 321 321 322 323 323 323 322 321 321 319 318 317
308 314 315 315 313 312 310 313 314 313 315 315 317 319 319 318 318 318 319 318 318 319 319 316 315 316 317 317 317 318 319 320 321 322 321 321 321 320 318 318 317 316 314 311
309 310 312 311 312 311 310 312 310 311 312 314 315 315 317 318 318 318 317 316 317 318 320 316 315 316 316 317 318 319 319 320 320 319 318 316 316 314 313 312 310 309 308 307
309 309 309 310 310 311 310 311 309 309 309 310 313 316 317 317 317 317 315 313 314 317 319 317 313 314 315 314 315 317 317 316 316 314 312 310 310 309 307 306 305 304 303 303
309 310 311 312 309 309 311 308 307 307 306 305 307 314 312 315 313 310 309 312 315 315 316 319 316 313 313 313 314 313 314 314 314 313 310 308 307 305 303 302 300 298 297 296

GFSCGP_850_thetae_087.txt.gz
Theta_e
309 309 313 315 315 316 318 319 321 323 323 322 322 322 322 322 320 321 322 323 325 328 328 329 330 328 328 327 327 324 324 324 322 323 322 320 318 315 314 315 314 312 313 315
313 311 314 316 316 316 317 319 320 321 322 322 321 322 322 322 322 320 321 323 325 327 328 330 330 328 328 327 326 324 324 323 321 323 321 318 316 314 313 313 312 313 312 314
316 316 315 315 315 316 317 319 321 321 322 322 321 322 322 323 322 321 319 322 323 326 329 330 331 328 327 327 326 324 323 322 323 322 322 320 316 314 314 314 313 312 312 313
316 315 316 316 316 316 318 319 319 319 321 321 322 323 323 324 322 322 321 322 323 324 328 330 331 329 328 328 326 322 323 323 322 322 322 320 317 315 314 314 309 312 312 313
315 315 316 316 317 315 318 318 318 319 320 320 321 322 323 324 323 322 323 323 324 324 327 330 332 330 330 329 325 323 323 323 322 322 322 321 317 314 313 313 311 314 313 312
315 316 316 316 316 317 317 317 318 319 320 322 322 324 325 324 323 324 324 322 322 324 326 329 331 331 330 329 326 323 323 323 322 322 321 321 321 316 315 314 314 315 315 314
311 311 315 315 316 316 316 318 321 323 324 324 323 323 324 324 324 324 323 323 322 323 325 328 332 331 330 329 326 323 322 323 323 323 321 321 321 319 316 315 315 315 314 316
309 309 309 313 315 316 317 318 321 323 326 326 325 324 323 322 323 322 322 323 323 324 325 327 331 331 330 329 325 324 323 322 322 323 322 321 321 320 318 321 317 315 315 316
313 313 312 309 311 313 316 318 318 320 322 324 325 324 324 323 323 324 323 322 323 323 324 327 329 332 331 330 327 324 325 322 323 322 322 322 321 321 319 318 319 317 316 316
315 315 314 312 312 311 311 313 316 318 320 323 322 322 323 323 324 324 323 324 323 322 323 326 328 331 331 329 328 326 323 323 322 323 322 322 322 322 321 320 318 318 317 316
317 316 316 314 314 314 313 314 315 317 319 320 322 322 323 324 323 323 324 324 324 324 323 325 328 330 331 330 329 326 325 324 325 323 323 323 322 322 322 322 321 320 318 317
317 319 317 315 316 315 316 316 315 318 319 319 321 321 322 323 323 324 323 324 323 325 325 325 328 329 331 330 329 327 325 324 325 325 323 323 323 322 323 323 322 321 320 319
311 317 318 317 315 315 316 317 317 318 318 320 325 322 322 321 324 323 322 323 323 323 326 327 328 329 330 330 330 328 326 325 325 326 325 324 323 324 323 323 322 323 322 321
308 310 313 317 318 318 317 316 317 317 321 319 320 320 321 322 322 322 322 323 323 322 323 326 328 328 329 330 330 329 328 327 325 325 325 325 325 324 324 324 323 323 323 322
310 311 311 311 311 312 315 316 317 317 318 319 319 319 319 319 320 322 321 322 322 321 321 323 326 328 328 329 330 330 329 328 327 326 325 325 324 325 325 325 324 324 323 323
311 313 312 313 312 313 313 314 315 316 317 318 318 319 319 320 320 321 319 320 321 321 321 322 322 326 328 328 329 330 329 328 328 326 326 325 325 325 325 324 324 324 323 323
311 311 312 313 311 315 316 314 315 317 319 319 319 318 319 319 321 321 320 320 320 321 321 321 321 321 324 328 329 329 329 329 328 327 327 326 325 325 324 324 324 324 323 322
310 310 311 313 311 312 312 317 317 318 318 321 320 319 318 319 319 320 319 320 321 321 321 321 320 320 321 322 328 329 329 328 328 327 327 326 326 325 324 324 323 322 322 321
308 310 313 313 313 312 311 315 314 316 316 320 323 318 318 317 318 319 319 320 321 321 322 322 321 321 319 320 322 327 328 328 328 328 327 327 326 325 325 324 323 323 323 323
310 310 312 312 312 314 317 315 315 316 321 318 321 323 321 321 323 322 322 322 322 322 322 322 322 320 319 319 320 324 327 328 327 327 326 326 326 325 325 325 324 324 324 323
312 312 312 312 311 313 316 316 316 320 320 314 316 321 321 322 321 320 321 321 322 321 320 321 321 321 321 321 320 320 324 326 327 326 326 325 325 325 325 324 323 323 322 320
312 312 313 312 311 313 314 316 318 316 315 315 317 316 317 317 319 319 320 321 321 320 319 319 320 318 318 320 320 323 323 325 325 325 325 324 323 323 323 321 320 319 319 319
313 312 313 311 312 314 312 315 312 312 313 314 315 317 317 317 318 319 321 320 319 316 315 316 319 317 317 318 320 322 322 321 322 323 322 321 320 319 319 319 318 317 315 316
310 312 313 313 313 313 311 312 311 310 310 310 311 317 317 318 318 319 320 319 315 312 312 315 316 317 315 316 316 317 317 317 317 318 317 317 315 314 313 312 315 312 308 308
311 311 311 310 313 312 311 310 309 309 309 307 308 314 313 318 319 319 316 310 307 311 310 309 310 317 312 310 310 310 311 315 316 315 313 312 310 310 309 307 305 304 306 304
311 311 313 315 310 310 310 309 306 306 307 305 305 307 308 310 310 307 301 302 304 305 305 305 303 305 306 306 306 306 308 310 312 310 308 307 307 305 304 303 301 298 296 296

GFSCGP_850_thetae_090.txt.gz
Theta_e
309 310 310 311 314 316 318 319 320 321 322 322 324 324 323 323 323 323 323 323 323 324 328 330 330 330 329 329 328 325 325 323 324 323 323 323 323 323 323 323 323 322 323 321
314 311 311 311 313 316 316 317 318 319 321 321 322 323 322 322 323 323 322 321 323 323 327 330 331 330 329 329 327 323 323 323 323 323 323 322 321 320 320 318 318 320 318 315
317 316 313 313 311 313 317 318 318 319 321 321 322 322 322 322 322 323 323 322 321 324 327 330 331 331 330 329 327 324 323 323 322 322 321 321 319 319 320 320 320 320 317 315
317 316 315 316 316 313 317 318 318 319 320 323 321 323 324 323 324 325 324 323 322 322 326 329 331 331 329 329 326 324 323 322 322 322 321 320 318 316 315 316 316 314 313 314
315 315 314 316 315 317 316 317 318 320 321 321 320 322 321 322 323 324 324 323 321 323 323 330 331 332 330 329 326 324 325 322 323 322 320 317 315 315 315 314 313 313 313 315
314 314 315 315 316 316 317 317 318 319 320 323 321 322 322 322 324 325 324 323 324 324 324 329 331 332 331 329 327 324 322 322 322 322 321 318 317 317 315 312 313 313 312 313
310 312 314 316 316 316 316 318 320 321 323 324 321 322 323 323 324 325 325 324 323 324 324 327 333 332 331 331 328 324 323 323 322 321 321 321 320 318 317 313 311 310 312 312
312 311 312 314 315 316 316 318 319 320 327 328 324 326 323 324 324 323 323 323 323 323 325 327 332 332 331 331 328 325 324 324 322 321 321 320 321 319 317 314 312 311 312 311
315 313 313 311 312 315 317 317 317 319 320 323 323 325 325 324 323 324 324 323 323 324 325 326 331 332 331 331 329 326 324 322 322 320 321 321 321 321 318 314 313 311 312 312
315 316 315 312 310 312 314 317 318 319 319 318 318 321 324 325 325 324 324 324 323 323 324 325 328 333 331 331 329 326 323 322 323 323 321 321 321 321 321 318 313 313 312 313
318 316 315 314 310 311 311 311 312 313 316 318 321 323 324 325 324 325 325 325 324 324 324 325 327 333 332 331 330 327 324 323 324 322 322 322 321 322 321 320 318 316 314 315
315 318 318 315 315 314 314 312 311 314 316 320 320 320 320 321 323 324 324 324 324 324 325 325 327 333 332 331 330 328 325 323 322 324 322 322 321 322 322 321 320 320 320 316
310 315 317 316 315 315 316 316 315 315 316 318 321 322 320 323 322 324 323 324 324 324 327 326 327 331 333 332 330 329 327 324 325 323 323 324 323 323 323 323 322 321 320 318
308 310 312 315 317 315 316 318 316 317 319 319 319 318 319 320 321 321 322 323 323 323 324 327 327 329 332 332 331 330 328 326 325 326 325 322 323 323 322 323 323 323 323 321
310 310 310 310 310 310 311 312 316 318 317 318 318 318 319 319 320 320 321 321 322 322 322 324 327 328 330 332 331 331 329 327 326 326 327 326 323 323 322 322 323 324 325 323
312 314 312 312 312 312 312 312 312 315 316 316 316 317 318 318 318 319 321 321 320 321 321 322 322 326 328 330 331 331 330 329 326 326 327 327 327 326 325 324 324 323 323 324
311 312 313 313 312 312 314 314 313 312 314 315 318 320 319 319 319 319 320 321 321 321 321 321 321 322 324 328 329 331 331 330 329 327 327 327 326 327 326 326 326 325 324 323
310 311 312 313 313 313 312 312 317 316 317 317 317 317 319 323 319 318 320 320 320 322 322 322 322 322 321 322 328 329 330 331 330 329 327 327 327 327 326 326 326 326 325 324
310 310 312 313 313 312 312 312 314 316 316 317 319 319 321 323 319 318 321 321 322 323 323 323 322 322 320 320 321 327 329 330 330 329 328 328 327 326 326 326 326 326 325 325
310 310 312 313 312 312 315 317 316 316 318 317 315 316 318 320 324 325 323 323 323 322 322 322 323 322 322 322 320 321 327 329 329 330 329 328 328 327 326 325 325 325 324 325
312 312 312 313 312 312 313 314 314 319 318 315 316 315 317 318 317 318 320 321 322 322 321 320 320 319 319 320 322 321 323 328 328 328 329 328 328 327 327 326 325 325 324 323
312 313 313 313 312 312 315 315 317 315 314 314 314 313 315 317 318 317 318 321 320 318 317 316 316 317 317 317 321 323 323 326 327 327 327 327 327 327 326 326 325 324 323 322
314 312 314 311 312 314 311 313 311 311 311 310 310 311 316 317 318 319 318 318 313 311 312 314 314 313 314 314 317 321 319 320 322 326 326 326 325 324 323 325 324 323 320 319
312 312 314 311 312 314 312 311 309 309 309 307 308 309 311 314 316 315 312 309 306 310 312 313 313 312 310 309 311 314 315 316 318 321 321 322 324 321 320 322 319 317 317 313
312 312 313 313 312 312 310 309 307 307 307 307 306 307 308 309 309 305 303 302 304 306 309 310 310 307 305 306 306 306 307 306 313 313 314 315 315 313 311 309 308 306 304 303
308 309 312 313 307 309 308 304 304 305 305 305 305 304 305 303 301 299 299 301 300 302 304 306 304 305 307 309 308 306 305 303 304 303 299 298 300 300 298 296 295 294 295 295

GFSCGP_850_thetae_093.txt.gz
Theta_e
308 306 306 307 309 312 314 315 316 316 316 317 318 318 318 319 319 318 320 321 321 321 325 328 329 331 331 330 329 329 327 325 323 322 322 323 323 322 323 323 324 325 326 327
308 307 308 308 308 309 311 313 313 314 315 317 316 318 318 319 318 320 320 320 321 322 326 329 330 331 331 330 329 328 326 323 322 322 323 321 322 323 324 324 325 325 326 326
311 314 311 309 309 308 308 310 313 315 316 317 318 319 319 319 319 321 321 321 322 322 326 330 330 331 330 329 329 328 325 322 322 322 323 322 322 322 322 321 322 322 323 325
315 315 316 313 310 310 309 309 311 315 318 319 319 323 320 320 319 321 320 320 321 321 326 330 330 330 330 330 329 328 324 323 321 321 322 322 322 320 319 320 319 319 321 321
313 314 314 314 313 313 313 311 312 318 318 319 320 322 320 318 320 320 319 320 321 322 328 330 330 330 330 330 329 328 323 321 321 320 321 321 321 320 319 320 320 320 320 318
310 311 311 312 313 314 315 316 317 318 319 322 320 321 320 319 320 321 320 321 322 322 328 329 330 330 330 330 329 327 323 321 321 321 322 321 321 321 320 319 320 319 319 318
308 308 309 311 311 314 315 315 317 320 320 320 318 321 320 319 320 320 320 321 321 322 328 330 331 331 331 330 328 326 323 321 321 321 322 321 319 318 318 318 317 316 315 315
307 308 308 309 310 314 315 316 318 321 323 326 320 326 324 322 321 321 321 321 322 322 328 330 330 331 331 330 329 327 324 321 321 321 321 320 317 316 317 317 315 313 314 315
312 312 314 309 310 314 315 315 316 318 318 322 320 319 319 322 323 322 320 322 323 323 329 331 331 331 331 331 330 328 326 321 321 321 321 319 318 317 317 316 314 312 312 313
314 316 316 314 311 312 313 315 317 317 318 317 316 316 321 320 323 322 321 319 322 324 328 331 331 332 332 331 330 330 328 319 321 320 320 321 320 319 319 317 313 312 312 311
316 317 316 315 309 309 311 313 315 314 316 317 318 319 321 322 321 322 322 322 323 323 324 329 331 332 332 331 331 330 328 321 323 322 320 320 320 320 320 319 318 314 311 310
310 316 317 317 316 314 310 310 310 311 312 314 316 316 320 318 321 321 322 322 323 323 324 326 332 332 331 331 331 330 329 325 320 321 321 320 321 320 319 319 319 319 315 312
309 312 316 314 315 316 317 313 312 311 311 312 315 316 316 316 321 321 321 322 322 325 324 326 332 332 332 331 331 330 330 327 321 321 322 321 320 320 321 320 320 320 318 315
308 310 311 313 313 312 312 312 313 316 316 313 313 313 314 316 320 322 321 320 319 322 322 328 332 332 332 331 331 330 330 328 324 321 323 322 322 322 320 321 321 321 321 320
310 309 310 310 310 310 310 310 310 311 318 319 317 317 316 316 316 317 318 319 319 322 322 323 329 332 332 331 331 331 330 329 327 322 322 321 323 323 322 322 322 322 321 321
312 313 313 313 312 312 312 312 311 311 311 313 314 314 317 317 318 320 321 320 318 321 320 322 324 329 332 332 331 331 331 330 329 326 324 324 322 322 325 323 322 323 323 322
310 312 311 313 312 312 312 312 311 312 312 312 313 318 319 320 321 320 320 321 320 321 323 322 322 322 323 330 331 331 331 330 330 328 326 325 326 325 323 322 323 323 323 324
309 310 310 312 311 311 312 311 312 317 317 317 318 318 317 317 317 320 320 321 322 323 323 322 322 321 321 321 323 329 331 331 330 329 328 325 326 327 326 325 323 322 322 322
308 309 308 310 311 311 311 316 317 317 318 315 315 314 315 316 317 321 318 321 321 321 322 322 322 320 319 318 320 320 327 331 331 330 329 327 325 327 327 327 326 326 324 324
308 308 308 308 312 310 315 314 314 315 318 315 315 315 314 314 319 317 317 319 317 319 319 320 320 319 319 319 319 320 320 324 330 330 330 329 327 326 326 327 327 327 327 326
309 309 309 309 311 311 314 313 314 319 315 312 313 313 314 314 316 317 318 317 318 317 316 317 317 318 318 318 318 320 321 322 326 329 328 329 328 327 327 327 327 326 326 326
310 311 309 308 311 310 311 313 315 310 310 308 309 310 314 314 316 319 315 314 314 314 314 314 314 315 315 316 317 318 319 319 322 325 329 328 328 328 327 327 326 326 326 326
311 310 308 309 309 310 311 309 309 308 307 307 307 308 309 309 311 312 305 305 308 308 309 310 310 311 312 313 313 313 313 315 318 320 321 321 323 324 324 327 326 325 323 323
311 311 312 310 312 312 309 308 307 306 306 305 305 306 306 304 302 304 303 303 304 306 306 306 309 310 310 309 309 310 312 312 314 318 317 315 314 314 316 318 320 320 319 311
310 309 312 312 311 308 305 304 304 304 305 304 303 302 302 301 299 299 298 298 300 300 303 307 309 308 308 307 306 305 307 310 310 311 310 307 306 305 305 305 304 307 304 303
306 305 307 307 301 306 303 301 302 302 303 303 302 300 298 298 297 296 297 297 296 296 301 302 302 303 305 305 304 303 303 305 309 308 306 302 298 296 294 294 291 293 295 295

GFSCGP_850_thetae_096.txt.gz
Theta_e
307 305 305 308 311 314 314 314 314 314 314 314 313 313 313 315 317 317 318 317 318 320 320 319 323 327 329 330 330 330 329 328 326 320 325 323 324 326 327 328 327 328 328 327
306 306 306 307 307 308 309 310 311 312 311 312 312 314 315 315 316 317 318 318 318 319 320 326 329 329 329 329 330 329 329 328 326 320 322 322 323 324 324 326 326 327 328 327
307 309 308 307 307 307 307 307 308 309 311 313 316 316 315 316 317 318 319 319 318 321 321 329 330 329 329 330 329 329 328 327 324 319 322 322 324 322 322 322 322 324 327 327
313 311 308 311 308 307 307 308 307 307 308 310 316 317 315 316 317 317 318 319 319 319 320 326 330 330 329 330 329 329 328 327 323 319 322 321 321 322 321 321 322 324 324 326
310 314 314 315 315 309 309 309 309 308 313 317 319 318 315 318 318 318 318 319 319 320 319 325 330 329 330 329 329 329 328 327 320 319 322 321 320 321 321 321 320 323 324 325
307 309 308 311 311 312 312 312 314 315 316 318 319 318 316 317 317 318 318 319 320 319 319 324 328 330 330 329 329 328 327 326 319 320 323 320 319 320 320 319 319 319 320 319
307 308 308 308 308 309 312 313 314 316 318 318 317 319 317 317 317 318 318 319 320 321 320 326 328 329 329 329 329 328 327 324 319 321 322 320 320 320 320 319 319 319 319 320
306 307 307 307 308 309 311 312 314 318 319 318 320 321 322 320 319 319 320 321 322 321 321 327 328 329 329 329 329 328 326 322 318 320 321 320 320 320 320 319 320 321 321 321
307 307 308 308 309 309 311 314 313 316 317 317 318 318 316 318 320 321 322 320 319 321 323 328 328 329 329 329 329 329 326 322 318 320 321 321 321 320 321 320 320 320 320 320
312 313 314 314 307 308 312 312 315 314 317 318 316 314 316 319 321 323 322 322 321 324 329 329 329 329 329 329 330 328 326 323 319 319 321 320 320 319 320 318 318 317 317 317
314 315 314 314 309 308 310 310 314 315 316 317 316 316 321 321 321 320 320 320 321 320 329 329 329 329 329 330 330 329 327 326 322 318 321 321 320 319 317 317 317 316 315 315
310 315 317 315 315 314 313 311 313 316 316 315 315 317 319 319 321 319 318 320 322 321 320 330 329 329 329 330 330 329 328 327 325 318 319 320 320 319 318 318 318 317 315 313
309 311 315 314 316 314 315 314 312 315 310 311 312 314 315 317 318 319 320 320 320 320 319 322 330 330 330 330 330 329 329 327 326 320 318 320 320 320 319 319 319 318 317 313
308 309 310 312 311 311 314 313 311 312 316 314 313 313 315 318 317 319 318 319 319 318 320 325 330 330 330 330 330 330 330 329 327 324 318 321 320 320 319 320 320 319 319 318
310 308 311 312 310 310 310 311 311 311 311 315 318 318 318 318 319 320 320 320 319 319 320 320 330 330 330 330 330 330 330 330 328 326 321 318 322 320 320 320 319 319 319 319
311 311 311 312 311 311 312 312 311 311 311 311 314 315 318 318 318 319 321 321 319 321 322 322 329 330 330 330 330 330 330 330 329 328 325 321 318 323 321 320 320 319 320 320
309 310 309 312 311 311 311 311 311 311 317 317 315 319 316 317 318 318 320 321 322 321 320 321 320 323 328 329 329 329 329 328 328 328 327 325 320 319 320 321 320 320 319 320
308 309 308 311 308 309 311 313 316 317 316 315 315 314 315 314 317 318 318 318 317 318 317 318 319 320 320 322 326 328 329 328 329 328 327 326 325 322 321 320 321 321 321 320
307 307 308 309 308 309 311 314 316 316 316 315 314 315 314 314 317 316 318 315 314 315 314 314 315 316 317 318 320 321 326 329 328 328 327 326 326 326 325 324 323 322 322 323
307 307 307 308 311 311 314 314 312 314 318 311 312 312 314 314 316 315 317 314 311 311 315 316 316 316 316 316 317 319 320 324 327 326 326 325 325 326 326 325 326 326 324 323
307 307 308 308 309 310 313 313 312 312 313 308 309 311 313 313 309 308 308 307 307 306 311 313 315 316 316 317 317 316 318 319 320 323 325 326 326 325 326 326 326 327 326 325
310 309 309 308 309 310 310 311 312 309 308 307 307 308 310 309 309 309 305 307 304 306 309 311 312 312 313 314 313 313 314 315 315 319 319 322 326 326 325 326 326 326 327 326
311 309 308 308 308 310 308 307 307 307 305 305 306 306 306 304 303 301 307 305 306 305 306 307 307 308 311 312 312 312 312 312 314 316 317 318 317 320 323 323 324 325 324 324
311 310 310 310 311 309 306 305 305 305 304 304 304 303 302 301 298 297 298 303 307 304 303 305 306 308 308 307 307 305 305 307 309 313 315 314 315 315 314 312 311 309 310 313
307 307 308 310 305 304 302 302 302 303 303 302 300 300 299 299 297 296 295 296 298 301 302 303 305 305 303 303 306 306 304 305 307 307 305 309 312 311 309 306 301 300 297 294
304 304 305 304 299 303 301 299 300 301 300 299 298 297 296 297 295 295 295 295 296 297 298 300 301 301 301 301 304 303 304 305 305 303 301 297 296 299 303 303 299 296 294 294

GFSCGP_850_thetae_099.txt.gz
Theta_e
306 304 306 306 310 312 313 314 314 313 313 311 312 312 311 311 312 314 316 316 318 318 319 320 319 317 318 321 325 329 330 329 328 326 322 320 323 326 326 326 327 327 328 327
305 305 305 307 309 309 309 311 311 310 311 311 311 311 310 311 313 315 316 317 318 318 318 319 318 318 319 321 327 330 330 329 328 326 323 318 318 323 324 325 328 327 327 327
307 307 306 306 306 307 306 307 307 309 308 307 310 310 312 313 313 315 316 316 317 317 318 319 319 321 321 324 327 329 329 329 328 325 321 318 321 323 324 326 327 325 326 327
309 307 307 306 306 306 305 306 307 306 306 305 311 309 309 312 313 314 316 316 316 316 317 319 320 324 324 325 329 329 329 328 327 325 321 319 321 321 322 322 325 326 325 326
310 312 309 307 308 306 306 308 307 307 305 307 310 316 311 315 315 314 314 316 317 318 318 318 319 323 326 328 329 329 329 328 327 325 320 319 322 321 322 321 323 322 323 324
306 307 307 311 311 312 311 309 310 309 308 313 311 316 313 312 315 315 316 317 320 318 318 318 320 325 328 328 329 329 328 328 327 325 319 319 321 320 320 319 320 321 322 323
305 305 306 307 307 307 310 311 313 315 318 316 316 317 315 314 316 315 318 321 321 320 319 319 321 324 327 329 329 329 328 328 327 324 318 320 321 321 320 319 319 319 320 322
306 307 305 305 307 307 307 309 312 316 316 315 315 318 315 318 317 319 319 320 320 320 320 320 320 322 325 328 329 329 328 328 327 322 318 320 320 320 321 319 319 319 320 321
306 306 306 306 306 307 308 311 310 313 314 316 316 316 313 317 319 319 319 318 318 318 320 322 321 322 325 327 329 329 328 328 326 320 318 321 320 320 320 319 319 319 319 319
307 309 311 313 306 306 308 310 312 312 316 317 314 315 314 320 321 319 318 317 318 319 320 325 325 325 325 327 329 328 328 328 326 319 318 320 320 321 321 321 319 320 320 319
309 312 310 313 309 307 308 310 312 312 313 316 315 313 318 320 318 320 319 317 318 319 319 327 327 326 325 327 329 328 328 328 325 319 318 320 321 321 321 321 320 320 320 321
309 312 311 310 314 313 308 310 312 313 314 313 313 315 317 316 319 320 319 318 318 319 318 318 328 327 326 326 328 328 328 327 325 320 318 320 320 320 320 320 320 319 318 318
309 311 313 313 315 312 315 314 310 313 310 312 314 315 314 315 317 319 318 317 317 319 321 320 324 328 328 327 326 328 329 328 325 323 319 319 320 321 320 319 319 317 317 317
309 310 311 312 310 312 312 313 312 311 314 313 313 315 316 318 318 319 319 317 317 319 321 321 323 328 328 328 327 328 329 328 326 325 322 318 319 320 320 320 318 318 318 318
311 310 311 312 311 309 310 311 312 310 311 312 314 315 318 318 318 318 319 320 319 317 320 320 327 328 328 327 327 326 326 327 326 325 324 320 318 319 320 320 319 319 318 318
311 311 311 311 309 309 311 311 310 310 311 312 311 313 316 317 317 319 320 321 319 317 320 316 319 327 327 328 328 327 326 326 327 326 324 322 319 319 319 319 319 319 319 319
308 310 308 310 309 308 311 310 310 315 315 317 317 316 315 316 318 318 318 317 317 315 316 316 315 317 323 326 326 326 327 326 326 326 326 325 323 320 318 319 319 319 319 319
307 308 306 309 307 306 311 315 314 316 315 314 315 314 314 313 317 317 313 312 311 312 310 312 314 316 318 319 324 326 327 327 328 327 325 325 324 323 320 320 319 318 319 319
307 307 306 306 307 307 314 313 315 315 313 311 312 313 314 313 315 310 307 308 307 307 307 310 311 315 316 317 318 320 324 326 325 324 324 324 326 325 324 322 320 320 318 318
306 305 305 305 309 307 312 313 311 313 316 309 309 312 311 311 313 310 307 308 305 305 305 308 310 311 314 316 315 318 320 324 324 324 323 324 324 324 325 325 324 322 321 321
306 306 307 307 306 308 311 311 310 312 311 308 308 310 312 311 309 306 304 308 306 305 305 304 305 308 311 313 314 315 315 316 316 318 320 321 322 323 323 324 325 325 323 323
309 309 308 308 307 308 308 310 309 307 308 306 306 307 307 306 304 303 300 301 305 304 305 299 299 302 304 306 309 312 313 313 314 315 316 317 318 321 323 324 323 323 323 324
311 309 307 307 307 308 306 306 307 306 304 304 304 303 303 301 300 300 300 297 300 302 306 301 299 300 301 303 305 306 307 310 312 312 313 314 314 316 317 319 322 322 322 320
305 308 311 309 309 306 304 303 304 304 303 301 301 300 299 297 297 297 297 297 297 299 302 303 303 303 302 303 304 304 306 307 307 308 308 308 309 308 308 310 310 312 314 312
305 305 306 307 303 303 300 300 301 301 300 300 299 298 297 296 295 295 297 297 297 297 298 299 303 302 301 300 302 303 304 303 303 304 303 303 302 301 301 301 301 301 301 302
301 302 304 301 299 301 299 298 300 300 297 296 297 295 295 296 294 294 294 294 295 296 297 298 299 300 300 299 299 301 302 302 302 303 300 299 298 296 296 297 296 294 293 293

GFSCGP_850_thetae_102.txt.gz
Theta_e
305 305 304 305 309 311 311 312 313 312 312 312 311 311 309 310 310 309 311 313 315 316 316 317 317 318 319 317 317 321 327 328 329 330 329 326 324 325 324 324 324 327 328 327
304 305 304 305 307 310 310 311 311 310 310 311 311 312 309 307 307 310 312 314 316 316 316 316 316 317 318 318 318 320 325 328 329 330 329 327 324 325 323 324 324 325 326 325
306 307 306 305 306 308 307 309 308 310 307 305 306 307 306 307 309 313 315 315 315 316 317 319 318 317 318 319 318 318 324 328 329 330 328 326 322 321 321 323 323 324 324 324
307 308 306 305 306 306 307 305 307 306 305 304 307 306 308 308 309 311 312 315 315 317 321 320 319 317 318 320 320 318 326 328 330 329 328 326 322 319 319 321 323 324 324 325
310 311 308 308 305 304 305 305 305 305 304 304 310 306 307 310 311 311 311 313 318 321 319 320 318 318 318 321 321 321 326 330 330 329 328 326 321 318 320 321 323 323 326 324
306 306 308 308 307 305 308 308 307 307 305 308 307 307 309 310 312 314 314 318 320 318 318 319 320 317 318 321 322 324 328 330 329 328 327 325 320 318 320 321 321 321 322 324
303 304 306 307 307 307 308 308 312 314 314 313 309 310 311 312 313 317 318 318 317 317 317 318 319 320 319 321 322 326 329 329 328 327 326 324 319 319 321 320 320 320 321 322
305 306 304 305 306 306 306 307 311 315 315 313 314 315 314 315 317 317 317 316 316 317 317 318 318 321 320 322 323 326 328 329 328 327 326 322 318 320 320 320 319 319 319 320
305 305 305 305 305 306 307 308 308 310 311 314 312 313 312 317 318 317 317 316 316 316 316 317 319 324 321 321 323 324 327 328 328 327 326 320 318 320 319 319 319 319 320 319
307 307 309 311 305 305 306 307 311 310 315 314 312 313 313 316 317 318 317 316 316 316 316 317 318 322 324 324 324 324 326 328 328 327 325 319 318 320 320 320 320 320 319 319
309 309 308 308 309 307 307 307 310 310 311 313 313 311 311 316 316 318 318 317 316 316 315 316 320 321 325 324 323 323 324 327 328 327 325 317 320 320 320 320 320 320 319 319
309 310 312 309 310 313 307 309 308 310 312 312 312 312 318 314 316 317 318 316 315 315 315 318 320 322 326 325 324 325 324 326 327 327 324 316 320 320 320 320 320 320 321 320
309 310 314 312 312 311 313 313 310 311 309 312 313 312 312 313 314 317 318 317 316 315 316 319 322 323 326 326 325 324 324 324 325 326 323 317 319 320 321 320 320 320 320 320
309 309 309 312 310 308 312 312 312 311 312 311 310 313 314 316 316 316 318 318 319 315 317 318 318 325 326 325 324 325 325 324 325 324 322 318 318 320 320 320 320 320 319 318
310 308 309 310 311 310 311 311 311 311 310 311 311 312 316 316 316 317 318 318 318 317 316 313 316 318 323 324 325 323 325 325 325 325 323 321 318 318 320 320 319 319 319 317
308 310 310 310 311 309 310 311 311 311 312 311 310 312 315 315 317 317 317 317 316 314 312 310 310 316 319 320 323 325 326 326 324 325 323 324 321 319 319 319 319 319 318 317
308 309 308 309 310 308 310 309 311 314 314 315 314 315 314 315 317 314 313 313 311 310 309 307 306 311 314 318 322 322 324 325 325 324 323 323 323 321 319 319 319 319 318 318
307 307 306 310 307 305 312 313 313 314 313 314 313 313 313 313 310 309 308 308 306 305 305 305 305 307 309 314 320 322 323 324 325 325 324 324 324 323 322 320 319 318 317 318
306 306 306 308 308 306 313 313 314 315 314 311 311 313 310 312 313 310 306 304 303 303 303 304 304 306 309 313 316 316 322 322 323 323 322 323 322 322 323 322 321 319 319 318
306 305 306 307 309 306 309 312 310 312 315 309 309 312 310 309 312 310 304 301 300 302 303 303 303 304 307 306 308 317 319 319 320 321 321 321 322 322 322 321 322 321 320 320
306 306 307 307 308 307 308 309 310 311 308 307 308 309 310 310 307 304 301 299 300 300 301 302 302 301 303 305 306 311 312 314 314 315 317 319 320 321 322 321 321 321 323 322
307 307 307 307 308 307 305 308 308 305 305 305 303 303 303 303 302 300 298 298 298 300 299 301 303 301 303 305 306 306 308 307 309 311 312 313 315 316 318 320 321 321 321 321
309 308 308 307 306 305 302 303 304 304 302 300 300 299 300 299 298 296 295 295 296 298 298 300 301 300 300 301 303 304 304 307 308 309 310 311 311 312 314 315 316 316 318 319
307 303 307 309 306 304 302 301 300 300 298 298 298 297 297 297 296 294 294 294 294 296 297 298 299 301 300 300 301 301 300 302 304 306 307 306 307 307 307 307 307 307 306 307
304 303 304 305 303 301 299 299 299 299 297 296 296 296 295 295 295 294 292 292 292 293 293 296 299 299 299 300 301 302 302 301 300 301 301 302 301 301 302 302 300 300 299 300
299 299 302 302 297 299 297 296 297 298 296 295 294 293 293 293 292 293 292 292 292 291 292 293 294 296 298 299 299 300 299 299 299 298 298 298 298 296 294 294 292 290 292 293

GFSCGP_850_thetae_105.txt.gz
Theta_e
304 306 308 309 309 309 311 312 313 314 314 315 317 317 315 314 314 314 314 313 312 312 314 316 317 316 316 316 317 319 318 319 328 328 329 330 330 328 326 324 322 326 328 327
305 307 308 307 308 309 311 311 313 312 312 313 314 314 312 311 311 311 311 310 310 314 315 317 320 321 318 317 317 318 318 318 325 329 329 330 329 328 327 325 323 326 326 326
307 307 307 306 307 309 310 311 312 312 310 308 308 309 309 309 308 309 310 311 313 314 318 320 320 320 320 318 317 318 319 319 324 329 330 330 329 327 326 327 325 322 323 325
306 307 306 306 306 307 307 308 310 311 310 310 308 309 310 311 311 312 313 313 314 319 319 320 320 320 320 318 317 318 320 319 324 329 329 330 329 328 326 323 325 322 323 324
311 311 309 307 306 307 307 307 309 309 308 307 308 310 311 310 313 313 314 316 320 319 318 318 319 319 321 319 317 317 320 321 322 328 329 330 328 328 324 321 321 320 322 325
309 306 309 310 307 307 307 307 308 307 308 312 310 312 312 313 313 316 318 319 319 318 318 319 318 319 321 320 319 319 321 323 323 327 329 329 328 327 324 319 319 321 322 323
304 306 306 307 308 306 309 312 313 316 313 314 310 310 313 314 316 320 320 318 317 316 317 318 318 319 321 321 322 320 322 326 325 327 329 329 328 326 322 318 318 321 322 323
303 303 305 306 309 309 309 311 313 313 317 314 312 313 314 315 318 317 317 316 316 317 317 318 318 318 319 321 323 321 322 326 325 327 330 328 327 325 321 319 321 321 320 320
307 306 304 305 306 309 308 309 311 312 313 314 314 315 314 319 319 318 317 317 317 317 317 317 318 317 318 320 322 322 323 325 325 328 329 328 327 324 318 320 320 319 319 320
309 310 309 308 306 306 309 310 311 312 313 313 313 314 314 317 317 318 317 318 316 316 316 316 318 318 318 320 322 322 323 325 325 328 328 327 327 322 318 320 320 319 319 318
309 310 310 309 309 307 307 307 310 311 313 311 312 312 312 317 317 318 318 318 316 316 316 317 318 318 320 319 322 323 323 324 325 326 327 326 326 318 320 320 320 320 320 319
309 311 313 310 309 312 309 309 309 310 312 313 312 312 317 316 316 318 319 318 317 317 316 315 316 316 320 321 323 323 322 322 323 325 326 326 323 317 320 320 320 320 320 319
309 311 314 313 314 311 313 312 310 311 311 312 313 313 315 317 318 318 318 319 318 316 315 314 314 313 316 323 323 323 322 321 321 324 326 326 320 318 320 320 320 320 320 319
308 309 311 311 311 311 311 312 312 313 314 313 313 313 316 318 318 319 319 319 319 317 315 314 313 311 310 323 321 322 321 321 321 324 325 325 318 318 320 320 320 320 320 319
309 310 309 310 310 311 311 311 311 312 311 313 312 313 312 316 318 318 317 317 316 314 313 312 312 309 305 317 321 322 321 321 321 323 324 324 318 318 319 320 320 320 320 319
307 309 308 311 310 310 309 309 312 312 312 313 313 313 315 316 316 313 313 313 312 310 308 307 305 303 303 311 320 321 321 320 321 322 322 322 321 318 319 319 320 319 319 319
308 309 309 309 310 308 308 309 311 312 314 315 313 314 314 315 313 310 309 308 307 306 304 303 307 304 304 307 314 321 321 322 322 323 324 324 323 323 319 319 319 319 319 318
307 307 308 309 309 308 313 313 313 313 313 313 312 314 311 313 309 307 305 304 302 301 300 301 303 307 307 308 312 319 321 322 322 322 323 324 323 322 322 321 319 319 319 318
306 307 308 308 309 308 312 313 314 315 313 311 312 313 310 310 310 305 302 300 298 298 298 298 299 303 304 309 311 314 321 321 321 321 322 321 321 321 322 322 321 320 319 318
306 307 308 308 308 308 310 312 310 312 313 309 310 311 311 310 312 307 300 301 298 298 296 297 299 303 309 311 307 308 315 318 320 319 319 319 320 320 320 320 320 321 321 320
307 308 309 307 307 307 307 307 310 313 311 307 307 307 307 307 304 300 298 299 298 297 297 296 298 300 304 307 307 309 310 312 312 313 314 317 320 320 320 319 319 319 320 320
308 308 308 307 307 306 304 308 310 306 303 303 302 302 302 301 299 297 295 296 297 297 298 298 296 298 301 302 303 305 306 305 308 310 311 312 314 315 316 317 318 320 319 319
308 308 309 307 308 304 302 302 301 302 300 299 299 299 298 297 295 294 293 295 294 295 296 297 298 298 301 299 299 301 300 303 305 307 309 309 310 311 312 313 314 315 315 315
307 303 306 307 305 303 300 298 297 297 296 296 296 295 296 294 293 292 293 293 293 294 295 296 297 298 300 301 299 297 298 299 301 302 303 303 304 304 305 306 307 307 307 306
303 303 302 304 302 300 297 296 295 294 295 294 294 294 292 292 291 292 291 291 292 292 293 294 293 294 295 296 297 298 298 299 299 299 300 300 299 299 300 300 299 300 298 300
299 298 300 301 297 298 295 293 293 293 291 292 292 293 292 291 289 290 290 290 290 291 292 292 292 293 294 295 296 296 296 297 297 297 297 296 295 294 294 293 292 292 294 295

GFSCGP_850_thetae_108.txt.gz
Theta_e
303 306 308 310 312 313 314 313 313 314 316 317 318 319 320 320 319 319 319 319 319 319 318 317 318 320 320 318 317 317 318 320 326 328 328 328 326 329 329 329 328 325 323 324
306 307 308 309 310 311 310 311 312 311 315 316 316 317 318 318 318 317 316 316 316 316 314 317 320 322 322 321 323 319 319 323 327 325 325 328 327 329 330 330 328 325 322 322
307 308 307 308 309 310 311 311 310 310 312 313 314 314 314 315 314 313 313 313 313 314 317 320 322 322 323 323 323 323 325 327 329 329 327 330 328 329 330 330 328 327 324 324
308 309 308 308 309 309 311 311 310 311 313 312 312 312 313 313 314 315 315 315 316 319 321 321 322 322 323 324 323 323 326 328 329 329 328 330 329 329 330 329 328 328 325 324
310 308 309 310 310 309 310 309 309 310 311 311 311 310 312 314 314 315 317 317 321 322 322 322 322 322 322 323 326 324 326 328 327 329 329 331 330 330 329 328 327 325 328 324
311 312 310 310 309 309 309 309 309 309 310 310 311 310 313 315 316 317 319 321 322 322 321 321 321 321 321 322 324 327 327 327 323 325 331 329 331 331 328 327 326 322 328 325
309 311 311 312 310 309 309 311 315 315 314 313 314 313 314 315 317 318 320 320 320 319 319 319 320 320 321 321 323 326 327 326 323 326 331 329 331 329 328 327 325 321 324 321
308 309 310 311 312 311 310 312 312 314 316 315 314 314 314 315 318 320 319 319 318 319 319 319 318 319 320 321 322 324 327 325 325 324 329 329 326 329 327 326 324 319 320 321
308 307 308 309 310 311 311 312 313 314 314 315 315 316 317 319 320 320 319 318 318 318 318 319 319 320 321 320 322 324 326 325 324 322 327 327 328 327 326 325 321 320 322 321
311 309 307 307 307 309 310 311 312 313 312 312 311 313 314 319 319 319 318 318 319 319 320 319 319 318 318 318 320 323 325 324 323 324 326 326 328 325 325 323 318 320 320 320
313 312 312 310 309 308 307 311 311 312 313 311 311 314 316 316 317 318 318 318 319 320 320 318 317 316 314 317 322 324 324 323 323 323 326 327 326 324 323 320 320 320 320 319
312 314 313 312 313 311 308 308 310 311 312 313 312 313 317 318 318 318 319 320 320 320 319 317 315 313 312 316 322 323 322 322 324 322 324 325 325 323 322 319 320 321 320 320
310 314 312 312 314 314 314 313 311 312 313 314 316 317 318 319 319 319 320 320 320 319 318 316 314 312 310 315 320 323 322 321 322 323 322 325 326 324 320 320 321 321 320 320
310 312 313 312 313 313 314 314 314 314 315 314 314 314 317 317 318 319 319 318 316 315 314 312 311 310 309 313 313 317 322 322 322 322 322 324 324 323 319 320 321 321 320 320
310 312 312 312 312 313 313 313 313 313 314 314 313 314 315 317 318 317 314 313 313 311 310 308 306 306 307 311 311 318 321 321 322 321 321 323 323 320 320 320 320 320 320 320
309 311 310 311 311 312 312 312 312 313 313 314 314 314 316 316 314 312 311 310 309 307 306 305 303 305 304 309 307 314 320 320 320 320 321 323 323 319 319 319 320 320 320 320
308 310 310 310 310 310 311 311 312 313 314 315 315 316 314 314 311 308 308 307 304 303 302 302 299 302 303 307 304 308 320 320 320 321 322 321 320 318 319 319 320 320 320 319
308 309 309 310 309 310 314 314 313 312 314 314 313 314 313 312 307 304 303 302 301 299 298 298 298 300 303 305 303 303 320 320 320 320 320 321 322 322 320 318 319 319 319 320
307 308 309 309 309 308 309 314 314 314 314 313 313 313 313 310 307 303 300 298 297 297 297 297 296 299 301 304 305 302 314 319 320 320 320 320 320 321 321 322 321 319 318 318
308 307 309 308 309 309 314 311 311 314 315 311 311 310 311 311 314 305 299 297 298 297 298 298 298 298 298 302 304 300 308 314 315 316 317 318 319 321 320 320 321 320 321 320
309 310 311 309 308 307 309 308 309 315 313 307 307 307 306 306 302 299 297 296 296 296 298 299 298 298 299 299 304 302 306 308 307 313 314 316 317 319 319 319 320 320 320 320
308 309 309 309 309 308 305 310 312 307 305 304 303 303 303 301 298 296 293 294 295 296 298 299 299 298 299 302 302 299 304 305 307 300 308 312 314 314 316 317 318 319 319 319
309 308 309 310 311 304 302 301 302 304 303 302 301 300 299 298 295 293 291 292 293 294 296 297 297 299 300 301 302 301 301 304 304 304 307 309 309 311 312 313 314 315 313 313
307 305 306 307 304 302 298 298 299 299 299 298 298 298 297 295 293 292 290 291 292 293 294 295 296 296 297 298 299 298 298 299 300 300 301 303 305 305 305 306 306 307 306 306
304 304 304 304 301 298 296 295 295 296 296 295 294 294 294 294 292 291 290 290 291 291 292 293 294 295 296 297 298 298 298 294 295 295 294 296 297 298 299 298 298 299 298 300
300 299 302 304 297 298 295 293 293 293 292 292 292 291 291 291 291 290 289 288 288 291 291 292 292 293 293 296 297 297 296 295 293 293 294 293 292 293 293 293 293 292 293 294

GFSCGP_850_thetae_111.txt.gz
Theta_e
306 307 308 310 313 316 317 318 319 320 320 321 321 321 321 321 322 322 322 322 322 322 322 322 322 321 321 322 322 322 323 326 333 335 337 338 336 333 329 334 334 332 329 327
308 307 309 311 312 314 316 317 318 319 318 317 318 319 320 320 322 322 322 322 321 321 321 321 320 320 322 324 324 325 325 325 328 333 334 337 335 335 333 329 333 332 331 328
308 308 309 311 311 312 315 316 316 316 315 314 316 317 317 317 318 318 319 319 318 318 318 319 318 322 323 324 324 325 326 326 328 332 334 335 333 334 334 328 329 330 330 328
308 309 309 310 311 312 313 314 314 314 313 315 315 318 318 318 316 318 317 316 316 316 317 318 321 322 323 324 325 327 327 327 329 332 334 331 332 331 332 331 330 331 330 328
310 309 310 310 311 312 312 313 313 313 313 314 314 316 317 317 316 316 317 316 317 319 321 321 322 322 322 322 324 327 329 328 329 331 333 332 331 331 332 331 330 330 330 327
311 310 311 311 311 312 311 311 311 311 313 314 315 314 315 314 316 316 317 318 321 321 321 321 321 321 320 322 323 325 328 329 329 330 332 332 330 332 333 333 332 332 329 328
313 314 312 312 313 312 312 313 313 313 313 315 314 313 314 316 316 318 319 321 321 321 320 320 320 320 320 321 322 323 324 328 329 330 330 331 330 331 333 333 333 330 328 326
310 312 313 314 312 312 312 313 317 318 317 315 314 315 316 315 317 319 320 320 319 320 320 319 319 320 321 321 322 322 324 325 328 329 327 330 330 331 333 332 330 328 326 324
309 310 312 314 313 313 312 312 313 315 317 319 318 316 318 316 318 320 319 318 318 319 319 320 320 320 320 320 319 321 321 324 326 328 326 327 328 331 332 331 331 328 325 324
313 310 310 310 313 312 312 312 313 314 314 314 314 316 317 317 319 319 318 318 318 319 320 320 320 319 318 317 317 318 320 324 325 327 325 324 328 329 330 330 329 327 323 322
314 314 309 309 309 310 310 312 312 312 312 313 314 315 318 318 318 318 318 318 318 319 320 319 318 317 316 315 314 315 319 324 326 326 324 323 326 328 329 328 327 325 320 324
313 315 313 312 312 312 309 311 312 312 312 312 314 318 317 318 318 317 318 318 319 320 319 319 318 317 315 313 311 312 322 325 325 324 323 321 325 327 327 327 324 320 321 323
311 315 316 317 315 311 309 309 312 313 313 314 314 313 318 318 319 318 319 320 320 318 317 316 314 314 313 312 309 313 318 323 323 323 322 323 324 326 326 326 321 320 324 322
311 313 315 317 316 314 314 312 310 312 313 313 314 319 320 318 318 319 317 316 315 314 313 312 311 310 310 309 307 311 315 322 323 322 322 322 324 325 325 324 320 320 325 323
311 313 313 313 313 314 314 315 314 314 314 314 315 316 318 319 319 315 313 313 312 310 309 308 307 306 306 306 307 309 313 321 322 321 321 322 323 323 325 324 322 321 324 321
309 313 312 311 311 312 313 312 313 313 312 313 313 313 319 317 314 312 311 310 309 307 305 304 304 302 302 301 306 305 311 317 320 321 321 321 321 322 322 322 322 323 323 320
309 311 312 311 311 311 312 312 312 312 312 313 315 317 316 314 311 307 306 305 304 302 302 300 299 298 297 302 304 302 310 315 319 320 320 320 320 321 321 322 320 322 323 321
309 310 310 312 310 311 313 314 313 312 315 315 315 315 315 312 305 302 301 302 301 300 299 296 296 298 299 301 301 301 308 314 318 319 319 319 320 320 321 320 319 321 323 320
308 310 311 312 311 311 311 315 316 316 316 314 314 313 313 307 305 302 300 300 299 296 295 297 296 297 298 299 299 301 304 301 308 318 318 319 318 318 320 322 322 321 320 319
308 309 310 312 310 312 312 310 309 312 318 311 311 311 311 311 313 305 300 298 297 295 295 297 296 297 298 298 299 300 301 299 300 307 314 317 318 320 319 319 319 319 320 320
310 310 311 310 310 312 309 310 308 315 312 308 308 308 307 306 303 300 297 296 295 294 296 297 296 296 297 297 298 299 300 298 298 300 308 312 314 317 318 319 319 319 319 319
310 310 312 311 311 312 306 309 310 305 306 306 305 304 302 301 299 297 295 295 293 296 297 296 297 296 297 297 298 297 297 295 294 297 307 307 312 309 314 318 319 319 319 320
310 308 308 312 309 304 302 302 302 304 304 303 303 302 301 300 297 295 294 293 293 294 295 295 297 297 295 296 294 292 296 299 297 304 305 304 304 304 306 313 313 316 317 316
309 306 308 307 301 300 298 299 300 300 300 300 300 300 299 298 296 295 293 291 292 292 293 294 295 296 296 295 295 295 291 292 298 300 301 301 303 304 303 307 309 308 305 305
306 306 305 305 301 300 298 296 296 297 297 297 296 296 297 297 296 294 293 291 290 290 292 292 291 292 293 295 295 296 296 294 296 293 288 290 293 296 295 297 297 298 298 300
302 300 304 304 297 299 296 294 294 294 294 294 295 295 293 294 293 293 292 290 290 289 288 289 290 291 290 292 293 294 294 295 296 295 292 293 292 292 292 291 291 291 292 294

GFSCGP_850_thetae_114.txt.gz
Theta_e
308 308 307 307 313 315 315 317 319 320 320 321 321 321 321 321 321 322 323 323 324 324 323 323 323 323 323 323 323 323 325 330 334 337 337 338 342 341 338 336 336 335 329 329
309 312 307 308 309 311 314 315 318 320 320 320 321 322 321 321 322 321 322 323 323 323 323 323 323 323 322 322 323 323 323 323 327 334 333 335 339 341 339 336 334 334 333 330
308 310 308 307 307 309 312 314 317 318 318 317 319 320 317 320 321 321 322 323 323 323 323 322 322 321 322 324 324 325 325 326 326 326 332 335 337 340 339 335 332 336 335 333
310 311 308 307 307 309 312 313 315 317 318 320 317 317 316 317 319 319 318 319 321 322 320 320 320 321 323 324 324 325 327 327 327 327 328 333 334 335 334 334 332 334 336 335
312 313 310 308 308 309 311 314 315 316 315 316 316 316 316 317 318 319 319 319 318 318 318 318 321 323 323 323 324 325 326 328 328 328 329 332 333 333 332 330 330 331 331 333
310 310 313 310 310 310 312 313 314 314 315 316 315 315 316 318 319 319 318 316 318 320 321 321 322 322 322 321 323 323 324 325 328 329 329 331 333 334 331 330 330 330 330 332
309 313 314 313 311 311 312 313 314 316 316 317 315 315 316 317 318 319 318 318 322 322 321 320 321 320 321 321 322 323 323 323 325 328 329 331 333 334 333 330 332 331 330 331
307 314 313 314 312 311 312 313 315 315 315 315 313 316 316 316 316 317 320 322 321 321 321 320 321 321 321 321 321 321 321 322 323 325 328 329 331 332 331 332 334 332 331 330
314 312 313 314 313 313 313 314 315 316 318 320 316 315 317 316 318 320 321 320 319 319 320 320 320 320 319 318 318 317 316 317 320 320 325 329 329 327 328 330 334 332 331 329
314 317 314 312 313 313 313 314 315 315 317 320 323 316 319 317 320 320 320 319 319 319 320 320 320 318 317 317 316 315 314 314 317 319 323 327 329 327 327 330 333 332 330 328
313 314 315 313 315 314 314 313 313 314 315 315 318 320 319 318 320 320 319 319 321 321 321 320 319 318 317 316 315 313 312 313 318 323 325 327 327 326 326 330 332 331 329 327
312 314 315 312 311 311 312 312 314 315 314 313 315 317 319 319 319 319 323 322 321 319 318 317 316 314 313 313 313 311 311 311 318 323 328 328 327 324 325 330 331 330 328 325
310 314 315 315 314 311 309 309 311 313 314 314 317 314 318 318 317 321 320 318 317 315 313 312 312 311 310 309 309 308 310 311 316 323 325 325 324 323 325 330 329 328 326 323
311 313 314 316 317 315 314 309 309 310 314 313 316 317 319 319 319 317 315 314 313 311 310 309 308 307 306 305 305 304 308 309 315 320 323 323 323 322 324 328 328 326 325 324
310 312 312 312 312 311 317 316 314 310 312 313 317 318 320 318 315 314 312 311 310 308 307 306 305 303 302 301 301 304 306 307 313 318 322 322 322 322 324 327 326 325 322 322
309 312 312 312 310 313 315 315 315 315 315 315 314 316 316 315 313 311 309 307 306 305 304 302 301 299 298 300 301 300 302 306 311 317 321 322 322 322 324 325 324 324 322 321
309 310 311 312 311 311 311 312 313 312 313 313 316 317 316 312 309 306 305 304 303 302 301 299 297 295 297 299 300 299 299 303 308 316 321 321 321 322 323 324 323 322 321 321
309 309 310 313 312 311 315 314 315 315 316 316 316 315 312 307 304 302 302 302 300 298 297 295 295 295 296 298 299 299 299 301 305 316 318 320 321 322 323 322 320 320 320 320
309 310 311 312 313 311 312 311 313 314 315 313 313 313 308 305 305 302 301 300 297 296 295 295 295 294 295 296 298 297 299 300 303 305 313 318 319 320 321 320 319 320 320 320
309 310 310 311 311 312 310 310 310 312 314 303 310 310 311 309 312 303 300 297 296 295 294 295 295 295 295 296 297 296 298 299 301 302 303 310 318 319 320 319 319 319 320 319
310 310 311 310 310 312 307 308 309 314 310 304 306 305 304 304 301 299 298 296 294 293 294 295 295 295 295 294 295 295 296 295 296 300 300 302 311 316 318 319 319 319 318 319
309 310 308 310 311 312 303 307 308 305 304 304 303 303 301 300 299 298 296 294 292 293 294 295 295 296 296 294 294 295 294 294 296 299 300 300 304 303 313 318 318 318 318 318
309 308 308 309 307 301 301 302 301 302 302 302 302 301 301 299 298 296 295 293 292 292 292 293 293 295 295 296 294 292 291 292 295 298 300 301 300 301 303 304 311 314 315 316
308 306 307 306 301 300 299 298 298 298 300 299 300 300 299 298 297 296 294 292 291 291 291 292 292 292 293 294 294 292 290 291 292 296 299 300 299 301 303 302 305 302 302 306
306 306 304 303 301 300 297 295 296 296 296 297 297 296 296 297 296 295 293 292 291 290 289 290 290 290 290 291 292 291 291 291 292 293 294 295 293 295 296 297 299 299 298 299
301 300 302 301 296 298 295 294 294 293 293 294 294 295 293 293 293 293 291 290 289 288 287 288 288 288 289 290 291 290 290 291 291 291 291 292 291 292 292 291 291 291 293 295

GFSCGP_850_thetae_117.txt.gz
Theta_e
306 302 305 307 305 305 306 309 309 312 314 316 316 317 317 316 318 317 318 318 320 321 321 321 321 321 322 321 321 322 327 335 337 339 340 338 332 332 339 339 337 335 337 336
307 305 304 305 309 308 305 306 310 313 315 317 317 319 317 317 316 318 317 319 320 321 322 322 321 321 322 323 323 325 332 337 338 338 338 336 331 330 334 339 338 336 335 336
307 307 305 305 307 310 305 306 307 311 315 317 316 318 318 318 315 317 318 319 320 322 323 323 323 323 323 323 322 322 324 327 328 326 328 334 336 336 336 342 339 338 336 335
305 304 304 305 306 308 305 305 307 309 311 321 317 316 316 319 316 315 316 318 319 322 322 323 323 322 322 322 322 323 324 324 326 330 332 327 328 328 331 335 339 338 336 334
307 308 310 310 309 309 306 306 306 309 313 317 318 318 313 313 314 314 314 317 318 318 322 321 321 321 323 323 324 324 325 325 324 326 328 329 327 329 333 333 338 339 335 332
307 307 309 310 310 309 307 306 308 314 316 318 314 314 312 312 314 314 315 317 318 318 319 322 323 323 324 324 324 324 324 323 324 325 327 328 331 331 332 334 334 334 330 330
307 308 310 312 313 312 307 306 315 318 318 315 314 314 314 313 314 315 315 317 319 320 321 321 321 321 321 322 323 323 323 323 323 324 325 328 329 329 333 332 333 333 330 328
310 314 312 312 313 310 308 312 313 317 315 313 313 315 313 313 313 314 315 319 320 320 321 321 321 321 321 320 320 320 321 320 320 321 320 323 326 330 331 334 332 331 330 329
312 312 311 312 313 312 311 312 313 316 317 317 313 312 313 314 316 318 320 320 320 320 320 320 319 319 319 318 317 315 314 314 314 314 315 316 319 325 330 330 330 329 332 331
312 313 311 313 314 312 311 311 314 318 320 322 322 315 317 318 320 320 321 320 320 319 318 317 317 317 317 317 317 315 315 314 313 314 315 316 317 320 328 330 329 327 330 334
311 313 312 312 315 313 312 312 315 315 315 317 322 321 318 319 319 321 321 318 316 315 314 314 314 315 316 315 315 314 313 312 312 313 314 318 321 323 324 328 329 326 331 332
310 311 314 311 312 312 313 314 313 313 316 314 317 319 319 321 321 321 319 316 313 311 311 312 311 310 311 310 309 310 310 310 310 311 314 319 326 326 325 327 327 326 331 332
310 311 312 313 312 313 314 312 312 313 314 313 316 320 319 318 317 315 313 311 310 309 307 306 307 306 306 308 310 310 310 310 309 310 313 318 323 327 327 326 324 326 330 331
309 312 312 310 310 311 313 315 315 313 313 313 317 320 317 317 315 312 310 309 307 306 304 303 303 303 305 306 307 307 308 308 308 308 311 317 321 324 323 323 323 325 330 328
307 310 311 311 312 311 313 315 315 315 314 313 317 320 316 312 312 309 307 306 305 303 302 301 300 301 303 304 305 306 306 307 307 307 310 316 321 323 323 323 322 326 328 327
306 309 310 311 312 311 314 314 314 314 315 315 317 319 314 311 309 306 305 304 302 301 300 301 298 298 299 299 301 303 303 303 304 305 307 313 319 322 323 322 322 326 327 326
306 308 309 312 312 312 316 315 314 313 315 316 317 315 310 307 305 303 302 301 300 299 297 297 296 296 297 298 299 300 300 301 302 302 306 312 319 321 322 322 323 325 324 325
307 308 308 311 311 314 312 310 313 311 309 309 313 311 307 304 302 301 300 298 297 296 297 296 296 297 297 298 299 299 299 299 300 301 304 308 317 321 321 322 323 323 324 322
308 308 307 309 310 313 309 307 308 312 309 306 309 308 304 302 301 299 298 296 295 295 295 295 295 296 297 298 297 297 297 297 298 299 302 306 311 320 321 322 323 323 322 322
309 308 308 307 310 312 307 304 305 307 307 305 303 304 305 305 307 300 297 295 294 294 294 295 295 295 296 297 296 296 294 296 297 297 298 302 306 316 321 321 322 321 321 321
307 306 307 307 309 309 303 304 305 308 307 303 301 301 300 300 299 297 295 294 293 293 294 294 294 294 294 294 295 294 293 292 295 297 298 300 304 308 317 320 320 320 320 320
307 305 302 306 306 307 301 303 305 303 303 303 301 301 300 298 298 295 294 293 292 293 293 293 293 293 294 294 293 293 293 293 294 298 298 298 301 304 305 315 319 320 320 320
308 307 306 304 304 300 299 299 298 299 299 299 300 300 299 298 296 295 293 292 291 291 291 291 291 293 293 293 293 292 291 293 295 297 297 297 298 302 301 300 308 313 316 316
306 305 303 304 301 299 297 296 297 297 297 297 296 296 298 296 295 294 292 291 290 289 289 289 290 291 291 291 292 292 292 293 294 294 294 295 296 298 300 301 300 301 303 308
302 300 298 301 298 297 295 295 294 294 295 295 295 295 294 294 293 292 291 289 289 288 287 288 288 288 289 290 291 292 292 292 291 291 291 292 292 292 294 295 297 299 298 300
299 298 299 299 296 297 294 293 293 293 292 292 292 293 292 292 292 290 289 288 287 286 285 286 287 287 288 289 289 290 290 290 291 290 289 288 289 289 289 290 289 291 291 292

GFSCGP_850_thetae_120.txt.gz
Theta_e
306 303 303 304 303 305 305 305 304 304 305 306 308 312 314 314 316 317 318 319 320 320 321 321 321 321 320 320 321 321 321 327 334 337 337 338 338 337 335 333 332 335 336 337
305 306 306 306 305 303 303 306 307 306 305 306 308 310 312 314 315 317 316 318 319 319 320 321 321 321 321 321 321 321 321 325 331 334 337 338 338 338 336 335 332 336 337 337
306 306 305 306 306 306 304 304 305 307 305 305 313 316 315 316 314 316 316 317 317 318 319 320 320 321 321 321 321 321 322 323 330 334 337 338 337 334 336 338 336 334 337 338
304 304 304 305 306 307 306 304 305 307 305 306 315 317 313 315 316 315 315 315 316 317 319 320 322 320 320 323 324 325 334 339 338 339 338 337 334 331 330 330 333 329 332 336
305 306 308 308 309 310 308 305 304 307 306 305 311 319 316 312 315 316 312 314 316 317 318 320 322 323 324 326 326 327 330 332 332 332 332 333 338 337 332 329 329 329 336 336
304 305 306 307 308 310 309 306 308 306 306 307 308 317 314 312 315 314 313 314 316 319 321 322 323 324 324 324 325 325 325 325 324 325 326 327 329 332 337 337 335 333 335 336
309 309 310 311 312 311 310 308 308 308 309 315 314 318 316 312 311 312 314 315 317 321 322 322 322 322 323 323 322 323 322 322 322 323 324 325 326 327 329 332 334 334 335 335
310 310 310 309 311 313 312 308 307 311 316 314 315 315 312 311 312 312 313 318 320 319 319 319 319 320 318 318 319 320 320 320 318 316 316 317 320 322 325 327 330 332 331 331
311 311 309 309 310 313 309 306 306 314 316 314 311 310 310 316 316 314 318 317 316 316 314 314 316 316 317 318 318 317 316 314 313 313 313 313 313 314 315 320 326 330 332 329
309 312 311 311 312 313 312 309 313 315 317 317 319 315 320 322 321 318 315 314 312 311 310 311 311 313 314 315 315 315 315 315 314 313 313 313 314 314 315 316 318 327 330 330
309 311 311 312 313 313 313 311 313 315 315 319 321 323 320 322 320 316 313 311 309 308 307 307 308 309 309 310 312 312 312 312 312 312 312 312 313 314 316 318 318 322 328 330
308 312 312 311 311 312 313 314 314 314 318 316 316 318 317 317 316 314 311 309 307 305 305 305 306 308 308 309 309 310 311 311 311 312 312 313 314 314 317 324 323 321 326 329
307 310 311 309 310 310 311 311 312 314 314 316 317 320 315 313 311 309 308 307 305 305 305 304 306 309 309 308 309 308 308 308 309 310 311 312 312 314 319 324 326 325 325 327
306 309 311 311 310 310 312 312 313 314 315 314 317 317 315 311 307 307 306 304 303 302 300 299 302 303 304 305 306 306 307 306 306 307 308 309 311 314 318 323 325 326 326 325
305 307 308 309 311 312 313 313 313 315 316 314 317 318 312 308 307 304 301 302 301 300 299 297 297 300 302 303 303 303 303 303 304 305 305 306 309 314 317 320 323 323 323 323
304 306 308 310 311 311 313 314 312 312 312 317 315 315 309 307 304 303 300 300 299 298 296 295 297 299 300 300 301 301 301 302 302 302 303 304 307 312 317 320 322 323 323 322
304 306 307 310 310 313 310 308 309 308 307 314 315 312 305 303 302 299 299 298 297 296 295 294 295 297 298 299 299 299 299 299 300 301 302 304 306 311 316 320 322 322 322 323
305 306 307 309 309 314 310 305 307 307 306 305 307 305 303 300 299 298 296 295 294 294 295 294 295 298 297 298 299 299 299 299 300 300 301 302 305 308 313 318 321 322 322 323
305 306 306 309 309 312 307 304 306 307 306 305 305 305 301 300 300 297 295 294 294 294 294 294 294 295 296 297 298 298 299 300 299 299 299 301 302 306 310 315 321 321 322 322
307 307 306 307 310 309 305 302 303 304 306 303 301 302 302 303 303 298 294 293 293 293 293 294 294 295 296 297 297 297 297 297 297 297 296 298 300 302 307 312 320 322 322 321
306 305 305 306 308 307 301 301 302 305 305 302 301 300 299 299 297 295 293 292 292 292 293 294 295 295 295 295 296 296 295 294 294 296 296 298 299 301 303 308 314 320 322 322
305 304 305 303 304 304 299 300 302 301 298 300 300 299 298 297 295 293 292 291 291 291 292 292 292 292 293 295 296 295 294 292 294 295 296 297 298 299 301 303 306 314 317 321
307 305 303 303 302 299 297 297 297 298 297 297 296 297 298 296 294 293 291 290 290 289 289 290 290 292 293 293 293 293 292 291 293 293 295 296 296 297 298 300 303 300 305 313
304 301 301 302 299 297 295 295 295 295 295 295 296 295 296 295 293 291 290 289 289 289 288 289 291 292 292 292 291 290 291 291 291 292 293 293 294 294 293 293 298 298 299 301
301 298 299 299 298 296 294 294 293 294 294 293 293 293 293 292 291 290 289 288 287 287 287 288 289 289 289 290 290 290 290 290 290 290 290 291 291 291 289 288 288 294 294 297
298 297 296 293 295 296 294 292 292 292 292 292 292 291 291 290 289 289 288 286 286 286 286 287 287 288 288 288 289 289 289 289 290 290 289 289 290 289 289 287 287 287 287 291

GFSCGP_850_thetae_123.txt.gz
Theta_e
305 303 303 302 301 303 303 303 303 303 304 304 304 304 304 305 307 309 314 315 316 318 320 320 321 321 320 320 322 331 328 323 329 336 338 336 333 332 333 333 333 335 336 336
303 303 303 304 304 304 304 304 303 303 303 304 305 305 304 305 306 308 311 315 316 318 319 320 320 321 321 321 320 320 320 320 321 326 330 337 336 335 335 335 335 333 337 337
303 304 305 305 305 305 306 306 306 306 306 303 304 305 304 305 307 310 311 314 316 316 318 320 320 320 320 320 321 320 320 320 320 323 332 338 339 338 337 337 335 334 335 337
303 303 304 303 304 304 305 305 307 310 307 305 303 304 306 307 312 313 312 313 315 317 316 318 317 318 319 318 319 319 319 321 324 330 338 338 339 337 336 335 332 332 330 335
305 305 306 306 306 306 308 308 310 306 305 303 304 307 307 309 313 313 311 313 315 315 316 316 318 319 320 321 323 327 329 332 335 336 339 339 337 335 335 333 329 330 331 333
305 305 304 305 306 307 310 310 307 306 305 307 305 307 307 311 313 313 313 312 319 318 318 319 322 324 324 326 330 330 330 328 332 336 337 336 334 335 334 333 335 336 333 331
307 308 306 306 310 311 309 307 307 307 307 308 306 307 306 309 312 313 314 319 318 317 315 314 317 318 318 318 319 320 322 322 323 325 326 328 329 329 330 331 334 335 336 336
308 307 310 310 309 311 312 306 307 306 312 312 312 310 314 314 312 318 318 317 315 314 313 311 311 314 314 315 316 316 317 318 318 320 321 321 322 322 323 325 327 328 331 333
309 309 307 308 309 311 311 312 309 308 312 314 314 313 316 317 317 315 315 313 310 310 309 309 310 311 313 314 315 315 315 315 314 313 312 312 313 313 313 313 316 319 324 328
308 309 309 310 311 311 312 309 311 312 316 317 314 317 321 318 313 312 310 308 306 305 305 306 308 308 310 311 312 312 314 313 313 312 312 312 312 312 312 313 313 314 315 318
306 309 309 310 312 312 312 314 314 314 316 319 318 319 319 316 314 311 308 305 303 302 301 302 304 307 307 308 309 311 312 313 312 311 311 311 312 312 312 313 312 313 316 316
303 308 309 309 310 311 311 312 313 315 316 316 317 319 314 313 311 309 307 305 303 301 300 301 304 306 308 308 308 308 310 310 310 311 311 311 312 312 312 313 314 315 317 318
303 306 307 306 308 308 310 311 312 314 315 317 318 316 307 308 307 304 304 302 301 301 299 299 302 302 301 302 303 304 306 307 308 309 310 310 311 311 312 313 314 315 322 325
304 307 304 304 307 309 312 312 313 314 315 315 317 313 307 305 303 302 300 299 299 299 298 298 299 301 302 302 303 304 306 306 306 306 307 309 310 309 311 312 314 318 324 325
303 305 306 307 308 309 312 313 312 312 314 316 316 312 307 304 303 300 298 299 298 297 297 300 299 301 302 303 302 302 302 304 304 305 305 306 306 307 308 310 314 318 323 324
301 304 306 307 310 309 306 307 308 308 309 315 311 308 304 301 300 299 299 298 298 296 295 295 295 296 296 299 300 300 303 302 302 302 301 302 303 305 307 309 312 317 321 323
302 304 306 308 309 313 308 305 306 306 305 309 312 307 302 300 298 297 296 296 295 294 293 292 293 294 295 296 297 298 299 300 300 300 300 301 302 304 306 308 312 316 319 321
303 304 305 308 309 310 307 303 306 306 304 303 305 303 300 298 296 295 294 293 292 291 291 291 292 295 297 298 299 299 299 299 299 299 299 300 301 303 305 307 310 316 319 320
302 304 305 307 310 309 307 302 303 305 305 302 302 303 301 300 300 295 293 291 290 290 291 292 294 296 297 298 297 296 297 297 298 299 298 298 299 300 302 305 309 314 318 319
305 303 306 306 310 308 304 300 300 303 304 302 301 300 300 300 302 297 292 291 290 291 291 292 294 295 296 296 296 295 296 296 297 296 296 297 298 298 299 302 307 312 317 320
304 303 304 305 309 305 300 299 300 305 302 300 300 299 298 298 296 293 292 291 291 290 290 290 292 292 293 294 293 294 294 294 294 295 295 296 297 297 297 300 303 307 311 318
305 304 303 302 303 301 298 299 301 300 297 296 297 298 297 296 294 293 292 291 290 290 291 291 291 291 291 292 293 293 293 292 292 293 294 294 294 293 294 297 299 300 306 311
300 304 303 303 302 298 296 297 296 296 296 296 295 296 297 295 293 292 291 290 290 289 289 289 290 291 292 293 292 292 291 290 291 293 293 292 292 291 292 295 296 297 300 303
302 299 300 301 299 297 295 295 294 294 294 294 294 294 294 293 291 290 289 288 288 288 287 288 289 289 290 290 290 289 289 290 291 291 291 291 290 290 290 291 291 293 296 298
300 297 298 298 298 296 294 293 292 292 293 292 292 292 291 291 289 289 288 287 286 286 286 286 287 287 287 288 288 288 288 289 290 290 290 290 289 289 288 287 287 287 287 293
297 296 294 289 295 295 294 293 292 292 291 291 291 290 290 289 288 287 286 285 284 285 285 285 285 286 286 287 287 288 287 287 288 289 288 288 288 288 289 288 287 287 288 288

GFSCGP_850_thetae_126.txt.gz
Theta_e
304 303 302 301 301 302 302 302 302 302 302 303 303 303 303 304 304 303 303 303 305 307 310 314 315 317 318 332 335 335 334 334 334 334 333 330 326 323 321 321 321 323 325 328
302 303 303 302 301 302 302 302 303 303 304 304 304 304 305 304 304 304 304 304 304 305 308 313 315 317 318 320 324 331 335 335 335 335 335 335 335 334 328 325 326 329 331 332
303 304 303 303 303 304 304 304 304 305 304 305 306 307 307 305 304 304 304 304 304 305 307 312 316 317 319 319 322 328 330 329 333 336 337 338 338 337 335 332 332 333 334 334
302 302 303 303 303 303 303 304 305 305 307 310 304 307 304 303 302 303 304 304 305 308 309 311 314 316 317 319 319 319 320 321 324 335 335 336 336 337 337 336 335 336 335 334
304 305 304 304 304 304 304 305 308 308 310 305 305 305 304 303 304 305 305 307 308 311 310 312 315 316 317 317 318 318 317 318 324 332 334 335 336 336 337 337 336 335 334 333
304 305 304 304 305 305 306 308 309 307 305 306 305 303 304 303 304 309 312 315 314 313 314 315 317 319 321 321 322 322 320 319 323 326 335 338 338 336 334 334 333 333 328 330
304 306 305 304 307 308 308 306 306 304 305 307 307 308 304 306 308 308 312 313 311 310 309 309 311 315 322 323 326 329 332 331 331 333 334 336 335 335 335 333 329 325 323 329
304 302 307 308 308 308 309 309 308 305 309 308 308 311 311 316 315 313 311 309 307 305 305 305 306 308 310 311 312 314 316 317 319 320 323 326 329 329 329 328 327 324 328 330
306 304 304 304 306 308 312 312 308 309 309 310 310 313 315 314 312 311 309 306 305 304 303 302 303 305 306 307 310 311 311 311 312 312 313 314 315 318 319 321 323 325 324 323
303 305 305 307 311 311 311 310 312 309 311 317 315 315 311 314 310 307 306 305 303 302 301 301 301 302 303 305 306 308 309 310 311 311 311 311 312 312 312 313 312 313 313 313
301 306 305 306 311 311 311 312 312 315 314 317 317 317 306 310 310 307 305 302 301 300 299 299 299 300 302 305 307 307 308 309 311 313 313 311 310 310 311 311 312 312 312 312
301 305 307 305 306 309 311 312 312 316 316 314 315 312 304 304 303 302 303 302 301 299 298 298 299 298 301 306 307 304 306 309 309 310 310 310 310 310 310 311 311 312 312 313
303 304 304 303 305 307 308 309 310 313 315 317 317 311 303 302 301 299 299 299 298 297 297 296 295 296 303 307 307 307 307 307 308 308 308 308 308 309 309 310 311 311 312 313
304 304 301 300 302 308 308 311 312 313 314 316 313 307 304 302 301 299 298 298 297 296 295 295 296 298 299 302 303 305 305 305 305 305 306 307 307 308 308 309 309 310 311 313
303 304 304 305 306 309 306 307 307 309 311 315 309 305 302 301 300 298 297 296 296 295 294 294 296 294 297 300 300 300 299 301 303 304 306 306 306 305 306 307 308 309 310 313
300 303 304 306 309 311 306 305 305 304 306 312 308 305 302 298 297 296 296 295 294 293 292 292 294 296 296 298 298 298 299 301 303 303 304 303 304 304 305 306 307 309 309 311
301 302 306 307 308 311 307 304 306 304 303 306 305 304 301 298 296 294 294 293 292 291 290 290 292 292 292 295 294 297 299 300 302 303 302 301 303 303 303 303 305 307 310 311
302 303 305 307 309 309 307 302 304 305 303 302 302 302 299 296 295 293 292 291 290 289 289 290 291 291 292 293 295 295 298 299 301 300 300 301 301 301 302 302 302 305 308 311
300 303 306 306 309 307 305 301 301 302 303 301 301 299 299 298 299 294 291 290 289 289 289 289 290 291 290 293 293 295 296 296 297 297 297 298 298 298 298 298 299 302 306 310
301 301 305 305 309 306 302 299 299 301 303 299 300 299 298 297 298 295 291 290 290 290 290 290 291 291 291 292 292 293 294 294 294 294 295 295 296 296 295 295 297 299 302 307
303 302 303 302 307 305 299 298 299 304 299 297 296 298 296 296 294 292 290 289 289 289 290 290 291 290 291 291 292 292 292 292 291 293 293 294 295 295 294 294 295 297 300 303
303 304 302 302 301 300 297 298 299 298 297 296 295 296 296 294 293 291 289 289 288 288 289 289 289 289 290 291 291 290 291 291 290 291 292 292 292 292 292 293 294 296 297 299
299 302 302 302 301 298 295 296 295 294 295 294 294 294 295 292 290 290 288 287 287 286 286 287 288 288 288 289 289 290 290 291 290 290 290 291 291 290 289 291 290 292 294 295
301 299 300 299 299 297 294 294 293 293 292 292 292 292 292 291 290 288 288 287 287 286 286 286 286 287 287 288 288 288 288 289 288 289 289 289 288 288 289 288 288 287 289 290
299 298 297 298 297 296 293 293 292 292 292 291 291 290 289 289 288 287 286 285 285 285 285 285 285 285 286 287 287 288 288 289 289 289 289 289 289 288 289 286 286 286 286 285
297 296 294 297 295 295 293 292 292 291 291 290 289 288 287 287 286 285 285 284 283 283 284 284 284 284 284 285 285 286 286 287 287 288 287 287 288 288 288 289 287 287 288 288

GFSCGP_850_thetae_129.txt.gz
Theta_e
304 305 306 305 304 304 303 304 304 304 305 304 306 306 307 306 306 306 306 305 305 305 305 306 305 305 309 313 317 317 328 332 322 322 321 321 319 320 320 319 319 320 320 320
305 306 305 304 303 303 304 304 305 305 306 307 307 307 307 307 307 306 307 307 307 305 305 305 305 304 307 312 319 318 321 333 332 323 321 321 321 320 321 321 320 321 322 322
306 306 304 304 305 305 305 305 307 307 307 308 307 308 308 307 306 306 305 306 305 305 305 304 305 304 306 310 313 316 318 324 335 333 330 328 328 326 326 325 323 322 322 323
304 303 304 304 304 304 307 305 306 306 309 311 308 309 307 308 308 308 305 305 304 304 303 304 304 304 307 310 313 315 321 328 334 335 335 334 334 334 334 333 330 327 325 326
307 306 306 306 306 305 307 305 307 308 310 309 307 307 308 310 310 308 308 309 313 313 307 304 304 305 310 312 314 314 322 332 334 336 336 336 337 337 337 337 337 335 331 332
305 304 305 306 306 306 307 308 310 309 309 307 307 308 311 310 311 310 314 310 309 310 309 310 312 312 316 317 315 313 316 330 334 336 336 337 337 338 338 337 335 336 335 334
304 305 306 305 307 308 309 310 311 309 309 308 307 310 310 313 310 307 309 304 304 303 303 304 305 307 311 315 320 322 322 325 330 334 338 337 337 336 336 335 336 336 334 333
303 302 307 307 308 308 308 310 312 313 311 311 309 311 314 308 306 302 303 300 303 302 301 300 300 301 303 305 320 321 325 326 328 331 333 335 334 333 336 334 334 329 327 324
303 302 304 303 308 309 313 313 311 311 310 311 311 312 312 305 305 303 301 300 300 300 300 299 299 301 300 304 309 313 314 316 321 324 327 327 327 329 330 331 331 329 326 323
302 304 303 306 309 311 311 311 314 312 313 313 314 313 308 305 303 303 301 299 298 298 298 297 297 298 299 303 305 306 308 308 310 311 313 313 313 313 315 317 321 323 326 327
302 304 305 306 309 307 311 310 311 311 313 316 317 311 304 303 302 301 300 297 297 296 296 295 295 295 298 300 302 304 306 306 308 308 310 310 309 310 312 311 312 313 313 313
302 305 306 304 305 307 307 308 310 313 315 314 315 308 304 302 301 299 298 296 296 295 294 294 294 295 296 297 299 301 302 304 304 305 306 308 309 310 310 310 310 310 311 311
304 306 306 303 308 307 307 307 308 312 313 315 316 310 302 301 300 298 297 296 295 294 293 293 293 294 295 294 295 297 300 303 304 304 304 305 307 308 309 309 309 310 310 311
304 306 305 306 305 307 308 306 306 308 315 314 309 305 302 300 299 297 296 295 294 293 292 291 291 291 294 292 292 298 303 307 307 307 306 305 307 308 308 308 308 309 309 310
303 304 305 305 305 307 307 306 305 305 309 309 304 302 301 299 298 296 294 293 292 291 291 290 290 291 293 297 299 299 300 302 302 302 302 303 306 306 306 308 308 308 309 309
301 305 305 306 308 309 307 305 304 303 304 307 305 303 301 297 295 294 293 292 291 290 290 289 290 293 295 295 295 296 296 298 300 301 301 304 304 304 305 305 304 305 306 308
302 304 306 307 307 311 307 304 305 303 302 303 304 303 300 297 294 293 292 291 290 289 288 289 290 292 293 295 293 294 296 299 300 301 299 300 301 302 303 304 304 305 305 306
303 304 306 307 308 310 306 301 304 303 302 301 301 300 299 295 293 292 291 290 288 288 289 289 290 291 291 292 293 292 293 295 296 297 297 299 300 301 301 302 302 302 302 303
301 304 307 308 308 308 305 301 300 302 301 299 301 299 298 298 297 293 290 288 287 287 287 289 289 289 289 291 291 291 293 294 294 292 294 295 296 296 297 298 298 298 299 301
301 302 305 305 307 307 302 299 298 300 303 298 297 298 297 296 298 294 289 287 287 288 289 289 289 289 291 292 292 293 293 293 292 292 293 293 293 294 294 296 296 297 298 299
303 303 303 302 306 304 298 297 298 306 301 296 296 296 296 295 293 290 288 286 286 286 287 288 288 288 289 290 291 291 291 291 290 291 292 292 292 293 293 293 294 295 296 299
303 303 302 302 302 303 296 298 299 296 297 295 294 294 294 292 290 288 287 285 286 286 286 287 288 288 288 289 290 289 290 289 289 290 290 291 291 292 292 292 293 293 295 295
304 302 302 301 301 297 296 295 294 294 294 292 292 291 292 290 288 286 285 283 285 285 285 285 286 287 287 288 287 288 288 289 290 290 290 290 290 290 290 290 290 291 292 291
301 300 301 300 298 296 295 293 293 293 292 291 290 289 289 288 286 285 284 283 283 284 284 285 285 285 286 286 287 287 288 288 288 289 289 289 289 289 290 288 288 286 287 289
300 299 299 299 297 295 294 293 292 292 291 290 289 288 287 286 285 284 283 282 282 282 283 283 284 284 285 285 286 286 287 288 287 287 288 288 288 289 288 287 286 286 284 285
297 298 299 299 296 296 294 292 291 291 290 289 288 286 286 285 284 282 281 281 282 282 282 283 283 283 284 284 285 285 286 286 287 287 287 286 287 288 288 289 287 287 288 288